[[{"header":{"parameterUnit":"m.s-1","parameterCategory":1,"la1":31.0,"la2":29.5877,"lo1":-88.7671,"lo2":-86.6584,"dy":0.0162,"dx":0.0185,"nx":115,"ny":88,"refTime":"2024-02-04T06:00:00:Z","depth":0,"parameterNumber":2,"parameterNumberName":"U-component_of_WINDS"},"data":[0.0,0.0,0.0,0.0,0.0,0.0,0.0,0.0,0.0,0.0,0.0,0.0,0.0,0.0,0.0,0.0,0.0,0.0,0.0,0.0,0.0,0.0,0.0,0.0,0.0,0.0,0.0,0.0,0.0,0.0,0.0,0.0,0.0,0.0,0.0,0.0,0.0,0.0,0.0,0.0,0.0,0.0,0.0,0.0,0.0,0.0,0.0,0.0,0.0,0.0,0.0,0.0,0.0,0.0,0.0,0.0,0.0,0.0,0.0,0.0,0.0,0.0,0.0,0.0,0.0,0.0,0.0,0.0,0.0,0.0,0.0,0.0,0.0,0.0,0.0,0.0,0.0,0.0,0.0,0.0,0.0,0.0,0.0,0.0,0.0,0.0,0.0,0.0,0.0,0.0,0.0,0.0,0.0,0.0,0.0,0.0,0.0,0.0,0.0,0.0,0.0,0.0,0.0,0.0,0.0,0.0,0.0,0.0,0.0,0.0,0.0,0.0,0.0,0.0,0.0,0.0,0.0,0.0,0.0,0.0,0.0,0.0,0.0,0.0,0.0,0.0,0.0,0.0,0.0,0.0,0.0,0.0,0.0,0.0,0.0,0.0,0.0,0.0,0.0,0.0,0.0,0.0,0.0,0.0,0.0,0.0,0.0,0.0,0.0,0.0,0.0,0.0,0.0,0.0,0.0,0.0,0.0,0.0,0.0,0.0,0.0,0.0,0.0,0.0,0.0,0.0,0.0,0.0,0.0,0.0,0.0,0.0,0.0,0.0,0.0,0.0,0.0,0.0,0.0,0.0,0.0,0.0,0.0,0.0,0.0,0.0,0.0,0.0,0.0,0.0,0.0,0.0,0.0,0.0,0.0,0.0,0.0,0.0,0.0,0.0,0.0,0.0,0.0,0.0,0.0,0.0,0.0,0.0,0.0,0.0,0.0,0.0,0.0,0.0,0.0,0.0,0.0,0.0,0.0,0.0,0.0,0.0,0.0,0.0,0.0,0.0,0.0,0.0,0.0,0.0,0.0,0.0,0.0,0.0,0.0,0.0,0.0,0.0,0.0,0.0,0.0,0.0,0.0,0.0,0.0,0.0,0.0,0.0,0.0,0.0,0.0,0.0,0.0,0.0,0.0,0.0,0.0,0.0,0.0,0.0,0.0,0.0,0.0,0.0,0.0,0.0,0.0,0.0,0.0,0.0,0.0,0.0,0.0,0.0,0.0,0.0,0.0,0.0,0.0,0.0,0.0,0.0,0.0,0.0,0.0,0.0,0.0,0.0,0.0,0.0,0.0,0.0,0.0,0.0,0.0,0.0,0.0,0.0,0.0,0.0,0.0,0.0,0.0,0.0,0.0,0.0,0.0,0.0,0.0,0.0,0.0,0.0,0.0,0.0,0.0,0.0,0.0,0.0,0.0,0.0,0.0,0.0,0.0,0.0,0.0,0.0,0.0,0.0,0.0,0.0,0.0,0.0,0.0,0.0,0.0,0.0,0.0,0.0,0.0,0.0,0.0,0.0,0.0,0.0,0.0,0.0,0.0,0.0,0.0,0.0,0.0,0.0,0.0,0.0,0.0,0.0,0.0,0.0,0.0,0.0,0.0,0.0,0.0,0.0,0.0,0.0,0.0,0.0,0.0,0.0,0.0,0.0,0.0,0.0,0.0,0.0,0.0,0.0,0.0,0.0,0.0,0.0,0.0,0.0,0.0,0.0,0.0,0.0,0.0,0.0,0.0,0.0,0.0,0.0,0.0,0.0,0.0,0.0,0.0,0.0,0.0,0.0,0.0,0.0,0.0,0.0,0.0,0.0,0.0,0.0,0.0,0.0,0.0,0.0,0.0,0.0,0.0,0.0,0.0,0.0,0.0,0.0,0.0,0.0,0.0,0.0,0.0,0.0,0.0,0.0,0.0,0.0,0.0,0.0,0.0,0.0,0.0,0.0,0.0,0.0,0.0,0.0,0.0,0.0,0.0,0.0,0.0,0.0,0.0,0.0,0.0,0.0,0.0,0.0,0.0,0.0,0.0,0.0,0.0,0.0,0.0,0.0,0.0,0.0,0.0,0.0,0.0,0.0,0.0,0.0,0.0,0.0,0.0,0.0,0.0,0.0,0.0,0.0,0.0,0.0,0.0,0.0,0.0,0.0,0.0,0.0,0.0,0.0,0.0,0.0,0.0,0.0,0.0,0.0,0.0,0.0,0.0,0.0,0.0,0.0,0.0,0.0,0.0,0.0,0.0,0.0,0.0,0.0,0.0,0.0,0.0,0.0,0.0,0.0,0.0,0.0,0.0,0.0,0.0,0.0,0.0,0.0,0.0,0.0,0.0,0.0,0.0,0.0,0.0,0.0,0.0,0.0,0.0,0.0,0.0,0.0,0.0,0.0,0.0,0.0,0.0,0.0,0.0,0.0,0.0,0.0,0.0,0.0,0.0,0.0,0.0,0.0,0.0,0.0,0.0,0.0,0.0,0.0,0.0,0.0,0.0,0.0,0.0,0.0,0.0,0.0,0.0,0.0,0.0,0.0,0.0,0.0,0.0,0.0,0.0,0.0,0.0,0.0,0.0,0.0,0.0,0.0,0.0,0.0,0.0,0.0,0.0,0.0,0.0,0.0,0.0,0.0,0.0,0.0,0.0,0.0,0.0,0.0,0.0,0.0,0.0,0.0,0.0,0.0,0.0,0.0,0.0,0.0,0.0,0.0,0.0,0.0,0.0,0.0,0.0,0.0,0.0,0.0,0.0,0.0,0.0,0.0,0.0,0.0,0.0,0.0,0.0,0.0,0.0,0.0,0.0,0.0,0.0,0.0,0.0,0.0,0.0,0.0,0.0,0.0,0.0,0.0,0.0,0.0,0.0,0.0,0.0,0.0,0.0,0.0,0.0,0.0,0.0,0.0,0.0,0.0,0.0,0.0,0.0,0.0,0.0,0.0,0.0,0.0,0.0,0.0,0.0,0.0,0.0,0.0,0.0,0.0,0.0,0.0,0.0,0.0,0.0,0.0,0.0,0.0,0.0,0.0,0.0,0.0,0.0,0.0,0.0,0.0,0.0,0.0,0.0,0.0,0.0,0.0,0.0,0.0,0.0,0.0,0.0,0.0,0.0,0.0,0.0,0.0,0.0,0.0,0.0,0.0,0.0,0.0,0.0,0.0,0.0,0.0,0.0,0.0,0.0,0.0,0.0,0.0,0.0,0.0,0.0,0.0,0.0,0.0,0.0,0.0,0.0,0.0,0.0,0.0,0.0,0.0,0.0,0.0,0.0,0.0,0.0,0.0,0.0,0.0,0.0,0.0,0.0,0.0,0.0,0.0,0.0,0.0,0.0,0.0,0.0,0.0,0.0,0.0,0.0,0.0,0.0,0.0,0.0,0.0,0.0,0.0,0.0,0.0,0.0,0.0,0.0,0.0,0.0,0.0,0.0,0.0,0.0,0.0,0.0,0.0,0.0,0.0,0.0,0.0,0.0,0.0,0.0,0.0,0.0,0.0,0.0,0.0,0.0,0.0,0.0,0.0,0.0,0.0,0.0,0.0,0.0,0.0,0.0,0.0,0.0,0.0,0.0,0.0,0.0,0.0,0.0,0.0,0.0,0.0,0.0,0.0,0.0,0.0,0.0,0.0,0.0,0.0,0.0,0.0,0.0,0.0,0.0,0.0,0.0,0.0,0.0,0.0,0.0,0.0,0.0,0.0,0.0,0.0,0.0,0.0,0.0,0.0,0.0,0.0,0.0,0.0,0.0,0.0,0.0,0.0,0.0,0.0,0.0,0.0,0.0,0.0,0.0,0.0,0.0,0.0,0.0,0.0,0.0,0.0,0.0,0.0,0.0,0.0,0.0,0.0,0.0,0.0,0.0,0.0,0.0,0.0,0.0,0.0,0.0,0.0,0.0,0.0,0.0,0.0,0.0,0.0,0.0,0.0,0.0,0.0,0.0,0.0,0.0,0.0,0.0,0.0,0.0,0.0,0.0,0.0,0.0,0.0,0.0,0.0,0.0,0.0,0.0,0.0,0.0,0.0,0.0,0.0,0.0,0.0,0.0,0.0,0.0,0.0,0.0,0.0,0.0,0.0,0.0,0.0,0.0,0.0,0.0,0.0,0.0,0.0,0.0,0.0,0.0,0.0,0.0,0.0,0.0,0.0,0.0,0.0,0.0,0.0,0.0,0.0,0.0,0.0,0.0,0.0,0.0,0.0,0.0,0.0,0.0,0.0,0.0,0.0,0.0,0.0,0.0,0.0,0.0,0.0,0.0,0.0,0.0,0.0,0.0,0.0,2.9207,0.0,0.0,0.0,0.0,0.0,0.0,0.0,0.0,0.0,0.0,0.0,0.0,0.0,0.0,0.0,0.0,0.0,0.0,0.0,0.0,0.0,0.0,0.0,0.0,0.0,0.0,0.0,0.0,0.0,0.0,0.0,0.0,0.0,0.0,0.0,0.0,0.0,0.0,0.0,0.0,0.0,0.0,0.0,0.0,0.0,0.0,0.0,0.0,0.0,0.0,0.0,0.0,0.0,0.0,0.0,0.0,0.0,0.0,0.0,0.0,0.0,0.0,0.0,0.0,0.0,0.0,0.0,0.0,0.0,0.0,0.0,0.0,0.0,0.0,0.0,0.0,0.0,0.0,0.0,0.0,0.0,0.0,0.0,0.0,0.0,0.0,0.0,0.0,0.0,0.0,0.0,0.0,0.0,0.0,0.0,0.0,0.0,0.0,0.0,0.0,0.0,0.0,0.0,0.0,0.0,0.0,0.0,0.0,0.0,0.0,3.0425,3.0492,3.019,2.9799,2.9396,0.0,0.0,0.0,0.0,0.0,0.0,0.0,0.0,0.0,0.0,0.0,0.0,0.0,0.0,0.0,0.0,0.0,0.0,0.0,0.0,0.0,0.0,0.0,0.0,0.0,0.0,0.0,0.0,0.0,0.0,0.0,0.0,0.0,0.0,0.0,0.0,0.0,0.0,0.0,0.0,0.0,0.0,0.0,0.0,0.0,0.0,0.0,0.0,0.0,0.0,0.0,0.0,0.0,0.0,0.0,0.0,0.0,0.0,0.0,0.0,0.0,0.0,0.0,0.0,0.0,0.0,0.0,0.0,0.0,0.0,0.0,0.0,0.0,0.0,0.0,0.0,0.0,0.0,0.0,0.0,0.0,0.0,0.0,0.0,0.0,0.0,0.0,0.0,0.0,0.0,0.0,0.0,0.0,0.0,0.0,0.0,0.0,0.0,0.0,0.0,0.0,0.0,0.0,0.0,0.0,0.0,0.0,0.0,0.0,0.0,0.0,0.0,3.0548,3.025,2.9412,0.0,0.0,0.0,0.0,0.0,0.0,0.0,0.0,0.0,0.0,0.0,0.0,0.0,0.0,0.0,0.0,0.0,0.0,0.0,0.0,0.0,0.0,0.0,0.0,0.0,0.0,0.0,0.0,0.0,0.0,0.0,0.0,0.0,0.0,0.0,0.0,0.0,0.0,0.0,0.0,0.0,0.0,0.0,0.0,0.0,0.0,0.0,0.0,0.0,0.0,0.0,0.0,0.0,0.0,0.0,0.0,0.0,0.0,0.0,0.0,0.0,0.0,0.0,0.0,0.0,0.0,0.0,0.0,0.0,0.0,0.0,0.0,0.0,0.0,0.0,0.0,0.0,0.0,0.0,0.0,0.0,0.0,0.0,0.0,0.0,0.0,0.0,0.0,0.0,0.0,0.0,0.0,0.0,0.0,0.0,0.0,0.0,0.0,0.0,0.0,0.0,0.0,0.0,0.0,0.0,0.0,0.0,0.0,0.0,0.0,3.0425,3.0472,3.0548,0.0,2.943,0.0,0.0,0.0,0.0,0.0,0.0,0.0,0.0,0.0,0.0,0.0,0.0,0.0,0.0,0.0,0.0,0.0,0.0,0.0,0.0,0.0,0.0,0.0,0.0,0.0,0.0,0.0,0.0,0.0,0.0,0.0,0.0,0.0,0.0,0.0,0.0,0.0,0.0,0.0,0.0,0.0,0.0,0.0,0.0,0.0,0.0,0.0,0.0,0.0,0.0,0.0,0.0,0.0,0.0,0.0,0.0,0.0,0.0,0.0,0.0,0.0,0.0,0.0,0.0,0.0,0.0,0.0,0.0,0.0,0.0,0.0,0.0,0.0,0.0,0.0,0.0,0.0,0.0,0.0,0.0,0.0,0.0,0.0,0.0,0.0,0.0,0.0,0.0,0.0,0.0,0.0,0.0,0.0,0.0,0.0,0.0,0.0,0.0,0.0,0.0,0.0,0.0,0.0,0.0,0.0,0.0,0.0,0.0,0.0,0.0,3.0402,3.05,3.0613,3.0489,0.0,0.0,0.0,0.0,0.0,0.0,0.0,0.0,0.0,0.0,0.0,0.0,0.0,0.0,0.0,0.0,0.0,0.0,0.0,0.0,0.0,0.0,0.0,0.0,0.0,0.0,0.0,0.0,0.0,0.0,0.0,0.0,0.0,0.0,0.0,0.0,0.0,0.0,0.0,0.0,0.0,0.0,0.0,0.0,0.0,0.0,0.0,0.0,0.0,0.0,0.0,0.0,0.0,0.0,0.0,0.0,0.0,0.0,0.0,0.0,0.0,0.0,0.0,0.0,0.0,0.0,0.0,0.0,0.0,0.0,0.0,0.0,0.0,0.0,0.0,0.0,0.0,0.0,0.0,0.0,0.0,0.0,0.0,0.0,0.0,0.0,0.0,0.0,0.0,0.0,0.0,0.0,0.0,0.0,0.0,0.0,0.0,0.0,0.0,0.0,0.0,0.0,0.0,0.0,0.0,0.0,0.0,0.0,0.0,0.0,3.0445,3.0686,3.0858,3.0978,3.0916,3.0729,0.0,0.0,0.0,0.0,0.0,0.0,0.0,0.0,0.0,0.0,0.0,0.0,0.0,0.0,0.0,0.0,0.0,0.0,0.0,0.0,0.0,0.0,0.0,0.0,0.0,0.0,0.0,0.0,0.0,0.0,0.0,0.0,0.0,0.0,0.0,0.0,0.0,0.0,0.0,0.0,0.0,0.0,0.0,0.0,0.0,0.0,0.0,0.0,0.0,0.0,0.0,0.0,0.0,0.0,0.0,0.0,0.0,0.0,0.0,0.0,0.0,0.0,0.0,0.0,0.0,0.0,0.0,0.0,0.0,0.0,0.0,0.0,0.0,0.0,0.0,0.0,0.0,0.0,0.0,0.0,0.0,0.0,0.0,0.0,0.0,0.0,0.0,0.0,0.0,0.0,0.0,0.0,0.0,0.0,0.0,0.0,0.0,0.0,0.0,0.0,0.0,0.0,0.0,0.0,0.0,0.0,0.0,0.0,3.0113,3.0992,3.1532,3.1729,3.1823,3.1476,0.0,0.0,0.0,0.0,0.0,0.0,0.0,0.0,0.0,0.0,0.0,0.0,0.0,0.0,0.0,0.0,0.0,0.0,0.0,0.0,0.0,0.0,0.0,0.0,0.0,0.0,0.0,0.0,0.0,0.0,0.0,0.0,0.0,0.0,0.0,0.0,0.0,0.0,0.0,0.0,0.0,0.0,0.0,0.0,0.0,0.0,0.0,0.0,0.0,0.0,0.0,0.0,0.0,0.0,0.0,0.0,0.0,0.0,0.0,0.0,0.0,0.0,0.0,0.0,0.0,0.0,0.0,0.0,0.0,0.0,0.0,0.0,0.0,0.0,0.0,0.0,0.0,0.0,0.0,0.0,0.0,0.0,0.0,0.0,0.0,0.0,0.0,0.0,0.0,0.0,0.0,0.0,0.0,0.0,0.0,0.0,0.0,0.0,0.0,0.0,0.0,0.0,0.0,0.0,0.0,0.0,0.0,0.0,0.0,3.089,3.1862,3.248,3.2607,3.2164,3.1762,0.0,0.0,0.0,0.0,0.0,0.0,0.0,0.0,0.0,0.0,0.0,0.0,0.0,0.0,0.0,0.0,0.0,0.0,0.0,0.0,0.0,0.0,0.0,0.0,0.0,0.0,0.0,0.0,0.0,0.0,0.0,0.0,0.0,0.0,0.0,0.0,0.0,0.0,0.0,0.0,0.0,0.0,0.0,0.0,0.0,0.0,0.0,0.0,0.0,0.0,0.0,0.0,0.0,0.0,0.0,0.0,0.0,0.0,0.0,0.0,0.0,0.0,0.0,0.0,0.0,0.0,0.0,0.0,0.0,0.0,0.0,0.0,0.0,0.0,0.0,0.0,0.0,0.0,0.0,0.0,0.0,0.0,0.0,0.0,0.0,0.0,0.0,0.0,0.0,0.0,0.0,0.0,0.0,0.0,0.0,0.0,0.0,0.0,0.0,0.0,0.0,0.0,0.0,0.0,0.0,0.0,0.0,0.0,0.0,3.2569,0.0,3.4186,3.4311,3.3566,3.2908,0.0,0.0,0.0,0.0,0.0,0.0,0.0,0.0,0.0,0.0,0.0,0.0,0.0,0.0,0.0,0.0,0.0,0.0,0.0,0.0,0.0,0.0,0.0,0.0,0.0,0.0,0.0,0.0,0.0,0.0,0.0,0.0,0.0,0.0,0.0,0.0,0.0,0.0,0.0,0.0,0.0,0.0,0.0,0.0,0.0,0.0,0.0,0.0,0.0,0.0,0.0,0.0,0.0,0.0,0.0,0.0,0.0,0.0,0.0,0.0,0.0,0.0,0.0,0.0,0.0,0.0,0.0,0.0,0.0,0.0,0.0,0.0,0.0,0.0,0.0,0.0,0.0,0.0,0.0,0.0,0.0,0.0,0.0,0.0,0.0,0.0,0.0,0.0,0.0,0.0,0.0,0.0,0.0,0.0,0.0,0.0,0.0,0.0,0.0,0.0,0.0,0.0,0.0,0.0,0.0,0.0,0.0,0.0,3.261,3.523,3.6305,3.6832,3.6883,3.6157,3.4991,0.0,0.0,0.0,0.0,0.0,0.0,0.0,0.0,0.0,0.0,0.0,0.0,0.0,0.0,0.0,0.0,0.0,0.0,0.0,0.0,0.0,0.0,0.0,0.0,0.0,0.0,0.0,0.0,0.0,0.0,0.0,0.0,0.0,0.0,0.0,0.0,0.0,0.0,0.0,0.0,0.0,0.0,0.0,0.0,0.0,0.0,0.0,0.0,0.0,0.0,0.0,0.0,0.0,0.0,0.0,0.0,0.0,0.0,0.0,0.0,0.0,0.0,0.0,0.0,0.0,0.0,0.0,0.0,0.0,0.0,0.0,0.0,0.0,0.0,0.0,0.0,0.0,0.0,0.0,0.0,0.0,0.0,0.0,0.0,0.0,0.0,0.0,0.0,0.0,0.0,0.0,0.0,0.0,0.0,0.0,0.0,0.0,0.0,0.0,0.0,0.0,0.0,0.0,0.0,0.0,0.0,0.0,0.0,0.0,3.8022,3.8968,3.9224,3.8694,3.7992,3.6726,0.0,0.0,0.0,0.0,0.0,0.0,0.0,0.0,0.0,0.0,0.0,0.0,0.0,0.0,0.0,0.0,0.0,0.0,0.0,0.0,0.0,0.0,0.0,0.0,0.0,0.0,0.0,0.0,0.0,0.0,0.0,0.0,0.0,0.0,0.0,0.0,0.0,0.0,0.0,0.0,0.0,0.0,0.0,0.0,0.0,0.0,0.0,0.0,0.0,0.0,0.0,0.0,0.0,0.0,0.0,0.0,0.0,0.0,0.0,0.0,0.0,0.0,0.0,0.0,0.0,0.0,0.0,0.0,0.0,0.0,0.0,0.0,0.0,0.0,0.0,0.0,0.0,0.0,0.0,0.0,0.0,0.0,0.0,0.0,0.0,0.0,0.0,0.0,0.0,0.0,0.0,0.0,0.0,0.0,0.0,0.0,0.0,0.0,0.0,0.0,0.0,0.0,0.0,0.0,0.0,0.0,0.0,0.0,0.0,4.3104,4.3117,4.2931,4.2477,4.1412,3.9685,3.7286,0.0,0.0,0.0,0.0,0.0,0.0,0.0,0.0,0.0,0.0,0.0,0.0,0.0,0.0,0.0,0.0,0.0,0.0,0.0,0.0,0.0,0.0,0.0,0.0,0.0,0.0,0.0,0.0,0.0,0.0,0.0,0.0,0.0,0.0,0.0,0.0,0.0,0.0,0.0,0.0,0.0,0.0,0.0,0.0,0.0,0.0,0.0,0.0,0.0,0.0,0.0,0.0,0.0,0.0,0.0,0.0,0.0,0.0,0.0,0.0,0.0,0.0,0.0,0.0,0.0,0.0,0.0,0.0,0.0,0.0,0.0,0.0,0.0,0.0,0.0,0.0,0.0,0.0,0.0,0.0,0.0,0.0,0.0,0.0,0.0,0.0,0.0,0.0,0.0,0.0,0.0,0.0,0.0,0.0,0.0,0.0,0.0,0.0,0.0,0.0,0.0,0.0,0.0,0.0,0.0,0.0,0.0,0.0,5.0028,4.8688,4.7826,4.7563,4.593,4.3461,0.0,0.0,0.0,0.0,0.0,0.0,0.0,0.0,0.0,0.0,0.0,0.0,0.0,0.0,0.0,0.0,0.0,0.0,0.0,0.0,0.0,0.0,0.0,0.0,0.0,0.0,0.0,0.0,0.0,0.0,0.0,0.0,0.0,0.0,0.0,0.0,0.0,0.0,0.0,0.0,0.0,0.0,0.0,0.0,0.0,0.0,0.0,0.0,0.0,0.0,0.0,0.0,0.0,0.0,0.0,0.0,0.0,0.0,0.0,0.0,0.0,0.0,0.0,0.0,0.0,0.0,0.0,0.0,0.0,0.0,0.0,0.0,0.0,0.0,0.0,0.0,0.0,0.0,0.0,0.0,0.0,0.0,0.0,0.0,0.0,0.0,0.0,0.0,0.0,0.0,0.0,0.0,0.0,0.0,0.0,0.0,0.0,0.0,0.0,0.0,0.0,0.0,0.0,0.0,0.0,0.0,0.0,0.0,0.0,5.4414,5.5531,5.4173,5.0416,4.8616,4.6107,0.0,0.0,0.0,0.0,0.0,0.0,0.0,0.0,0.0,0.0,0.0,0.0,0.0,0.0,0.0,0.0,0.0,0.0,0.0,0.0,0.0,0.0,0.0,0.0,0.0,0.0,0.0,0.0,0.0,0.0,0.0,0.0,0.0,0.0,0.0,0.0,0.0,0.0,0.0,0.0,0.0,0.0,0.0,0.0,0.0,0.0,0.0,0.0,0.0,0.0,0.0,0.0,0.0,0.0,0.0,0.0,0.0,0.0,0.0,0.0,0.0,0.0,0.0,0.0,0.0,0.0,0.0,0.0,0.0,0.0,0.0,0.0,0.0,0.0,0.0,0.0,0.0,0.0,0.0,0.0,0.0,0.0,0.0,0.0,0.0,0.0,0.0,0.0,0.0,0.0,0.0,0.0,0.0,0.0,0.0,0.0,0.0,0.0,0.0,0.0,0.0,0.0,0.0,0.0,0.0,0.0,0.0,0.0,5.3533,5.7881,6.0153,5.9846,5.6842,5.3325,4.9679,0.0,0.0,0.0,0.0,0.0,0.0,0.0,0.0,0.0,0.0,0.0,0.0,0.0,0.0,0.0,0.0,0.0,0.0,0.0,0.0,0.0,0.0,0.0,0.0,0.0,0.0,0.0,0.0,0.0,0.0,0.0,0.0,0.0,0.0,0.0,0.0,0.0,0.0,0.0,0.0,0.0,0.0,0.0,0.0,0.0,0.0,0.0,0.0,0.0,0.0,0.0,0.0,0.0,0.0,0.0,0.0,0.0,0.0,0.0,0.0,0.0,0.0,0.0,0.0,0.0,0.0,0.0,0.0,0.0,0.0,0.0,0.0,0.0,0.0,0.0,0.0,0.0,0.0,0.0,0.0,0.0,0.0,0.0,0.0,0.0,0.0,0.0,0.0,0.0,0.0,0.0,0.0,0.0,0.0,0.0,0.0,0.0,0.0,0.0,0.0,0.0,0.0,0.0,0.0,0.0,0.0,0.0,0.0,5.6041,6.0458,6.3194,6.4559,6.4414,5.8792,5.366,0.0,0.0,0.0,0.0,0.0,0.0,0.0,0.0,0.0,0.0,0.0,0.0,0.0,0.0,0.0,0.0,0.0,0.0,0.0,0.0,0.0,0.0,0.0,0.0,0.0,0.0,0.0,0.0,0.0,0.0,0.0,0.0,0.0,0.0,0.0,0.0,0.0,0.0,0.0,0.0,0.0,0.0,0.0,0.0,0.0,0.0,0.0,0.0,0.0,0.0,0.0,0.0,0.0,0.0,0.0,0.0,0.0,0.0,0.0,0.0,0.0,0.0,0.0,0.0,0.0,0.0,0.0,0.0,0.0,0.0,0.0,0.0,0.0,0.0,0.0,0.0,0.0,0.0,0.0,0.0,0.0,0.0,0.0,0.0,0.0,0.0,0.0,0.0,0.0,0.0,0.0,0.0,0.0,0.0,0.0,0.0,0.0,0.0,0.0,0.0,0.0,0.0,0.0,0.0,0.0,0.0,0.0,0.0,5.7854,6.225,6.4977,6.6344,6.6331,6.1095,5.6289,0.0,0.0,0.0,0.0,0.0,0.0,0.0,0.0,0.0,0.0,0.0,0.0,0.0,0.0,0.0,0.0,0.0,0.0,0.0,0.0,0.0,0.0,0.0,0.0,0.0,0.0,0.0,0.0,0.0,0.0,0.0,0.0,0.0,0.0,0.0,0.0,0.0,0.0,0.0,0.0,0.0,0.0,0.0,0.0,0.0,0.0,0.0,0.0,3.3414,0.0,0.0,0.0,0.0,0.0,0.0,0.0,0.0,0.0,0.0,0.0,0.0,0.0,0.0,0.0,0.0,0.0,0.0,0.0,0.0,0.0,0.0,0.0,0.0,0.0,0.0,0.0,0.0,0.0,0.0,0.0,0.0,0.0,0.0,0.0,0.0,0.0,0.0,0.0,0.0,0.0,0.0,0.0,0.0,0.0,0.0,0.0,0.0,0.0,0.0,0.0,0.0,0.0,0.0,0.0,0.0,0.0,0.0,0.0,5.887,6.2844,6.5959,6.7523,6.7372,6.3232,5.8928,0.0,0.0,0.0,0.0,0.0,0.0,0.0,0.0,0.0,0.0,0.0,0.0,0.0,0.0,0.0,0.0,0.0,0.0,0.0,0.0,0.0,0.0,0.0,0.0,0.0,0.0,0.0,0.0,0.0,0.0,0.0,0.0,0.0,0.0,0.0,0.0,0.0,0.0,0.0,0.0,0.0,0.0,0.0,0.0,0.0,0.0,0.0,0.0,0.0,0.0,0.0,0.0,0.0,0.0,0.0,0.0,0.0,0.0,0.0,0.0,0.0,0.0,0.0,0.0,0.0,0.0,0.0,0.0,0.0,0.0,0.0,0.0,0.0,0.0,0.0,0.0,0.0,0.0,0.0,0.0,0.0,0.0,0.0,0.0,0.0,0.0,0.0,0.0,0.0,0.0,0.0,0.0,0.0,0.0,0.0,0.0,0.0,0.0,0.0,0.0,0.0,0.0,0.0,0.0,0.0,0.0,0.0,5.4811,5.9629,6.3149,6.6478,6.8148,6.7969,6.4765,6.0974,5.6618,0.0,0.0,0.0,0.0,0.0,0.0,0.0,0.0,0.0,0.0,0.0,0.0,0.0,0.0,0.0,0.0,0.0,0.0,0.0,0.0,0.0,0.0,0.0,0.0,0.0,0.0,0.0,0.0,0.0,0.0,0.0,0.0,0.0,0.0,0.0,0.0,0.0,0.0,3.084,3.3262,0.0,0.0,0.0,0.0,0.0,0.0,0.0,0.0,3.7864,0.0,0.0,0.0,0.0,0.0,0.0,0.0,0.0,0.0,0.0,0.0,0.0,0.0,0.0,0.0,0.0,0.0,0.0,0.0,0.0,0.0,0.0,0.0,0.0,0.0,0.0,0.0,0.0,0.0,0.0,0.0,0.0,0.0,0.0,0.0,0.0,0.0,0.0,0.0,0.0,0.0,0.0,0.0,0.0,0.0,0.0,0.0,0.0,0.0,0.0,0.0,0.0,0.0,0.0,0.0,0.0,5.0634,5.6043,6.0503,6.4021,6.6774,6.7832,6.707,6.4453,6.0976,5.6678,0.0,0.0,0.0,0.0,0.0,0.0,0.0,0.0,0.0,0.0,0.0,0.0,0.0,0.0,0.0,0.0,0.0,0.0,0.0,0.0,0.0,0.0,0.0,0.0,0.0,0.0,0.0,0.0,0.0,0.0,0.0,0.0,0.0,0.0,0.0,0.0,0.0,0.0,0.0,3.6227,3.7693,0.0,0.0,0.0,0.0,0.0,0.0,0.0,0.0,4.0379,0.0,0.0,0.0,0.0,0.0,0.0,0.0,0.0,0.0,0.0,0.0,0.0,0.0,0.0,0.0,0.0,0.0,0.0,0.0,0.0,0.0,0.0,0.0,0.0,0.0,0.0,0.0,0.0,0.0,0.0,0.0,0.0,0.0,0.0,0.0,0.0,0.0,0.0,0.0,0.0,0.0,0.0,0.0,0.0,0.0,0.0,0.0,0.0,0.0,0.0,0.0,0.0,0.0,0.0,0.0,5.0472,5.5706,5.9857,6.2887,6.5502,6.6676,6.6172,6.3672,6.0508,0.0,0.0,0.0,0.0,0.0,0.0,0.0,0.0,0.0,0.0,0.0,0.0,0.0,0.0,0.0,0.0,0.0,0.0,0.0,0.0,0.0,0.0,0.0,0.0,0.0,0.0,0.0,0.0,0.0,0.0,0.0,0.0,0.0,0.0,0.0,0.0,0.0,0.0,0.0,0.0,3.8642,4.0342,4.1244,0.0,0.0,0.0,0.0,0.0,0.0,4.3968,4.3426,0.0,0.0,0.0,0.0,0.0,0.0,0.0,0.0,0.0,0.0,0.0,0.0,0.0,0.0,0.0,0.0,0.0,0.0,0.0,0.0,0.0,0.0,0.0,0.0,0.0,0.0,0.0,0.0,0.0,0.0,0.0,0.0,0.0,0.0,0.0,0.0,0.0,0.0,0.0,0.0,0.0,0.0,0.0,0.0,0.0,0.0,0.0,0.0,0.0,0.0,0.0,0.0,0.0,0.0,0.0,5.0413,5.5298,5.9053,6.1665,6.4061,6.5156,6.4805,6.2461,5.9492,0.0,0.0,0.0,0.0,0.0,0.0,0.0,0.0,0.0,0.0,0.0,0.0,0.0,0.0,0.0,0.0,0.0,0.0,0.0,0.0,0.0,0.0,0.0,0.0,0.0,0.0,0.0,0.0,0.0,0.0,0.0,0.0,0.0,0.0,0.0,0.0,0.0,0.0,0.0,0.0,0.0,4.3003,4.3844,4.452,0.0,0.0,0.0,0.0,4.7025,4.7086,0.0,0.0,0.0,0.0,0.0,0.0,0.0,0.0,0.0,0.0,0.0,0.0,0.0,0.0,0.0,0.0,0.0,0.0,0.0,0.0,0.0,0.0,0.0,0.0,0.0,0.0,0.0,0.0,0.0,0.0,0.0,0.0,0.0,0.0,0.0,0.0,0.0,0.0,0.0,0.0,0.0,0.0,0.0,0.0,0.0,0.0,0.0,0.0,0.0,0.0,0.0,0.0,0.0,0.0,0.0,0.0,5.2099,5.5896,5.9092,6.1607,6.3512,6.3711,6.2187,6.043,5.75,0.0,0.0,0.0,0.0,0.0,0.0,0.0,0.0,0.0,0.0,0.0,0.0,0.0,0.0,0.0,0.0,0.0,0.0,0.0,0.0,0.0,0.0,0.0,0.0,0.0,0.0,0.0,0.0,0.0,0.0,0.0,0.0,0.0,0.0,0.0,0.0,0.0,0.0,0.0,0.0,0.0,4.5571,4.6538,4.6718,4.7366,0.0,0.0,4.874,5.0451,5.0127,0.0,0.0,0.0,0.0,0.0,0.0,0.0,0.0,0.0,0.0,0.0,0.0,0.0,0.0,0.0,0.0,0.0,0.0,0.0,0.0,0.0,0.0,0.0,0.0,0.0,0.0,0.0,0.0,0.0,0.0,0.0,0.0,0.0,0.0,0.0,0.0,0.0,0.0,0.0,0.0,0.0,0.0,0.0,0.0,0.0,0.0,0.0,0.0,0.0,0.0,0.0,0.0,0.0,0.0,0.0,4.697,5.1732,5.5279,5.8332,6.0905,6.2652,6.2969,6.1719,6.0078,5.7148,0.0,0.0,0.0,0.0,0.0,0.0,0.0,0.0,0.0,0.0,0.0,0.0,0.0,0.0,0.0,0.0,0.0,0.0,0.0,0.0,0.0,0.0,0.0,0.0,0.0,0.0,0.0,0.0,0.0,0.0,0.0,0.0,0.0,0.0,0.0,0.0,0.0,0.0,0.0,0.0,0.0,0.0,4.8445,4.9393,0.0,0.0,0.0,5.1833,5.266,0.0,0.0,0.0,0.0,0.0,0.0,0.0,0.0,0.0,0.0,0.0,0.0,0.0,0.0,0.0,0.0,0.0,0.0,0.0,0.0,0.0,0.0,0.0,0.0,0.0,0.0,0.0,0.0,0.0,0.0,0.0,0.0,0.0,0.0,0.0,0.0,0.0,0.0,0.0,0.0,0.0,0.0,0.0,0.0,0.0,0.0,0.0,0.0,0.0,0.0,0.0,0.0,0.0,0.0,0.0,0.0,0.0,5.1258,5.4762,5.7693,6.0061,6.1794,6.2148,6.1094,5.9414,0.0,0.0,0.0,0.0,0.0,0.0,0.0,0.0,0.0,0.0,0.0,0.0,0.0,0.0,0.0,0.0,0.0,0.0,0.0,0.0,0.0,0.0,0.0,0.0,0.0,0.0,0.0,2.7148,0.0,0.0,0.0,0.0,0.0,0.0,0.0,0.0,0.0,0.0,0.0,0.0,0.0,0.0,4.929,5.079,5.2136,5.3146,0.0,0.0,5.4782,5.4889,5.5248,5.464,0.0,0.0,0.0,0.0,0.0,0.0,0.0,0.0,0.0,0.0,0.0,0.0,0.0,0.0,0.0,0.0,0.0,0.0,0.0,0.0,0.0,0.0,0.0,0.0,0.0,0.0,0.0,0.0,0.0,0.0,0.0,0.0,0.0,0.0,0.0,0.0,0.0,0.0,0.0,0.0,0.0,0.0,0.0,0.0,0.0,0.0,0.0,0.0,0.0,0.0,0.0,0.0,0.0,0.0,4.7657,5.1258,5.4801,5.7461,5.9258,6.0937,6.1015,5.9414,5.7695,5.5115,0.0,0.0,0.0,0.0,0.0,0.0,0.0,0.0,0.0,0.0,0.0,0.0,0.0,0.0,0.0,0.0,0.0,0.0,0.0,0.0,0.0,0.0,0.0,0.0,0.0,0.0,0.0,0.0,0.0,0.0,0.0,0.0,0.0,0.0,0.0,0.0,0.0,0.0,0.0,0.0,0.0,5.0908,5.4194,5.4735,5.5392,0.0,5.7332,5.7477,5.7516,5.69,5.5533,5.301,0.0,0.0,0.0,0.0,0.0,0.0,0.0,0.0,0.0,0.0,0.0,0.0,0.0,0.0,0.0,0.0,0.0,0.0,0.0,0.0,0.0,0.0,0.0,0.0,0.0,0.0,0.0,0.0,0.0,0.0,0.0,0.0,0.0,0.0,0.0,0.0,0.0,0.0,0.0,0.0,0.0,0.0,0.0,0.0,0.0,0.0,0.0,0.0,0.0,0.0,0.0,0.0,0.0,4.7782,5.1336,5.4801,5.7461,5.918,6.082,6.0898,5.9258,5.7539,5.4959,0.0,0.0,0.0,0.0,0.0,0.0,0.0,0.0,0.0,0.0,0.0,0.0,0.0,0.0,0.0,0.0,0.0,0.0,0.0,0.0,0.0,0.0,0.0,0.0,0.0,0.0,0.0,0.0,3.2011,3.2266,3.2311,0.0,0.0,0.0,0.0,0.0,0.0,0.0,0.0,0.0,0.0,5.3127,5.554,5.6787,0.0,0.0,5.8975,5.8983,5.7953,5.7986,5.7044,5.399,5.1791,0.0,0.0,0.0,0.0,0.0,0.0,0.0,0.0,0.0,0.0,0.0,0.0,0.0,0.0,0.0,0.0,0.0,0.0,0.0,0.0,0.0,0.0,0.0,0.0,0.0,0.0,0.0,0.0,0.0,0.0,0.0,0.0,0.0,0.0,0.0,0.0,0.0,0.0,0.0,0.0,0.0,0.0,0.0,0.0,0.0,0.0,0.0,0.0,0.0,0.0,0.0,0.0,4.8429,5.1726,5.5192,5.7695,5.918,6.0859,6.0898,5.9219,5.7539,5.4959,0.0,0.0,0.0,0.0,0.0,0.0,0.0,0.0,0.0,0.0,0.0,0.0,0.0,0.0,0.0,0.0,0.0,0.0,0.0,0.0,0.0,0.0,0.0,0.0,0.0,0.0,0.0,0.0,3.3265,3.3427,3.364,0.0,0.0,0.0,0.0,0.0,0.0,0.0,0.0,0.0,0.0,5.4367,5.6853,5.825,5.924,5.9732,6.0145,5.9879,5.846,5.8519,5.7642,5.4509,0.0,0.0,0.0,0.0,0.0,0.0,0.0,0.0,0.0,0.0,0.0,0.0,0.0,0.0,0.0,0.0,0.0,0.0,0.0,0.0,0.0,0.0,0.0,0.0,0.0,0.0,0.0,4.0731,0.0,0.0,3.911,0.0,0.0,0.0,0.0,0.0,0.0,0.0,0.0,0.0,0.0,0.0,0.0,0.0,0.0,0.0,0.0,0.0,0.0,0.0,0.0,0.0,0.0,4.9841,5.2585,5.6051,5.8281,5.9219,6.0859,6.0898,5.9219,5.75,5.4959,5.1428,0.0,0.0,0.0,0.0,0.0,0.0,0.0,0.0,0.0,0.0,0.0,0.0,0.0,0.0,0.0,0.0,0.0,0.0,0.0,0.0,0.0,0.0,0.0,0.0,0.0,0.0,3.3427,3.3323,3.3751,0.0,0.0,0.0,0.0,0.0,0.0,0.0,0.0,0.0,0.0,5.149,5.418,5.8375,5.9053,5.9684,6.1283,6.0879,6.0115,5.9256,5.8456,5.7061,0.0,0.0,0.0,0.0,0.0,0.0,0.0,0.0,0.0,0.0,0.0,0.0,0.0,0.0,0.0,0.0,0.0,0.0,0.0,0.0,0.0,0.0,0.0,0.0,0.0,0.0,0.0,4.4397,4.4267,0.0,0.0,0.0,0.0,0.0,0.0,0.0,0.0,0.0,0.0,0.0,4.4206,4.4178,0.0,0.0,0.0,0.0,0.0,0.0,0.0,0.0,0.0,0.0,0.0,0.0,5.0264,5.3479,5.6403,5.8594,5.9961,6.1094,6.0898,5.9219,5.7539,5.4179,4.9061,0.0,0.0,0.0,0.0,0.0,0.0,0.0,0.0,0.0,0.0,0.0,0.0,0.0,0.0,0.0,0.0,0.0,0.0,0.0,0.0,0.0,0.0,0.0,0.0,0.0,3.6111,0.0,0.0,0.0,0.0,0.0,0.0,0.0,0.0,0.0,0.0,0.0,4.7384,5.1133,5.3182,5.5255,5.7889,5.8727,5.9324,0.0,0.0,0.0,0.0,0.0,0.0,0.0,0.0,0.0,0.0,0.0,0.0,0.0,0.0,4.3722,4.0422,3.9719,3.9834,4.0611,0.0,0.0,0.0,0.0,0.0,0.0,0.0,0.0,0.0,0.0,0.0,0.0,0.0,0.0,4.7955,0.0,4.6699,0.0,0.0,0.0,0.0,0.0,0.0,0.0,0.0,4.7696,4.7866,4.7883,4.7852,4.7843,0.0,4.6951,4.5161,0.0,0.0,0.0,0.0,0.0,0.0,0.0,0.0,5.1219,5.4416,5.7028,5.9023,6.0351,6.125,6.1055,5.9648,5.707,5.3281,4.8242,4.691,4.4987,0.0,0.0,0.0,0.0,0.0,0.0,0.0,0.0,0.0,0.0,0.0,0.0,0.0,0.0,0.0,0.0,0.0,0.0,0.0,0.0,0.0,0.0,0.0,3.7869,0.0,0.0,0.0,0.0,0.0,0.0,0.0,0.0,0.0,4.3722,4.6135,4.8932,5.2095,5.4087,5.5847,5.7601,0.0,0.0,0.0,0.0,0.0,0.0,0.0,5.6952,5.5536,5.4822,5.4142,5.3279,5.2528,5.1819,5.1166,0.0,0.0,4.4205,4.3348,4.3522,4.4304,4.5125,4.5931,4.6724,4.7702,4.8585,0.0,0.0,0.0,0.0,0.0,0.0,0.0,0.0,5.1148,5.1469,0.0,4.9685,0.0,0.0,0.0,0.0,0.0,4.8415,0.0,0.0,5.1012,5.1472,5.1542,5.1453,5.143,5.1466,5.0524,4.9613,4.8677,4.5346,0.0,0.0,0.0,0.0,0.0,0.0,5.2741,5.5361,5.7887,5.9609,6.043,6.125,6.125,6.0234,5.625,5.25,4.9141,4.7383,4.5622,4.3883,4.3002,0.0,0.0,0.0,0.0,0.0,0.0,0.0,0.0,0.0,0.0,0.0,0.0,0.0,0.0,0.0,0.0,0.0,0.0,0.0,0.0,3.8653,0.0,0.0,0.0,0.0,0.0,0.0,0.0,0.0,0.0,0.0,4.5037,4.7151,4.9673,5.2372,0.0,0.0,0.0,0.0,5.8183,5.9023,5.8437,5.793,5.7969,5.7265,5.6445,5.5625,0.0,0.0,5.424,5.4032,5.3955,5.3793,5.3094,5.1344,4.7973,4.7139,4.7203,4.7931,4.8718,4.9548,5.0447,5.1277,5.2028,5.7304,0.0,0.0,0.0,0.0,5.3807,5.4624,5.5376,5.5658,5.5459,5.4768,5.3118,0.0,0.0,0.0,0.0,0.0,0.0,5.2255,5.3614,5.3935,5.4412,5.5038,5.4374,5.413,5.4138,5.2663,5.1812,5.1496,4.9903,4.7844,4.5463,0.0,0.0,0.0,0.0,5.3927,5.7028,5.8515,5.9883,6.1289,6.1562,6.0703,5.8672,5.6211,5.3594,5.0781,4.9648,4.7969,4.5701,4.5333,0.0,0.0,0.0,0.0,0.0,0.0,0.0,0.0,0.0,0.0,0.0,0.0,0.0,0.0,0.0,0.0,0.0,0.0,0.0,4.2129,4.224,4.2236,0.0,0.0,0.0,0.0,0.0,0.0,0.0,0.0,0.0,4.907,5.0053,5.152,0.0,0.0,5.5689,5.6816,5.6965,5.7285,5.8124,5.8047,0.0,5.875,5.8633,5.8359,5.8125,5.8042,5.791,5.7656,5.759,5.7541,5.738,5.6675,5.5695,5.4646,5.2276,5.0791,5.093,5.1619,5.2459,5.3304,5.4227,5.5087,6.3029,5.9065,5.6978,5.6417,5.695,5.7474,5.8172,5.893,5.8972,5.8506,5.767,5.6339,5.4835,5.3264,5.2361,0.0,0.0,0.0,5.5121,5.6098,5.6471,5.6943,5.7444,5.6981,5.6757,5.6749,5.5425,5.4605,5.4249,5.338,5.1713,4.9354,0.0,0.0,5.1144,5.2875,5.5112,5.7812,5.9062,6.0351,6.168,6.1719,6.0664,5.8476,5.707,5.4961,5.2031,5.1094,4.9648,4.7461,4.7301,4.6231,0.0,0.0,0.0,0.0,0.0,0.0,0.0,0.0,0.0,0.0,0.0,3.8594,4.0563,0.0,0.0,0.0,4.2602,4.3138,4.3669,4.37,0.0,0.0,0.0,0.0,0.0,0.0,0.0,4.6424,4.7509,4.9083,5.1507,5.2458,5.3455,5.5035,5.5555,5.5967,5.6504,0.0,5.7298,5.7812,5.8203,5.8594,5.9101,5.9219,5.9219,5.9219,5.9178,5.9131,5.9109,5.9129,5.9066,5.8905,5.849,5.814,5.8098,5.6253,5.4653,5.4359,5.4939,5.5708,5.6238,5.6809,5.7379,6.7782,6.5958,6.2161,6.046,6.0324,6.0363,6.0866,6.1581,6.1591,6.1158,6.0321,5.9459,5.8143,5.6542,5.567,0.0,5.5472,5.7114,5.791,5.8001,5.8815,5.928,5.9404,5.9318,5.9315,5.9297,5.8437,5.7578,5.6797,5.6007,5.5215,5.4395,5.2749,5.2238,5.2944,5.4567,5.625,5.7969,5.957,6.082,6.168,6.1719,6.0898,5.9258,5.8359,5.6289,5.2969,5.1953,5.0742,4.9101,4.8945,4.8161,4.6537,0.0,0.0,0.0,0.0,0.0,0.0,0.0,0.0,0.0,0.0,0.0,0.0,0.0,0.0,4.4094,4.4036,0.0,4.3906,4.3904,0.0,0.0,0.0,4.4319,4.5128,4.593,4.6775,4.771,0.0,0.0,5.2699,5.4261,5.5338,5.5494,5.6146,5.6614,5.668,5.7454,5.8008,5.8164,5.8789,5.9336,5.9531,5.9531,5.957,5.957,5.9414,5.9492,5.9429,5.9417,5.9295,5.9313,5.9215,5.9233,5.9209,5.9124,5.8904,5.7936,5.8219,5.8732,5.8771,5.8849,5.8976,7.0695,6.9578,6.8013,6.6275,6.4591,6.5247,6.5633,6.5826,6.581,6.5002,6.3613,6.28,6.1169,5.9002,5.8157,5.8101,5.8713,5.9762,6.061,6.1247,6.1594,6.2108,6.2737,6.1573,6.1035,6.0995,5.9607,5.8789,5.8594,5.8398,5.8163,5.7928,5.6874,5.5779,5.4763,5.577,5.7142,5.8867,5.9883,6.082,6.168,6.1719,6.0898,5.9258,5.8359,5.6562,5.3789,5.2851,5.1639,5.0022,4.988,4.9374,4.8231,4.6885,0.0,0.0,0.0,0.0,0.0,0.0,0.0,0.0,0.0,4.2921,4.5098,0.0,4.6245,0.0,4.7063,4.6406,4.5742,4.5664,0.0,0.0,4.669,4.6999,4.7776,4.8069,4.8755,5.0282,5.1024,5.2233,5.4372,5.504,5.5801,5.7074,5.746,5.7577,5.7621,5.8352,5.9101,5.9648,5.9961,6.0351,6.0937,6.1094,6.1055,6.1094,6.1094,6.1094,6.1055,6.1086,6.1073,6.1056,6.1086,6.1035,6.0939,6.0971,6.0906,6.0582,5.9771,5.9178,5.9793,5.9988,6.0144,7.2591,7.1437,7.1014,6.9797,6.8154,6.7884,6.7768,6.7768,6.7807,6.7061,6.5781,6.4243,6.2606,6.0906,6.0403,6.0652,6.1458,6.195,6.2622,6.345,6.3187,6.3394,6.3893,6.3049,6.2711,6.2758,6.1511,6.0702,6.0312,5.9922,5.957,5.918,5.832,5.7422,5.6523,5.734,5.8239,5.918,6.039,6.1211,6.168,6.1328,6.0508,5.9258,5.8359,5.668,5.4101,5.3516,5.2499,5.0849,5.0741,5.0351,4.9451,4.8499,4.7381,0.0,0.0,0.0,0.0,0.0,0.0,0.0,0.0,0.0,0.0,0.0,4.7874,4.8819,4.8475,4.7969,4.75,4.7461,4.7656,4.8118,4.8189,4.8655,4.9827,4.9977,5.0633,5.2351,5.2901,5.3834,5.5616,5.622,5.6933,5.8289,5.8792,5.8879,5.8621,5.9217,5.9922,6.0351,6.0742,6.1133,6.164,6.1719,6.1719,6.1719,6.1719,6.1719,6.1719,6.1718,6.1713,6.1707,6.1701,6.1694,6.1647,6.1654,6.1641,6.1537,6.0879,6.0438,6.0769,6.0917,6.1112,7.363,7.2206,7.2206,7.1668,7.0783,6.936,6.8706,6.8706,6.8679,6.827,6.7358,6.5003,6.3599,6.302,6.2882,6.329,6.4106,6.4122,6.4494,6.5051,6.4492,6.4152,6.4131,6.4176,6.4246,6.4301,6.3451,6.2613,6.1836,6.0976,6.0195,5.9492,5.8555,5.8047,5.8086,5.8711,5.914,5.9375,6.0781,6.1523,6.1523,6.0781,5.9961,5.9062,5.8281,5.668,5.4141,5.3984,5.3203,5.1523,5.1406,5.1094,5.0391,5.0225,4.9075,0.0,4.6587,0.0,0.0,0.0,0.0,0.0,0.0,0.0,0.0,4.8694,4.9177,4.9062,4.9062,4.9023,4.8906,4.8906,4.8984,4.9219,4.9217,4.9877,5.1519,5.1753,5.2339,5.3978,5.4915,5.5773,5.666,5.7516,5.8371,5.9234,5.9859,6.0066,5.9726,6.0117,6.0586,6.0586,6.1211,6.164,6.168,6.1719,6.1719,6.1719,6.1719,6.1719,6.1719,6.1719,6.1719,6.1719,6.1716,6.1711,6.1711,6.1701,6.169,6.1686,6.1603,6.1554,6.1582,6.1576,6.1726,7.3101,7.2206,7.2206,7.1706,7.086,7.0552,7.0437,7.0437,7.0437,6.9975,6.9117,6.7269,6.6731,6.7154,6.6474,6.6615,6.746,6.7487,6.7192,6.6731,6.6684,6.6417,6.5807,6.5324,6.5085,6.5081,6.3685,6.2926,6.2734,6.1875,6.1367,6.1172,5.9687,5.8945,5.8906,0.0,0.0,0.0,6.0469,6.0625,6.0625,6.0508,5.9687,5.8203,5.7969,0.0,5.418,5.3984,5.3203,5.1523,5.1406,0.0,0.0,0.0,0.0,0.0,0.0,0.0,0.0,0.0,0.0,0.0,4.8962,4.9435,4.9614,5.0424,5.0664,5.0039,4.9961,4.9648,4.8945,4.8906,4.9453,5.0742,5.0937,5.1601,5.3242,5.3516,5.3906,5.4922,5.582,5.668,5.7578,5.8397,5.9258,6.0039,6.0312,6.0624,6.1133,6.1289,6.1445,6.1484,6.1601,6.1719,6.1719,6.1719,6.1719,6.1719,6.1719,6.1719,6.1719,6.1719,6.1719,6.1719,6.1718,6.1719,6.1719,6.1717,6.1715,6.1707,6.1694,6.1686,6.1697,6.1701,6.1697,7.2986,0.0,7.2206,7.1706,0.0,7.0898,7.0898,7.0898,7.0898,7.0437,6.9629,6.8783,6.8398,6.8398,6.7948,6.8244,6.9027,6.859,6.8205,6.7782,6.7502,6.6941,6.6239,6.5997,6.5942,6.5985,6.4379,6.3623,6.3594,6.2344,6.1719,6.168,6.043,5.9609,5.918,5.789,5.8125,5.9765,5.9805,5.9805,5.9805,5.9375,5.8789,5.793,5.7461,0.0,0.0,0.0,0.0,0.0,0.0,0.0,0.0,5.1016,0.0,5.0148,4.9706,4.9263,4.8903,4.9211,4.945,4.9469,5.0239,5.0742,5.075,5.1128,5.125,5.0859,5.1172,5.125,5.0859,5.1172,5.1758,5.2578,5.2695,5.3203,5.4414,5.5039,5.5625,5.6484,5.7344,5.8203,5.9023,5.9492,6.0117,6.0898,6.1055,6.1172,6.1601,6.1719,6.1719,6.1719,6.1719,6.1719,6.1719,6.1719,6.1719,6.1719,6.1719,6.1719,6.1719,6.1719,6.1719,6.1719,6.1719,6.1719,6.1719,6.1719,6.1718,6.1717,6.1713,6.1704,6.1701,6.1709,6.1715,7.2601,7.1975,7.1975,7.1552,7.0898,7.0898,7.0898,7.0898,0.0,0.0,0.0,6.9898,6.9513,6.8859,6.8821,6.9244,6.9848,6.9167,6.8679,6.8383,6.7795,6.7058,6.6239,6.6411,6.6546,6.6588,6.5139,6.4392,6.4256,6.2695,6.1836,6.164,6.082,6.0,5.914,5.7773,5.7773,5.914,5.9219,5.9297,5.9375,5.8555,5.8047,5.789,5.707,5.6172,5.5312,5.5312,5.457,5.3008,5.293,5.2617,5.1914,5.1875,5.1562,5.0937,5.081,5.052,4.9859,5.0442,5.0796,5.081,5.1464,5.1769,5.1659,5.1637,5.168,5.1836,5.25,5.293,5.293,5.3555,5.4141,5.4414,5.4453,5.4844,5.5859,5.6601,5.7344,5.8086,5.8828,5.9648,6.0234,6.0508,6.0859,6.1523,6.164,6.1719,6.1719,6.1719,6.1719,6.1719,6.1719,6.1719,6.1719,6.1719,6.1719,6.1719,6.1719,6.1719,6.1719,6.1719,6.1719,6.1719,6.1719,6.1719,6.1719,6.1719,6.1719,6.1719,6.1719,6.1717,6.1704,6.1713,6.1719,7.1206,7.1091,7.1091,7.1014,7.0898,7.0898,7.0898,7.0898,7.0898,7.0821,7.0744,7.0744,7.0667,7.0552,7.0552,7.0629,7.0706,7.0629,6.9794,6.8421,6.842,6.7655,6.6221,6.6407,6.6543,6.6546,6.5744,6.4965,6.4232,6.3279,6.2422,6.168,6.082,6.0,5.9258,5.8945,5.8945,5.9219,5.9219,5.9531,6.0195,5.9453,5.8672,5.793,5.707,5.6211,5.5351,5.5312,5.4844,5.3867,5.3828,5.375,5.3633,5.3594,5.3594,5.3476,5.3433,5.3388,5.3271,5.3377,5.3448,5.3451,5.3565,5.3302,5.2577,5.25,5.2812,5.3516,5.3711,5.3828,5.3828,5.3984,5.4726,5.6015,5.6211,5.6875,5.832,5.8672,5.8828,5.9023,5.9726,6.0234,6.0469,6.1055,6.1484,6.168,6.1719,6.1719,6.1719,6.1719,6.1719,6.1719,6.1719,6.1719,6.1719,6.1719,6.1719,6.1719,6.1719,6.1719,6.1719,6.1719,6.1719,6.1719,6.1719,6.1719,6.1719,6.1719,6.1719,6.1719,6.1719,6.1719,6.1719,6.1719,6.1719,7.0898,7.0898,7.0898,7.0898,7.0898,7.0898,7.0898,7.0898,7.0898,7.0898,7.0898,7.0898,7.0898,7.0898,7.0898,7.0898,7.0898,7.0409,6.9575,6.8421,6.8049,6.7282,6.6225,6.6329,6.6514,6.654,6.5814,6.5289,6.4843,6.3623,6.2811,6.2344,6.1055,6.0234,5.9844,5.9414,5.9414,5.9805,5.9414,5.9375,5.9726,5.9414,5.9023,5.8594,5.8203,5.7617,5.6719,5.6719,5.6094,5.4765,5.4687,5.4492,5.4023,5.3984,5.3984,5.3984,5.3984,5.3982,5.3983,5.398,5.3978,5.3978,5.3978,5.4059,5.4101,5.3672,5.3594,5.3984,5.4414,5.4922,5.5351,5.582,5.664,5.789,5.8008,5.832,5.9062,5.9609,5.9844,5.9922,6.0586,6.1094,6.1094,6.1445,6.168,6.1719,6.1719,6.1719,6.1719,6.1719,6.1719,6.1719,6.1719,6.1719,6.1719,6.1719,6.1719,6.1719,6.1719,6.1719,6.1719,6.1719,6.1719,6.1719,6.1719,6.1719,6.1719,6.1719,6.1719,6.1719,6.1719,6.1719,6.1719,6.1719,6.1719,7.0898,7.0898,7.0898,7.0898,7.0898,7.0898,7.0898,7.0898,7.0898,7.0898,7.0898,7.0898,7.0898,7.0898,7.0898,7.0898,7.0821,7.0256,6.941,6.841,6.7856,6.7067,6.6185,6.6299,6.647,6.6504,6.5972,6.5644,6.534,6.42,6.3473,6.3164,6.1953,6.1289,6.1289,6.0664,6.0664,6.1211,6.0664,6.0156,5.9765,5.957,5.9492,5.9453,5.9297,5.8906,5.8242,5.8203,5.7578,5.6289,5.6172,5.5859,5.5234,5.5156,5.5078,5.4922,5.4883,5.4805,5.4609,5.4609,5.4687,5.4844,5.4883,5.5273,5.5976,5.5586,5.5078,5.5,5.5547,5.625,5.707,5.7734,5.8555,5.9336,5.9453,5.957,5.9805,6.0312,6.0703,6.0781,6.1289,6.168,6.1719,6.1719,6.1719,6.1719,6.1719,6.1719,6.1719,6.1719,6.1719,6.1719,6.1719,6.1719,6.1719,6.1719,6.1719,6.1719,6.1719,6.1719,6.1719,6.1719,6.1719,6.1719,6.1719,6.1719,6.1719,6.1719,6.1719,6.1719,6.1719,6.1719,6.1719,6.1719,6.1719,7.0898,7.0898,7.0898,7.0898,7.0898,7.0898,7.0898,7.0898,7.0898,7.0898,7.0898,7.0898,7.0898,7.0898,7.0898,7.0898,7.0898,7.0821,6.9925,6.8552,6.8482,6.7647,6.6301,6.6376,6.6454,6.6542,6.6585,6.6213,6.5581,6.5364,6.4916,6.4258,6.4023,6.3828,6.3867,6.3789,6.3828,6.3945,6.3867,6.3047,6.1523,6.0703,6.0312,6.0273,5.9609,5.918,5.9062,5.9062,5.9023,5.8867,5.875,5.875,5.8672,5.8672,5.832,5.7539,5.75,5.7226,5.6445,5.6367,5.668,5.7422,5.7461,5.7812,5.8633,5.8672,5.8359,5.7695,5.7578,5.7969,5.8828,5.9023,5.9414,6.0156,6.0312,6.0586,6.1211,6.1523,6.1562,6.1562,6.164,6.1719,6.1719,6.1719,6.1719,6.1719,6.1719,6.1719,6.1719,6.1719,6.1719,6.1719,6.1719,6.1719,6.1719,6.1719,6.1719,6.1719,6.1719,6.1719,6.1719,6.1719,6.1719,6.1719,6.1719,6.1719,6.1719,6.1719,6.1719,6.1719,6.1719,6.1719,6.1719,6.1719,6.1719,7.136,7.0898,7.0898,7.0898,7.0898,7.0898,7.0898,7.0898,7.0898,7.0898,7.0898,7.0898,7.0898,7.0898,7.0898,7.0898,7.086,7.0409,6.986,6.9155,6.8805,6.8226,6.7655,6.7774,6.7648,6.7238,6.737,6.7062,6.6323,6.5844,6.5155,6.4375,6.4297,6.4297,6.4297,6.4297,6.4297,6.4297,6.4297,6.3945,6.3242,6.2383,6.1953,6.1875,6.1133,6.039,5.9961,5.9922,5.9687,5.9258,5.9219,5.9219,5.9219,5.9219,5.9062,5.8711,5.8672,5.8515,5.8164,5.8125,5.8281,5.8633,5.8672,5.8828,5.914,5.9219,5.9219,5.9336,5.8945,5.9023,5.9765,5.9922,6.0234,6.0976,6.1172,6.1289,6.164,6.1719,6.1719,6.1719,6.1719,6.1719,6.1719,6.1719,6.1719,6.1719,6.1719,6.1719,6.1719,6.1719,6.1719,6.1719,6.1719,6.1719,6.1719,6.1719,6.1719,6.1719,6.1719,6.1719,6.1719,6.1719,6.1719,6.1719,6.1719,6.1719,6.1719,6.1719,6.1719,6.1719,6.1719,6.1719,6.1719,6.1719,6.1719,7.2195,7.1668,7.1629,7.1475,7.1245,7.1245,7.1129,7.0898,7.0898,7.0898,7.0898,7.0898,7.0898,7.0898,7.0898,7.0898,7.0821,7.0294,6.991,6.964,6.918,6.8838,6.864,6.8801,6.864,6.8156,6.8253,6.8037,6.7481,6.6945,6.6328,6.5781,6.5703,6.5703,6.5703,6.5703,6.5703,6.5703,6.5508,6.5351,6.5234,6.4297,6.3594,6.332,6.25,6.1758,6.1172,6.0859,6.0508,5.9922,5.9883,5.9883,5.9883,5.9883,5.9765,5.9531,5.9297,5.9219,5.9219,5.9219,5.9297,5.9492,5.9531,5.9648,5.9844,5.9883,6.0117,6.0586,6.0234,6.0195,6.0625,6.0742,6.1055,6.164,6.1719,6.1719,6.1719,6.1719,6.1719,6.1719,6.1719,6.1719,6.1719,6.1719,6.1719,6.1719,6.1719,6.1719,6.1719,6.1719,6.1719,6.1719,6.1719,6.1719,6.1719,6.1719,6.1719,6.1719,6.1719,6.1719,6.1719,6.1719,6.1719,6.1719,6.1719,6.1719,6.1719,6.1719,6.1719,6.1719,6.1719,6.1719,6.1719,6.1719,6.1719,7.3427,7.336,7.336,7.2822,7.2129,7.2129,7.1706,7.1091,7.0975,7.0937,7.0975,7.0898,7.0898,7.0898,7.0898,7.0898,7.0898,7.0821,7.0409,6.9833,6.981,6.9393,6.8618,6.8801,6.895,6.8956,6.9071,6.9124,6.9163,6.918,6.9219,6.9062,6.8945,6.9101,6.8945,6.8828,6.9101,6.875,6.8164,6.793,6.7734,6.6328,6.5117,6.4414,6.3398,6.289,6.2773,6.207,6.164,6.1601,6.1523,6.1562,6.1523,6.1523,6.1133,6.039,5.9687,5.9258,5.9297,5.9336,5.9609,6.0195,6.0351,6.0664,6.125,6.1328,6.1406,6.1601,6.1445,6.1484,6.1523,6.1484,6.1562,6.168,6.1719,6.1719,6.1719,6.1719,6.1719,6.1719,6.1719,6.1719,6.1719,6.1719,6.1719,6.1719,6.1719,6.1719,6.1719,6.1719,6.1719,6.1719,6.1719,6.1719,6.1719,6.1719,6.1719,6.1719,6.1719,6.1719,6.1719,6.1719,6.1719,6.1719,6.1719,6.1719,6.1719,6.1719,6.1719,6.1719,6.1719,6.1719,6.1719,6.1719,6.1719,7.3947,7.3486,7.3514,7.3322,7.3053,7.3014,7.286,7.2514,7.1975,7.1745,7.1629,7.1168,7.0898,7.0898,7.0898,7.0898,7.0898,7.0898,7.0744,7.0475,7.0607,7.0498,7.0264,7.0428,7.027,6.9904,6.9967,6.9787,6.9401,6.9412,6.9414,6.9453,6.9492,6.9492,6.9453,6.9414,6.9414,6.9453,6.914,6.9023,6.8906,6.7851,6.707,6.6719,6.4844,6.3828,6.3828,6.3515,6.3125,6.2539,6.2539,6.2265,6.1758,6.1719,6.1601,6.125,6.0937,6.082,6.0781,6.0781,6.0937,6.1172,6.125,6.1328,6.1601,6.1719,6.1719,6.1719,6.1719,6.1719,6.1719,6.1719,6.1719,6.1719,6.1719,6.1719,6.1719,6.1719,6.1719,6.1719,6.1719,6.1719,6.1719,6.1719,6.1719,6.1719,6.1719,6.1719,6.1719,6.1719,6.1719,6.1719,6.1713,6.1709,6.1719,6.1719,6.1719,6.1719,6.1719,6.1719,6.1719,6.1719,6.1719,6.1719,6.1719,6.1719,6.1719,6.1719,6.1719,6.1719,6.1719,6.1719,6.1719,6.1719,6.1719,7.4793,7.4332,7.4322,7.413,7.3899,7.3899,7.3745,7.3476,7.286,7.2629,7.2514,7.1975,7.1745,7.1745,7.1745,7.1745,7.1657,7.1206,7.0898,7.0898,7.1005,7.1091,7.1137,7.1358,7.1221,7.0798,7.0886,7.07,7.0292,7.0233,7.0273,7.0312,7.0312,7.0273,7.0234,7.0234,7.0273,7.0273,7.0039,6.9883,6.9726,6.9023,6.8594,6.832,6.6601,6.5273,6.4765,6.4453,6.4062,6.3515,6.3437,6.3047,6.2226,6.2109,6.1992,6.1758,6.168,6.1719,6.1719,6.1719,6.168,6.1719,6.1719,6.1719,6.1719,6.1719,6.1719,6.1719,6.1719,6.1719,6.1719,6.1719,6.1719,6.1719,6.1719,6.1719,6.1719,6.1719,6.1719,6.1719,6.1719,6.1719,6.1719,6.1719,6.1719,6.1719,6.1719,6.1719,6.1719,6.1719,6.1718,6.1715,6.1701,6.1697,6.1711,6.1719,6.1719,6.1719,6.1719,6.1719,6.1719,6.1719,6.1719,6.1719,6.1719,6.1719,6.1719,6.1719,6.1719,6.1719,6.1719,6.1719,6.1719,6.1719,6.1719,7.6053,7.6015,7.6015,7.5553,7.4899,7.4861,7.4322,7.3783,7.3553,7.3476,7.3476,7.336,7.3206,7.336,7.3206,7.335,7.3031,7.1811,7.1168,7.1168,7.1195,7.1287,7.1347,7.1588,7.1746,7.1785,7.1877,7.2002,7.2032,7.2025,7.2031,7.1992,7.2031,7.2031,7.2031,7.2031,7.1992,7.1797,7.1211,7.0781,7.0625,6.9922,6.9492,6.9414,6.8515,6.7305,6.582,6.4922,6.4453,6.4336,6.4297,6.3906,6.3164,6.3008,6.2656,6.207,6.1836,6.1797,6.1758,6.1797,6.1836,6.1719,6.1719,6.1719,6.1719,6.1719,6.1719,6.1719,6.1719,6.1719,6.1719,6.1719,6.1719,6.1719,6.1719,6.1719,6.1719,6.1719,6.1719,6.1719,6.1719,6.1719,6.1719,6.1719,6.1719,6.1719,6.1719,6.1719,6.1719,6.1719,6.1719,6.1697,6.1725,6.169,6.1701,6.1719,6.1719,6.1719,6.1719,6.1719,6.1719,6.1719,6.1719,6.1719,6.1719,6.1719,6.1719,6.1719,6.1719,6.1719,6.1719,6.1719,6.1719,6.1719,6.1719,7.7707,7.7707,7.7707,7.7246,7.6553,7.6476,7.6015,7.5168,7.463,7.4332,7.4245,7.3755,7.3486,7.3514,7.3514,7.3514,7.3465,7.2899,7.2696,7.2723,7.2734,7.2777,7.2877,7.3016,7.3257,7.343,7.3581,7.3665,7.3671,7.3736,7.3786,7.3789,7.375,7.3789,7.3711,7.3789,7.3555,7.293,7.2656,7.2226,7.1601,7.0781,7.0312,7.0234,6.9492,6.875,6.8281,6.6875,6.5859,6.5273,6.5195,6.4805,6.4101,6.3906,6.375,6.3515,6.3476,6.3164,6.2695,6.2578,6.2305,6.1875,6.1719,6.1719,6.1719,6.1719,6.1719,6.1719,6.1719,6.1719,6.1719,6.1719,6.1719,6.1719,6.1719,6.1719,6.1719,6.1719,6.1719,6.1719,6.1719,6.1719,6.1719,6.1719,6.1719,6.1719,6.1719,6.1719,6.1719,6.1719,6.1719,6.169,6.1725,6.172,6.169,6.1704,6.1713,6.1719,6.1719,6.1719,6.1719,6.1719,6.1719,6.1719,6.1719,6.1719,6.1719,6.1719,6.1719,6.1719,6.1719,6.1719,6.1719,6.1719,6.1719,7.8477,7.8477,7.8477,7.8207,7.7746,7.7746,7.7438,7.6899,7.6361,7.613,7.5976,7.5293,7.4909,7.4861,7.4591,7.4437,7.4437,7.4437,7.4427,7.4273,7.3707,7.3609,7.3691,7.3889,7.4088,7.4275,7.4361,7.4429,7.4486,7.4552,7.4566,7.457,7.457,7.457,7.457,7.457,7.418,7.3437,7.3281,7.2851,7.207,7.1445,7.1172,7.1055,7.0351,6.9961,6.9844,6.8594,6.7461,6.668,6.6289,6.5664,6.4883,6.4765,6.4648,6.4336,6.4258,6.4023,6.3555,6.3476,6.3281,6.2734,6.2383,6.2187,6.2109,6.1992,6.1719,6.1719,6.1719,6.1719,6.1719,6.1719,6.1719,6.1719,6.1719,6.1719,6.1719,6.1719,6.1719,6.1719,6.1719,6.1719,6.1719,6.1719,6.1719,6.1719,6.1719,6.1719,6.1719,6.1719,6.1719,6.1719,6.169,6.1725,6.172,6.1694,6.1709,6.1719,6.1719,6.1719,6.1719,6.1719,6.1719,6.1719,6.1719,6.1719,6.1719,6.1719,6.1719,6.1719,6.1719,6.1719,6.1719,6.1719,6.1719,7.8669,7.8631,7.8669,7.8669,7.8592,7.8554,7.8477,7.84,7.8323,7.8207,7.813,7.7438,7.7207,7.7092,7.6438,7.613,7.613,7.613,7.613,7.5745,7.4938,7.4302,7.4218,7.4418,7.4606,7.4678,7.4711,7.4702,7.4948,7.4978,7.4722,7.4961,7.5,7.4805,7.5,7.4805,7.4492,7.3828,7.3555,7.3047,7.2187,7.1992,7.1914,7.1875,7.1211,7.0781,7.0664,6.9922,6.9023,6.8203,6.7344,6.6562,6.5859,6.5664,6.5312,6.4726,6.4492,6.4492,6.4414,6.4375,6.4258,6.4023,6.3437,6.3086,6.3008,6.2539,6.2187,6.2148,6.2109,6.2031,6.2031,6.1914,6.1875,6.1719,6.1719,6.1719,6.1719,6.1719,6.1719,6.1719,6.1719,6.1719,6.1719,6.1719,6.1719,6.1719,6.1719,6.1719,6.1719,6.1719,6.1719,6.1719,6.1719,6.1694,6.169,6.172,6.1719,6.1719,6.1719,6.1719,6.1719,6.1719,6.1719,6.1719,6.1719,6.1719,6.1719,6.1719,6.1719,6.1719,6.1719,6.1719,6.1719,6.1719,6.1719,8.0439,8.04,8.04,8.0054,7.9515,7.9438,7.9092,7.8554,7.8554,7.8669,7.8477,7.8284,7.8207,7.8169,7.7938,7.7852,7.7737,7.7766,7.7843,7.7766,7.7544,7.6584,7.5886,7.5855,7.5966,7.6118,7.6114,7.6322,7.6443,7.6302,7.6362,7.6523,7.6367,7.6445,7.6523,7.6445,7.6055,7.5234,7.4531,7.3789,7.2969,7.2265,7.1992,7.1953,7.1758,7.1601,7.1562,7.0859,6.9687,6.832,6.8008,6.7461,6.668,6.6562,6.6406,6.6133,6.6094,6.5859,6.539,6.5234,6.4961,6.4375,6.414,6.3984,6.3945,6.375,6.3594,6.3633,6.3633,6.3555,6.3476,6.3008,6.2461,6.1836,6.1797,6.1758,6.1719,6.1719,6.1719,6.1719,6.1719,6.1719,6.1719,6.1719,6.1719,6.1719,6.1719,6.1719,6.1719,6.1719,6.1719,6.1719,6.1719,6.1719,6.1694,6.1725,6.1719,6.1719,6.1719,6.1719,6.1719,6.1719,6.1719,6.1719,6.1719,6.1719,6.1719,6.1719,6.1719,6.1719,6.1719,6.1709,6.1717,6.1719,6.1719,8.2131,8.217,8.2131,8.1862,8.14,8.14,8.09,8.0208,8.0092,7.99,7.9592,7.9208,7.9054,7.9015,7.8669,7.8507,7.8498,7.8498,7.8468,7.8498,7.8528,7.7921,7.7124,7.6787,7.6721,7.6897,7.6972,7.6975,7.7059,7.7078,7.7144,7.7109,7.7226,7.7226,7.7109,7.7187,7.6797,7.5859,7.5039,7.418,7.332,7.2461,7.207,7.1992,7.1992,7.1992,7.1914,7.1484,7.0469,6.914,6.8672,6.8359,6.7578,6.7461,6.7305,6.6992,6.6914,6.664,6.6289,6.6133,6.5937,6.543,6.5117,6.4883,6.4765,6.457,6.4297,6.4258,6.4297,6.4297,6.4219,6.3828,6.3359,6.293,6.2461,6.2109,6.1758,6.1719,6.1719,6.1719,6.1719,6.1719,6.1719,6.1719,6.1719,6.1719,6.1719,6.1719,6.1719,6.1719,6.1719,6.1719,6.1719,6.1719,6.1719,6.1719,6.1719,6.1719,6.1719,6.1719,6.1719,6.1719,6.1719,6.1719,6.1719,6.1719,6.1719,6.1716,6.1719,6.1719,6.1719,6.169,6.1707,6.1715,6.1716,8.3593,8.3593,8.3593,8.3593,8.3478,8.3555,8.2939,8.2477,8.2285,8.1823,8.1131,8.0362,8.0092,7.99,7.9361,7.8861,7.8861,7.9015,7.8938,7.9018,7.9031,7.8641,7.8176,7.7293,7.7088,7.7131,7.7089,7.7024,7.7067,7.7117,7.7142,7.7187,7.7226,7.7226,7.7226,7.7226,7.6758,7.6133,7.5312,7.4492,7.3633,7.2773,7.2226,7.1992,7.1992,7.1992,7.1992,7.1836,7.1211,6.9765,6.9687,6.918,6.8476,6.832,6.793,6.7305,6.7148,6.707,6.6875,6.6758,6.6836,6.6562,6.6055,6.5742,6.5625,6.5195,6.4883,6.4883,6.4609,6.4726,6.4531,6.4453,6.4258,6.3984,6.3476,6.2812,6.2148,6.1836,6.1719,6.1719,6.1719,6.1719,6.1719,6.1719,6.1719,6.1719,6.1719,6.1719,6.1719,6.1719,6.1719,6.1719,6.1719,6.1719,6.1719,6.1719,6.1719,6.1719,6.1719,6.1719,6.1719,6.1719,6.1719,6.1719,6.1719,6.1719,6.1719,6.1697,6.1704,6.1701,6.1676,6.1715,6.172,6.1694,6.1701,8.3593,8.3593,8.3593,8.3593,8.3593,8.3593,8.3516,8.3324,8.3324,8.2824,8.2093,8.1785,8.1323,8.0785,8.0477,8.0554,8.04,8.04,8.0577,8.0607,8.0019,7.9941,7.952,7.8515,7.7898,7.7831,7.7334,7.716,7.7167,7.7302,7.7211,7.7226,7.7226,7.7226,7.7226,7.7187,7.7148,7.6758,7.6015,7.5156,7.4336,7.3476,7.2734,7.2226,7.2148,7.207,7.1992,7.1992,7.1797,7.1406,7.0781,7.0078,6.9414,6.9219,6.8789,6.8164,6.789,6.7656,6.7109,6.7031,6.6914,6.7031,6.6914,6.664,6.6601,6.6523,6.6367,6.6328,6.6328,6.5976,6.543,6.5312,6.5078,6.4609,6.4219,6.3945,6.3555,6.2539,6.1875,6.1758,6.1719,6.1719,6.1719,6.1719,6.1719,6.1719,6.1719,6.1719,6.1719,6.1719,6.1719,6.1719,6.1719,6.1719,6.1719,6.1719,6.1719,6.1719,6.1719,6.1719,6.1719,6.1719,6.1719,6.1719,6.1719,6.1694,6.1715,6.1705,6.171,6.1705,6.166,6.1666,6.1671,6.1676,6.172,8.4786,8.4786,8.4786,8.4786,8.4747,8.4786,8.4555,8.4247,8.4209,8.3478,8.2516,8.2324,8.1862,8.1131,8.1093,8.1054,8.1093,8.1131,8.1162,8.1186,8.0909,8.0894,8.0842,7.9929,7.9204,7.8883,7.8564,7.8316,7.8266,7.7927,7.7833,7.7734,7.7422,7.7226,7.7226,7.7226,7.7226,7.6992,7.6367,7.5664,7.5156,7.4336,7.375,7.332,7.3203,7.3242,7.3242,7.2812,7.2656,7.2383,7.1797,7.0937,7.0234,7.0039,6.9609,6.8945,6.8789,6.8633,6.8203,6.8086,6.8125,6.8086,6.8086,6.8125,6.8125,6.8125,6.7851,6.7617,6.7422,6.7148,6.6328,6.6211,6.5898,6.5625,6.5156,6.4922,6.4609,6.3398,6.2305,6.2226,6.1953,6.1797,6.1719,6.1758,6.1719,6.1719,6.1719,6.1719,6.1719,6.1719,6.1719,6.1719,6.1719,6.1719,6.1719,6.1719,6.1719,6.1719,6.1719,6.1719,6.1719,6.1719,6.1719,6.1711,6.1697,6.1725,6.1705,6.1726,6.168,6.1641,6.1609,6.1654,6.1666,6.1676,6.172,8.6094,8.6094,8.6094,8.6094,8.6094,8.6055,8.567,8.5132,8.5093,8.4132,8.2747,8.2516,8.2093,8.1246,8.1093,8.1093,8.1131,8.117,8.1231,8.128,8.1407,8.1462,8.1427,8.1026,8.0559,8.0014,7.9598,7.9541,7.9338,7.9031,7.8663,7.8515,7.7812,7.7578,7.7461,7.7226,7.7226,7.7109,7.6601,7.6055,7.5781,7.5117,7.4726,7.4375,7.4336,7.4336,7.418,7.3828,7.3476,7.3437,7.2656,7.1875,7.1328,7.0898,7.0508,6.9687,6.9648,6.9492,6.9219,6.9219,6.9258,6.9492,6.9414,6.9414,6.9375,6.9219,6.8906,6.8515,6.8164,6.7812,6.7187,6.6836,6.6836,6.668,6.6133,6.5859,6.5508,6.4336,6.3594,6.3086,6.2617,6.2187,6.1992,6.1914,6.1797,6.1719,6.1719,6.1719,6.1719,6.1719,6.1719,6.1719,6.1719,6.1719,6.1719,6.1719,6.1719,6.1719,6.1719,6.1719,6.1719,6.1719,6.1719,6.1719,6.172,6.171,6.1699,6.1687,6.1641,6.1595,6.1595,6.1634,6.1654,6.1676,6.1676,8.6094,8.6094,8.6094,8.6094,8.6094,8.6094,8.6017,8.5901,8.5824,8.4939,8.3478,8.3324,8.2439,8.14,8.1093,8.1093,8.1093,8.117,8.1263,8.1398,8.1522,8.1659,8.1765,8.1753,8.1655,8.139,8.0626,7.9957,7.9876,7.953,7.9492,7.9336,7.8672,7.8281,7.8086,7.7656,7.7461,7.75,7.7148,7.6719,7.6211,7.582,7.539,7.4961,7.4922,7.4844,7.4726,7.4531,7.4375,7.4297,7.3555,7.3086,7.2617,7.2109,7.1367,7.0703,7.0469,7.0312,6.9844,6.957,6.9492,6.9492,6.9648,6.9648,6.9609,6.957,6.957,6.918,6.8633,6.8164,6.8008,6.7422,6.6992,6.6875,6.6758,6.6601,6.6406,6.5742,6.4805,6.4336,6.3515,6.2695,6.2461,6.2187,6.1953,6.1797,6.1719,6.1719,6.1719,6.1719,6.1719,6.1719,6.1719,6.1719,6.1719,6.1719,6.1719,6.1719,6.1719,6.1719,6.1719,6.1719,6.1719,6.1719,6.172,6.171,6.1699,6.1648,6.1634,6.1588,6.1619,6.1612,6.1641,6.1671,6.1671,8.6094,8.6094,8.6094,8.6094,8.6094,8.6094,8.6094,8.6094,8.6055,8.517,8.3978,8.3516,8.267,8.1439,8.1093,8.1093,8.1131,8.1208,8.1335,8.1402,8.1561,8.1719,8.1909,8.2023,8.2123,8.1968,8.1402,8.0992,8.0976,8.0586,8.0429,8.0195,7.9531,7.914,7.9062,7.8789,7.8476,7.8398,7.8047,7.7656,7.7187,7.6875,7.6289,7.6094,7.5937,7.5937,7.5859,7.543,7.5273,7.5117,7.4453,7.3828,7.3359,7.289,7.2305,7.1562,7.1328,7.1211,7.082,7.0742,7.082,7.082,7.0742,7.0781,7.0781,7.082,7.0469,7.0,6.9336,6.8828,6.8789,6.8047,6.7656,6.7461,6.7226,6.6953,6.6797,6.6484,6.6015,6.539,6.4492,6.3633,6.289,6.2578,6.2187,6.1953,6.1797,6.1836,6.1914,6.1953,6.207,6.2031,6.207,6.2109,6.2109,6.2148,6.2148,6.207,6.2031,6.2031,6.1953,6.2031,6.1875,6.1719,6.1694,6.2027,6.1705,6.1648,6.1634,6.1573,6.1603,6.1603,6.1641,6.166,6.1671,8.6094,8.6094,8.6094,8.6094,8.6094,8.6094,8.6094,8.6094,8.5901,8.4978,8.3708,8.3324,8.2477,8.14,8.1093,8.1093,8.1131,8.1246,8.1335,8.1441,8.1618,8.1803,8.1945,8.2065,8.2162,8.2209,8.2154,8.2297,8.1992,8.1562,8.1289,8.1015,8.039,7.9961,7.9922,7.9609,7.9765,7.9492,7.914,7.875,7.8555,7.8086,7.7578,7.7461,7.7461,7.7344,7.6953,7.6484,7.6172,7.5937,7.5351,7.457,7.3945,7.3672,7.3164,7.2422,7.2109,7.1992,7.1953,7.1875,7.1719,7.168,7.1914,7.1953,7.1914,7.168,7.1601,7.0976,7.0195,6.9687,6.957,6.8906,6.8398,6.8047,6.7578,6.7109,6.6953,6.6797,6.6758,6.6133,6.5351,6.4726,6.4062,6.3398,6.3125,6.3008,6.289,6.2812,6.2851,6.2734,6.2734,6.2617,6.2578,6.2578,6.2617,6.2734,6.2812,6.289,6.2851,6.2851,6.2656,6.25,6.2383,6.2461,6.2553,6.2769,6.2251,6.1693,6.1634,6.1612,6.1586,6.1595,6.1648,6.1671,6.1681,8.6094,8.6094,8.6094,8.6094,8.6094,8.6094,8.6094,8.6017,8.5401,8.4516,8.3555,8.2817,8.2009,8.1285,8.1093,8.1093,8.1131,8.1239,8.1379,8.1484,8.1679,8.1875,8.2038,8.2172,8.2218,8.2254,8.2299,8.2328,8.2265,8.2109,8.207,8.1875,8.1289,8.0859,8.0781,8.0351,7.9726,7.9726,7.9648,7.9531,7.9453,7.9297,7.8906,7.8515,7.8242,7.7969,7.7422,7.7031,7.6914,7.6836,7.6172,7.5742,7.5469,7.4844,7.4062,7.3203,7.2539,7.1992,7.2031,7.1992,7.1992,7.1992,7.1992,7.1992,7.1992,7.1992,7.1914,7.1914,7.1055,7.0586,7.043,6.9765,6.9023,6.8555,6.8242,6.7695,6.7344,6.7578,6.75,6.7109,6.6445,6.5937,6.539,6.4687,6.4101,6.4062,6.3984,6.3867,6.3711,6.3515,6.3437,6.332,6.3281,6.3281,6.3242,6.3359,6.3437,6.3594,6.3594,6.3594,6.3437,6.332,6.3672,6.375,6.3711,6.332,6.2691,6.2206,6.1822,6.1931,6.2274,6.2063,6.1705,6.1759,6.2076,8.6094,8.6094,8.6094,8.6094,8.6094,8.6094,8.6094,8.594,8.5247,8.4401,8.3555,8.267,8.1823,8.1208,8.1093,8.1093,8.1131,8.1246,8.1388,8.1504,8.1716,8.192,8.2052,8.2172,8.2226,8.2305,8.231,8.2324,8.2304,8.2344,8.2304,8.2265,8.1953,8.1719,8.1719,8.1367,8.125,8.1094,8.0742,8.0195,7.9844,7.9687,7.957,7.918,7.875,7.832,7.793,7.7383,7.7226,7.7148,7.6758,7.6367,7.5976,7.5469,7.4961,7.4101,7.375,7.3047,7.2187,7.207,7.207,7.1992,7.1992,7.1992,7.1992,7.1992,7.1992,7.1992,7.168,7.1445,7.125,7.0625,7.0117,6.9609,6.9062,6.8711,6.8359,6.8359,6.8359,6.7969,6.7575,6.7105,6.6596,6.5937,6.5117,6.4531,6.4453,6.4375,6.4219,6.4023,6.4023,6.4101,6.4062,6.4062,6.4023,6.4023,6.4023,6.414,6.414,6.414,6.414,6.4219,6.457,6.4492,6.418,6.3711,6.3164,6.3037,6.3026,6.3059,6.313,6.2915,6.2774,6.3081,6.3208,8.6094,8.6094,8.6094,8.6094,8.6094,8.6094,8.6094,8.5978,8.4978,8.4209,8.3439,8.2477,8.1631,8.1208,8.1093,8.1131,8.1131,8.1246,8.1379,8.1542,8.1716,8.1937,8.2077,8.2153,8.2248,8.2331,8.2657,8.2714,8.2773,8.289,8.3047,8.2656,8.2656,8.2617,8.2539,8.2265,8.207,8.2031,8.1562,8.1054,8.0586,8.0469,8.0273,7.9844,7.9297,7.8711,7.8398,7.7656,7.7226,7.7187,7.7148,7.6797,7.6367,7.625,7.5781,7.5117,7.4805,7.4219,7.332,7.2851,7.2539,7.2344,7.2031,7.1992,7.1992,7.1992,7.1992,7.1992,7.1953,7.1914,7.1875,7.1328,7.0898,7.043,7.0039,6.9765,6.9492,6.9297,6.9101,6.875,6.8427,6.8261,6.7715,6.7096,6.625,6.5273,6.4961,6.496,6.4961,6.5039,6.5117,6.5351,6.5351,6.5351,6.5273,6.5117,6.5,6.4883,6.4883,6.4922,6.5117,6.5195,6.539,6.5156,6.4805,6.4961,6.4961,6.4587,6.4219,6.3935,6.3734,6.3984,6.4067,6.4336,6.4213,8.6094,8.6094,8.6055,8.6055,8.6094,8.6094,8.6094,8.5863,8.4401,8.367,8.3131,8.2016,8.1246,8.1093,8.1093,8.1131,8.1208,8.1246,8.1417,8.1606,8.1755,8.1968,8.2179,8.2335,8.2417,8.2636,8.3135,8.3503,8.3711,8.4219,8.4062,8.3633,8.3554,8.3554,8.3359,8.3008,8.2656,8.2539,8.2265,8.2148,8.1914,8.1797,8.1562,8.0859,8.0078,7.9297,7.8555,7.7773,7.7265,7.7265,7.7226,7.7187,7.6914,7.6914,7.6445,7.6015,7.582,7.5312,7.4648,7.4101,7.3867,7.3242,7.2695,7.2305,7.2226,7.207,7.2031,7.2031,7.1992,7.1992,7.1992,7.1875,7.1445,7.1094,7.0736,7.0494,7.0217,6.9922,6.9687,6.9453,6.9238,6.9064,6.8775,6.8156,6.7776,6.6856,6.6708,6.6711,6.6708,6.6719,6.6719,6.6797,6.6797,6.6797,6.6797,6.668,6.6601,6.6445,6.6328,6.6367,6.6445,6.6445,6.6133,6.6211,6.6015,6.6367,6.6484,6.5695,6.502,6.4501,6.4414,6.4848,6.4804,6.4755,6.4626,8.4555,8.4555,8.4555,8.517,8.6094,8.6094,8.5824,8.5209,8.4093,8.2939,8.2054,8.14,8.1093,8.1093,8.1093,8.1131,8.1201,8.1253,8.1435,8.16,8.1756,8.222,8.2562,8.3046,8.3315,8.376,8.4241,8.4375,8.4492,8.5273,8.5469,8.5156,8.4687,8.4453,8.4179,8.3945,8.3594,8.3164,8.3008,8.289,8.2344,8.2304,8.2148,8.1797,8.0937,8.0078,7.9258,7.8437,7.7812,7.7383,7.7265,7.7265,7.7226,7.7226,7.6992,7.668,7.664,7.6406,7.5937,7.5273,7.4414,7.4258,7.375,7.3359,7.289,7.2812,7.2422,7.2226,7.2064,7.2098,7.2031,7.1992,7.1836,7.1601,7.1353,7.1139,7.0933,7.066,7.0459,7.027,7.0063,6.9887,6.9561,6.9241,6.8905,6.8535,6.8474,6.8371,6.8215,6.8136,6.8027,6.7995,6.7961,6.8083,6.8086,6.8164,6.8203,6.7969,6.7695,6.7539,6.7383,6.6875,6.668,6.6875,6.7031,6.707,6.6875,6.6367,6.5891,6.557,6.5672,6.6009,6.5769,6.5289,6.5113,8.3593,8.3593,8.3593,8.4286,8.5286,8.5363,8.5055,8.4439,8.3555,8.2477,8.1093,8.1093,8.1093,8.1093,8.1124,8.1201,8.127,8.1359,8.1683,8.1979,8.2326,8.283,8.342,8.3896,8.4173,8.4854,8.5234,8.5312,8.5312,8.6172,8.6445,8.6328,8.6015,8.5703,8.5234,8.4961,8.4609,8.414,8.3633,8.3398,8.2773,8.2422,8.2304,8.2109,8.1367,8.0742,8.0,7.9297,7.8476,7.7969,7.7656,7.7461,7.7305,7.7226,7.7226,7.7226,7.7226,7.7226,7.6797,7.6015,7.5039,7.4961,7.457,7.418,7.3867,7.3672,7.3437,7.3047,7.2709,7.2378,7.2372,7.2266,7.1997,7.1758,7.1753,7.1579,7.1604,7.1441,7.1277,7.1113,7.0949,7.0793,7.0639,7.0318,6.9694,6.9294,6.8944,6.888,6.888,6.8886,6.8976,6.8986,6.9035,6.9163,6.9336,6.9101,6.8867,6.875,6.8515,6.832,6.8086,6.7617,6.7578,6.8047,6.8086,6.7734,6.7578,6.7422,6.7143,6.6789,6.6731,6.6532,6.6432,6.5979,6.5892,8.3516,8.3593,8.3516,8.3555,8.367,8.367,8.3708,8.3516,8.2708,8.1862,8.1131,8.1093,8.1093,8.1124,8.1184,8.1338,8.1531,8.162,8.2057,8.2815,8.3116,8.3752,8.4364,8.4771,8.4999,8.5104,8.5703,8.6172,8.6172,8.6836,8.7265,8.7304,8.7031,8.6758,8.6133,8.5351,8.4961,8.4765,8.4101,8.3711,8.3281,8.2695,8.2344,8.2109,8.164,8.1133,8.0586,8.0078,7.9297,7.8633,7.8476,7.8125,7.7539,7.7422,7.7344,7.7226,7.7226,7.7226,7.7109,7.6328,7.5976,7.582,7.5469,7.4922,7.4687,7.457,7.4409,7.3959,7.3627,7.3296,7.3009,7.2682,7.2409,7.2292,7.237,7.24,7.25,7.2472,7.2345,7.2284,7.1994,7.177,7.1728,7.142,7.059,7.0002,6.9499,6.9401,6.9596,6.9809,6.9974,7.0075,7.0128,7.0113,7.0167,6.9788,6.9531,6.9453,6.9297,6.914,6.8984,6.875,6.8867,6.9219,6.8984,6.8555,6.8633,6.8711,6.8229,6.7676,6.6974,6.6728,6.6732,6.6624,6.6418,8.1939,8.1939,8.1939,8.1939,8.2093,8.3131,8.3285,8.2631,8.19,8.1362,8.117,8.1154,8.1184,8.1184,8.1359,8.1658,8.2227,8.2343,8.2922,8.3873,8.4026,8.4698,8.5309,8.5668,8.5936,8.6479,8.6953,8.6992,8.707,8.7422,8.7461,8.75,8.7461,8.7344,8.7109,8.664,8.6445,8.5742,8.4922,8.4219,8.3594,8.2812,8.2304,8.2265,8.1953,8.1562,8.1133,8.0664,8.0156,7.9453,7.9297,7.8906,7.8242,7.8047,7.7812,7.7422,7.7226,7.7226,7.7187,7.6836,7.6758,7.6601,7.6406,7.5898,7.5586,7.5496,7.5208,7.4759,7.4428,7.4141,7.3977,7.3835,7.367,7.37,7.3729,7.3719,7.3737,7.3613,7.3549,7.3522,7.338,7.2827,7.2569,7.2274,7.1536,7.1264,7.0859,7.0694,7.0784,7.1003,7.1182,7.1224,7.1252,7.116,7.1026,7.0654,7.0397,7.0312,7.0117,6.9922,6.9805,6.9765,6.9609,6.9687,6.9531,6.9375,6.9375,6.9289,6.9039,6.8546,6.779,6.7199,6.7091,6.6902,6.6543,8.1939,8.1977,8.1977,8.1939,8.2093,8.2824,8.2939,8.2593,8.19,8.1547,8.1539,8.1338,8.1436,8.1649,8.1859,8.235,8.3238,8.3386,8.39,8.4805,8.4988,8.5634,8.6254,8.6527,8.6789,8.7336,8.7461,8.7461,8.7422,8.7461,8.75,8.7461,8.7461,8.7422,8.7383,8.7265,8.7148,8.6367,8.5586,8.4609,8.3906,8.3125,8.2344,8.2304,8.2187,8.2031,8.1601,8.1328,8.1054,8.0426,8.0034,7.9761,7.9217,7.8828,7.8476,7.789,7.7305,7.7265,7.7187,7.7187,7.707,7.7109,7.7225,7.6952,7.648,7.638,7.6092,7.5677,7.5194,7.4975,7.4918,7.4811,7.4466,7.4455,7.4418,7.4353,7.4286,7.4164,7.4156,7.4217,7.407,7.3607,7.327,7.2925,7.2404,7.2346,7.2308,7.209,7.1824,7.1894,7.1962,7.1978,7.186,7.1661,7.1624,7.1581,7.1338,7.1201,7.0976,7.0703,7.082,7.082,7.0508,7.0273,7.0469,7.0508,7.0039,6.9799,6.9655,6.9224,6.8534,6.8015,6.7603,6.7399,6.7203,8.3555,8.3593,8.3593,8.3516,8.3439,8.2901,8.2978,8.3478,8.2708,8.2386,8.2409,8.1715,8.1986,8.2637,8.2793,8.3373,8.412,8.4374,8.5036,8.5619,8.596,8.6619,8.7003,8.7244,8.7297,8.7353,8.7461,8.75,8.75,8.75,8.7461,8.7422,8.7422,8.7422,8.7422,8.7422,8.7383,8.6875,8.5742,8.4961,8.4375,8.3151,8.2487,8.2297,8.2256,8.2217,8.207,8.2031,8.1664,8.13,8.1005,8.0475,8.0063,7.9764,7.918,7.8515,7.7773,7.7617,7.7383,7.7422,7.7226,7.7251,7.7181,7.7176,7.7087,7.6912,7.6737,7.6521,7.6145,7.5913,7.5725,7.5197,7.4661,7.4631,7.4584,7.4511,7.4494,7.444,7.4441,7.4382,7.4199,7.393,7.3818,7.3509,7.3133,7.3017,7.2886,7.2645,7.2404,7.2269,7.2305,7.2319,7.219,7.199,7.2004,7.2167,7.1867,7.1589,7.1669,7.1523,7.168,7.1719,7.1367,7.1289,7.168,7.1601,7.0976,7.0604,7.0453,6.9935,6.9587,6.8993,6.8631,6.8539,6.8443,8.3593,8.3593,8.3593,8.3593,8.3632,8.4042,8.4042,8.3593,8.3349,8.3333,8.3325,8.3238,8.3308,8.3605,8.3816,8.446,8.4987,8.5463,8.6008,8.6466,8.6746,8.7112,8.7283,8.7407,8.7407,8.7405,8.7461,8.7479,8.7461,8.7456,8.7453,8.7422,8.7397,8.7397,8.7342,8.7347,8.7407,8.7035,8.5765,8.5185,8.4524,8.3257,8.2636,8.2315,8.226,8.2221,8.2232,8.2242,8.1975,8.187,8.1836,8.1441,8.0743,8.0597,8.0234,7.9453,7.9023,7.8789,7.8198,7.8071,7.7864,7.7469,7.7282,7.713,7.7117,7.7218,7.7192,7.6886,7.6731,7.6454,7.626,7.5837,7.5461,7.539,7.5333,7.5291,7.527,7.5227,7.516,7.5036,7.486,7.4526,7.4417,7.3994,7.3597,7.3559,7.3443,7.3266,7.3021,7.2871,7.2728,7.2693,7.2774,7.2673,7.2601,7.2701,7.2328,7.2004,7.2214,7.23,7.2226,7.2187,7.207,7.2187,7.25,7.2265,7.1719,7.148,7.1384,7.137,7.1066,7.029,6.9678,6.96,6.9468,8.4626,8.4619,8.4658,8.4619,8.4766,8.529,8.5213,8.4751,8.4404,8.431,8.4319,8.4069,8.4273,8.4676,8.4883,8.5408,8.6243,8.6418,8.6732,8.7008,8.7315,8.7342,8.7392,8.7387,8.7405,8.7421,8.7411,8.7465,8.7426,8.7397,8.7397,8.7375,8.7347,8.7321,8.7292,8.7286,8.73,8.6902,8.6168,8.5345,8.4453,8.3516,8.284,8.2326,8.221,8.2153,8.2171,8.214,8.2143,8.2143,8.2133,8.1976,8.1321,8.1141,8.0875,8.0119,7.9664,7.9352,7.8942,7.887,7.8565,7.8221,7.8026,7.8175,7.783,7.7699,7.7363,7.6975,7.6921,7.6858,7.677,7.663,7.6517,7.6359,7.6289,7.6248,7.6199,7.6147,7.6044,7.5914,7.5639,7.5293,7.4896,7.4474,7.4251,7.4413,7.449,7.4405,7.3995,7.3559,7.3318,7.3176,7.3373,7.3485,7.3374,7.3294,7.3114,7.3029,7.3222,7.3236,7.2957,7.3047,7.3242,7.3203,7.3203,7.2969,7.2851,7.2578,7.245,7.2399,7.2151,7.1351,7.0797,7.0654,7.047,8.612,8.6177,8.6215,8.6169,8.6384,8.6336,8.6394,8.6412,8.5611,8.533,8.5282,8.4699,8.5031,8.57,8.5888,8.6311,8.6856,8.7066,8.7079,8.7414,8.7401,8.7377,8.7381,8.7411,8.742,8.7405,8.7393,8.7425,8.7381,8.7381,8.7368,8.7315,8.7298,8.7234,8.7181,8.7144,8.715,8.6989,8.6455,8.5788,8.4873,8.4015,8.3118,8.246,8.2221,8.2089,8.2077,8.2077,8.205,8.2051,8.2075,8.2013,8.18,8.148,8.1138,8.0922,8.0477,8.0041,7.9821,7.9684,7.9567,7.9461,7.9588,7.9266,7.873,7.8321,7.795,7.7779,7.7779,7.7671,7.7564,7.7423,7.7272,7.7137,7.7074,7.6976,7.6899,7.6831,7.6686,7.6617,7.6485,7.6126,7.5638,7.5221,7.4851,7.5157,7.5077,7.5,7.4762,7.4165,7.3983,7.3697,7.4098,7.4269,7.3968,7.3932,7.4049,7.4063,7.4131,7.4069,7.3726,7.4033,7.4492,7.418,7.3867,7.414,7.4101,7.3711,7.3373,7.3236,7.2867,7.2268,7.1867,7.1677,7.129,8.6331,8.6354,8.6414,8.65,8.6556,8.661,8.6723,8.677,8.6666,8.6428,8.6344,8.6299,8.636,8.6644,8.6777,8.7078,8.722,8.7339,8.7369,8.7411,8.7421,8.7414,8.7401,8.7416,8.7414,8.7392,8.7386,8.7359,8.7331,8.7302,8.7273,8.7146,8.7113,8.7058,8.698,8.6961,8.6959,8.6877,8.6632,8.6194,8.5531,8.4247,8.313,8.2803,8.2572,8.2131,8.2076,8.1991,8.1926,8.1873,8.1893,8.1908,8.1987,8.187,8.1855,8.1789,8.1587,8.1148,8.0869,8.0688,8.044,7.987,7.9688,7.9546,7.9312,7.9037,7.8858,7.8776,7.8604,7.8438,7.8253,7.8089,7.7946,7.7862,7.7716,7.7598,7.7509,7.7394,7.7318,7.7249,7.7217,7.6878,7.6349,7.597,7.5665,7.5323,7.4981,7.4866,7.4829,7.4485,7.4516,7.4465,7.5002,7.508,7.4676,7.4513,7.4646,7.4536,7.4476,7.4455,7.4523,7.4848,7.5156,7.4726,7.4492,7.4922,7.5039,7.4531,7.4212,7.408,7.3627,7.3023,7.2704,7.247,7.2062,8.5294,8.5418,8.5901,8.6132,8.6219,8.6605,8.6884,8.7001,8.7019,8.7019,8.7001,8.7055,8.7144,8.7181,8.7309,8.7348,8.7337,8.738,8.7381,8.7383,8.7397,8.7393,8.7393,8.7414,8.7368,8.7347,8.7331,8.7312,8.722,8.7144,8.7052,8.6922,8.6904,8.6832,8.6693,8.666,8.6675,8.6633,8.6584,8.6382,8.5972,8.4903,8.3943,8.3587,8.317,8.2785,8.2803,8.2823,8.282,8.2832,8.2925,8.2937,8.2921,8.2664,8.272,8.2808,8.2737,8.2468,8.224,8.1904,8.1519,8.1065,8.0606,8.0753,8.0608,8.0314,7.9653,7.9485,7.8942,7.874,7.849,7.8315,7.8169,7.8014,7.785,7.7714,7.7531,7.7418,7.7341,7.7302,7.7262,7.7103,7.6604,7.599,7.5717,7.5286,7.4993,7.4577,7.4577,7.4487,7.4661,7.4786,7.5057,7.5344,7.5041,7.5024,7.5181,7.5044,7.4945,7.5456,7.5833,7.578,7.5742,7.582,7.582,7.5898,7.5859,7.5545,7.5234,7.5073,7.4471,7.3822,7.3543,7.3296,7.297,8.4057,8.4195,8.507,8.5445,8.5621,8.6456,8.6856,8.6942,8.7066,8.7206,8.7259,8.7247,8.7273,8.7331,8.7368,8.7408,8.7386,8.7362,8.7382,8.7377,8.7375,8.736,8.737,8.736,8.7302,8.727,8.7209,8.7121,8.7037,8.6927,8.6794,8.6651,8.656,8.6478,8.6373,8.6317,8.6246,8.6203,8.6197,8.6208,8.597,8.5655,8.487,8.4389,8.4088,8.4043,8.3992,8.3953,8.3915,8.3811,8.3668,8.3695,8.3576,8.3235,8.3436,8.348,8.331,8.3426,8.362,8.3281,8.313,8.2862,8.2378,8.2047,8.1846,8.1491,8.0833,8.0338,7.9787,7.9263,7.9018,7.8769,7.8573,7.84,7.8217,7.8026,7.7865,7.7657,7.7614,7.7571,7.7521,7.7425,7.6881,7.6262,7.584,7.5446,7.4948,7.4498,7.4151,7.4046,7.4046,7.4122,7.4312,7.4588,7.4903,7.5187,7.5341,7.5947,7.5987,7.6638,7.718,7.7323,7.7438,7.75,7.75,7.7415,7.7178,7.6944,7.6558,7.6208,7.5287,7.4701,7.4519,7.4278,7.3966,8.4241,8.4315,8.4587,8.4725,8.4842,8.5774,8.6194,8.6346,8.7008,8.7338,8.7291,8.7342,8.7381,8.7362,8.7382,8.7382,8.7381,8.7336,8.7323,8.7336,8.7302,8.7286,8.73,8.7222,8.7195,8.7105,8.7001,8.6865,8.6704,8.6612,8.6475,8.6325,8.6173,8.6043,8.6011,8.5919,8.5819,8.5781,8.5743,8.5739,8.5616,8.5318,8.5043,8.4502,8.4021,8.3757,8.3618,8.3618,8.3618,8.3618,8.3772,8.388,8.3826,8.376,8.3817,8.3989,8.3822,8.3924,8.4057,8.3977,8.3811,8.3798,8.3333,8.3192,8.3076,8.2996,8.2477,8.2109,8.147,8.0585,8.0208,7.9851,7.9629,7.9358,7.9149,7.8939,7.8761,7.8615,7.8473,7.8473,7.8425,7.8091,7.7517,7.698,7.6618,7.6032,7.5209,7.4748,7.4509,7.4078,7.3589,7.3781,7.3913,7.4019,7.4487,7.4977,7.5321,7.6164,7.7015,7.7583,7.8248,7.9049,7.9137,7.8692,7.8855,7.893,7.8692,7.8093,7.7981,7.7508,7.6308,7.5577,7.5475,7.5202,7.4874]},{"header":{"parameterUnit":"m.s-1","parameterCategory":1,"la1":31.0,"la2":29.5877,"lo1":-88.7671,"lo2":-86.6584,"dy":0.0162,"dx":0.0185,"nx":115,"ny":88,"refTime":"2024-02-04T06:00:00:Z","depth":0,"parameterNumber":3,"parameterNumberName":"V-component_of_WINDS"},"data":[0.0,0.0,0.0,0.0,0.0,0.0,0.0,0.0,0.0,0.0,0.0,0.0,0.0,0.0,0.0,0.0,0.0,0.0,0.0,0.0,0.0,0.0,0.0,0.0,0.0,0.0,0.0,0.0,0.0,0.0,0.0,0.0,0.0,0.0,0.0,0.0,0.0,0.0,0.0,0.0,0.0,0.0,0.0,0.0,0.0,0.0,0.0,0.0,0.0,0.0,0.0,0.0,0.0,0.0,0.0,0.0,0.0,0.0,0.0,0.0,0.0,0.0,0.0,0.0,0.0,0.0,0.0,0.0,0.0,0.0,0.0,0.0,0.0,0.0,0.0,0.0,0.0,0.0,0.0,0.0,0.0,0.0,0.0,0.0,0.0,0.0,0.0,0.0,0.0,0.0,0.0,0.0,0.0,0.0,0.0,0.0,0.0,0.0,0.0,0.0,0.0,0.0,0.0,0.0,0.0,0.0,0.0,0.0,0.0,0.0,0.0,0.0,0.0,0.0,0.0,0.0,0.0,0.0,0.0,0.0,0.0,0.0,0.0,0.0,0.0,0.0,0.0,0.0,0.0,0.0,0.0,0.0,0.0,0.0,0.0,0.0,0.0,0.0,0.0,0.0,0.0,0.0,0.0,0.0,0.0,0.0,0.0,0.0,0.0,0.0,0.0,0.0,0.0,0.0,0.0,0.0,0.0,0.0,0.0,0.0,0.0,0.0,0.0,0.0,0.0,0.0,0.0,0.0,0.0,0.0,0.0,0.0,0.0,0.0,0.0,0.0,0.0,0.0,0.0,0.0,0.0,0.0,0.0,0.0,0.0,0.0,0.0,0.0,0.0,0.0,0.0,0.0,0.0,0.0,0.0,0.0,0.0,0.0,0.0,0.0,0.0,0.0,0.0,0.0,0.0,0.0,0.0,0.0,0.0,0.0,0.0,0.0,0.0,0.0,0.0,0.0,0.0,0.0,0.0,0.0,0.0,0.0,0.0,0.0,0.0,0.0,0.0,0.0,0.0,0.0,0.0,0.0,0.0,0.0,0.0,0.0,0.0,0.0,0.0,0.0,0.0,0.0,0.0,0.0,0.0,0.0,0.0,0.0,0.0,0.0,0.0,0.0,0.0,0.0,0.0,0.0,0.0,0.0,0.0,0.0,0.0,0.0,0.0,0.0,0.0,0.0,0.0,0.0,0.0,0.0,0.0,0.0,0.0,0.0,0.0,0.0,0.0,0.0,0.0,0.0,0.0,0.0,0.0,0.0,0.0,0.0,0.0,0.0,0.0,0.0,0.0,0.0,0.0,0.0,0.0,0.0,0.0,0.0,0.0,0.0,0.0,0.0,0.0,0.0,0.0,0.0,0.0,0.0,0.0,0.0,0.0,0.0,0.0,0.0,0.0,0.0,0.0,0.0,0.0,0.0,0.0,0.0,0.0,0.0,0.0,0.0,0.0,0.0,0.0,0.0,0.0,0.0,0.0,0.0,0.0,0.0,0.0,0.0,0.0,0.0,0.0,0.0,0.0,0.0,0.0,0.0,0.0,0.0,0.0,0.0,0.0,0.0,0.0,0.0,0.0,0.0,0.0,0.0,0.0,0.0,0.0,0.0,0.0,0.0,0.0,0.0,0.0,0.0,0.0,0.0,0.0,0.0,0.0,0.0,0.0,0.0,0.0,0.0,0.0,0.0,0.0,0.0,0.0,0.0,0.0,0.0,0.0,0.0,0.0,0.0,0.0,0.0,0.0,0.0,0.0,0.0,0.0,0.0,0.0,0.0,0.0,0.0,0.0,0.0,0.0,0.0,0.0,0.0,0.0,0.0,0.0,0.0,0.0,0.0,0.0,0.0,0.0,0.0,0.0,0.0,0.0,0.0,0.0,0.0,0.0,0.0,0.0,0.0,0.0,0.0,0.0,0.0,0.0,0.0,0.0,0.0,0.0,0.0,0.0,0.0,0.0,0.0,0.0,0.0,0.0,0.0,0.0,0.0,0.0,0.0,0.0,0.0,0.0,0.0,0.0,0.0,0.0,0.0,0.0,0.0,0.0,0.0,0.0,0.0,0.0,0.0,0.0,0.0,0.0,0.0,0.0,0.0,0.0,0.0,0.0,0.0,0.0,0.0,0.0,0.0,0.0,0.0,0.0,0.0,0.0,0.0,0.0,0.0,0.0,0.0,0.0,0.0,0.0,0.0,0.0,0.0,0.0,0.0,0.0,0.0,0.0,0.0,0.0,0.0,0.0,0.0,0.0,0.0,0.0,0.0,0.0,0.0,0.0,0.0,0.0,0.0,0.0,0.0,0.0,0.0,0.0,0.0,0.0,0.0,0.0,0.0,0.0,0.0,0.0,0.0,0.0,0.0,0.0,0.0,0.0,0.0,0.0,0.0,0.0,0.0,0.0,0.0,0.0,0.0,0.0,0.0,0.0,0.0,0.0,0.0,0.0,0.0,0.0,0.0,0.0,0.0,0.0,0.0,0.0,0.0,0.0,0.0,0.0,0.0,0.0,0.0,0.0,0.0,0.0,0.0,0.0,0.0,0.0,0.0,0.0,0.0,0.0,0.0,0.0,0.0,0.0,0.0,0.0,0.0,0.0,0.0,0.0,0.0,0.0,0.0,0.0,0.0,0.0,0.0,0.0,0.0,0.0,0.0,0.0,0.0,0.0,0.0,0.0,0.0,0.0,0.0,0.0,0.0,0.0,0.0,0.0,0.0,0.0,0.0,0.0,0.0,0.0,0.0,0.0,0.0,0.0,0.0,0.0,0.0,0.0,0.0,0.0,0.0,0.0,0.0,0.0,0.0,0.0,0.0,0.0,0.0,0.0,0.0,0.0,0.0,0.0,0.0,0.0,0.0,0.0,0.0,0.0,0.0,0.0,0.0,0.0,0.0,0.0,0.0,0.0,0.0,0.0,0.0,0.0,0.0,0.0,0.0,0.0,0.0,0.0,0.0,0.0,0.0,0.0,0.0,0.0,0.0,0.0,0.0,0.0,0.0,0.0,0.0,0.0,0.0,0.0,0.0,0.0,0.0,0.0,0.0,0.0,0.0,0.0,0.0,0.0,0.0,0.0,0.0,0.0,0.0,0.0,0.0,0.0,0.0,0.0,0.0,0.0,0.0,0.0,0.0,0.0,0.0,0.0,0.0,0.0,0.0,0.0,0.0,0.0,0.0,0.0,0.0,0.0,0.0,0.0,0.0,0.0,0.0,0.0,0.0,0.0,0.0,0.0,0.0,0.0,0.0,0.0,0.0,0.0,0.0,0.0,0.0,0.0,0.0,0.0,0.0,0.0,0.0,0.0,0.0,0.0,0.0,0.0,0.0,0.0,0.0,0.0,0.0,0.0,0.0,0.0,0.0,0.0,0.0,0.0,0.0,0.0,0.0,0.0,0.0,0.0,0.0,0.0,0.0,0.0,0.0,0.0,0.0,0.0,0.0,0.0,0.0,0.0,0.0,0.0,0.0,0.0,0.0,0.0,0.0,0.0,0.0,0.0,0.0,0.0,0.0,0.0,0.0,0.0,0.0,0.0,0.0,0.0,0.0,0.0,0.0,0.0,0.0,0.0,0.0,0.0,0.0,0.0,0.0,0.0,0.0,0.0,0.0,0.0,0.0,0.0,0.0,0.0,0.0,0.0,0.0,0.0,0.0,0.0,0.0,0.0,0.0,0.0,0.0,0.0,0.0,0.0,0.0,0.0,0.0,0.0,0.0,0.0,0.0,0.0,0.0,0.0,0.0,0.0,0.0,0.0,0.0,0.0,0.0,0.0,0.0,0.0,0.0,0.0,0.0,0.0,0.0,0.0,0.0,0.0,0.0,0.0,0.0,0.0,0.0,0.0,0.0,0.0,0.0,0.0,0.0,0.0,0.0,0.0,0.0,0.0,0.0,0.0,0.0,0.0,0.0,0.0,0.0,0.0,0.0,0.0,0.0,0.0,0.0,0.0,0.0,0.0,0.0,0.0,0.0,0.0,0.0,0.0,0.0,0.0,0.0,0.0,0.0,0.0,0.0,0.0,0.0,0.0,0.0,0.0,0.0,0.0,0.0,0.0,0.0,0.0,0.0,0.0,0.0,0.0,0.0,0.0,0.0,0.0,0.0,0.0,0.0,0.0,0.0,0.0,0.0,0.0,0.0,0.0,0.0,0.0,0.0,0.0,0.0,0.0,0.0,0.0,0.0,0.0,0.0,0.0,0.0,0.0,0.0,0.0,0.0,0.0,0.0,0.0,0.0,0.0,0.0,0.0,0.0,0.0,0.0,0.0,0.0,0.0,0.0,-0.3134,0.0,0.0,0.0,0.0,0.0,0.0,0.0,0.0,0.0,0.0,0.0,0.0,0.0,0.0,0.0,0.0,0.0,0.0,0.0,0.0,0.0,0.0,0.0,0.0,0.0,0.0,0.0,0.0,0.0,0.0,0.0,0.0,0.0,0.0,0.0,0.0,0.0,0.0,0.0,0.0,0.0,0.0,0.0,0.0,0.0,0.0,0.0,0.0,0.0,0.0,0.0,0.0,0.0,0.0,0.0,0.0,0.0,0.0,0.0,0.0,0.0,0.0,0.0,0.0,0.0,0.0,0.0,0.0,0.0,0.0,0.0,0.0,0.0,0.0,0.0,0.0,0.0,0.0,0.0,0.0,0.0,0.0,0.0,0.0,0.0,0.0,0.0,0.0,0.0,0.0,0.0,0.0,0.0,0.0,0.0,0.0,0.0,0.0,0.0,0.0,0.0,0.0,0.0,0.0,0.0,0.0,0.0,0.0,0.0,0.0,-0.516,-0.4489,-0.4109,-0.3791,-0.3544,0.0,0.0,0.0,0.0,0.0,0.0,0.0,0.0,0.0,0.0,0.0,0.0,0.0,0.0,0.0,0.0,0.0,0.0,0.0,0.0,0.0,0.0,0.0,0.0,0.0,0.0,0.0,0.0,0.0,0.0,0.0,0.0,0.0,0.0,0.0,0.0,0.0,0.0,0.0,0.0,0.0,0.0,0.0,0.0,0.0,0.0,0.0,0.0,0.0,0.0,0.0,0.0,0.0,0.0,0.0,0.0,0.0,0.0,0.0,0.0,0.0,0.0,0.0,0.0,0.0,0.0,0.0,0.0,0.0,0.0,0.0,0.0,0.0,0.0,0.0,0.0,0.0,0.0,0.0,0.0,0.0,0.0,0.0,0.0,0.0,0.0,0.0,0.0,0.0,0.0,0.0,0.0,0.0,0.0,0.0,0.0,0.0,0.0,0.0,0.0,0.0,0.0,0.0,0.0,0.0,0.0,0.0,0.0,0.0,0.0,0.0,0.0,-0.409,-0.3647,-0.3416,0.0,0.0,0.0,0.0,0.0,0.0,0.0,0.0,0.0,0.0,0.0,0.0,0.0,0.0,0.0,0.0,0.0,0.0,0.0,0.0,0.0,0.0,0.0,0.0,0.0,0.0,0.0,0.0,0.0,0.0,0.0,0.0,0.0,0.0,0.0,0.0,0.0,0.0,0.0,0.0,0.0,0.0,0.0,0.0,0.0,0.0,0.0,0.0,0.0,0.0,0.0,0.0,0.0,0.0,0.0,0.0,0.0,0.0,0.0,0.0,0.0,0.0,0.0,0.0,0.0,0.0,0.0,0.0,0.0,0.0,0.0,0.0,0.0,0.0,0.0,0.0,0.0,0.0,0.0,0.0,0.0,0.0,0.0,0.0,0.0,0.0,0.0,0.0,0.0,0.0,0.0,0.0,0.0,0.0,0.0,0.0,0.0,0.0,0.0,0.0,0.0,0.0,0.0,0.0,0.0,0.0,0.0,0.0,0.0,0.0,-0.516,-0.4622,-0.409,0.0,-0.2445,0.0,0.0,0.0,0.0,0.0,0.0,0.0,0.0,0.0,0.0,0.0,0.0,0.0,0.0,0.0,0.0,0.0,0.0,0.0,0.0,0.0,0.0,0.0,0.0,0.0,0.0,0.0,0.0,0.0,0.0,0.0,0.0,0.0,0.0,0.0,0.0,0.0,0.0,0.0,0.0,0.0,0.0,0.0,0.0,0.0,0.0,0.0,0.0,0.0,0.0,0.0,0.0,0.0,0.0,0.0,0.0,0.0,0.0,0.0,0.0,0.0,0.0,0.0,0.0,0.0,0.0,0.0,0.0,0.0,0.0,0.0,0.0,0.0,0.0,0.0,0.0,0.0,0.0,0.0,0.0,0.0,0.0,0.0,0.0,0.0,0.0,0.0,0.0,0.0,0.0,0.0,0.0,0.0,0.0,0.0,0.0,0.0,0.0,0.0,0.0,0.0,0.0,0.0,0.0,0.0,0.0,0.0,0.0,0.0,0.0,-0.5292,-0.4694,-0.3894,-0.3272,0.0,0.0,0.0,0.0,0.0,0.0,0.0,0.0,0.0,0.0,0.0,0.0,0.0,0.0,0.0,0.0,0.0,0.0,0.0,0.0,0.0,0.0,0.0,0.0,0.0,0.0,0.0,0.0,0.0,0.0,0.0,0.0,0.0,0.0,0.0,0.0,0.0,0.0,0.0,0.0,0.0,0.0,0.0,0.0,0.0,0.0,0.0,0.0,0.0,0.0,0.0,0.0,0.0,0.0,0.0,0.0,0.0,0.0,0.0,0.0,0.0,0.0,0.0,0.0,0.0,0.0,0.0,0.0,0.0,0.0,0.0,0.0,0.0,0.0,0.0,0.0,0.0,0.0,0.0,0.0,0.0,0.0,0.0,0.0,0.0,0.0,0.0,0.0,0.0,0.0,0.0,0.0,0.0,0.0,0.0,0.0,0.0,0.0,0.0,0.0,0.0,0.0,0.0,0.0,0.0,0.0,0.0,0.0,0.0,0.0,-0.6125,-0.548,-0.4681,-0.3804,-0.3318,-0.323,0.0,0.0,0.0,0.0,0.0,0.0,0.0,0.0,0.0,0.0,0.0,0.0,0.0,0.0,0.0,0.0,0.0,0.0,0.0,0.0,0.0,0.0,0.0,0.0,0.0,0.0,0.0,0.0,0.0,0.0,0.0,0.0,0.0,0.0,0.0,0.0,0.0,0.0,0.0,0.0,0.0,0.0,0.0,0.0,0.0,0.0,0.0,0.0,0.0,0.0,0.0,0.0,0.0,0.0,0.0,0.0,0.0,0.0,0.0,0.0,0.0,0.0,0.0,0.0,0.0,0.0,0.0,0.0,0.0,0.0,0.0,0.0,0.0,0.0,0.0,0.0,0.0,0.0,0.0,0.0,0.0,0.0,0.0,0.0,0.0,0.0,0.0,0.0,0.0,0.0,0.0,0.0,0.0,0.0,0.0,0.0,0.0,0.0,0.0,0.0,0.0,0.0,0.0,0.0,0.0,0.0,0.0,0.0,-0.6745,-0.6376,-0.5631,-0.4389,-0.3978,-0.3586,0.0,0.0,0.0,0.0,0.0,0.0,0.0,0.0,0.0,0.0,0.0,0.0,0.0,0.0,0.0,0.0,0.0,0.0,0.0,0.0,0.0,0.0,0.0,0.0,0.0,0.0,0.0,0.0,0.0,0.0,0.0,0.0,0.0,0.0,0.0,0.0,0.0,0.0,0.0,0.0,0.0,0.0,0.0,0.0,0.0,0.0,0.0,0.0,0.0,0.0,0.0,0.0,0.0,0.0,0.0,0.0,0.0,0.0,0.0,0.0,0.0,0.0,0.0,0.0,0.0,0.0,0.0,0.0,0.0,0.0,0.0,0.0,0.0,0.0,0.0,0.0,0.0,0.0,0.0,0.0,0.0,0.0,0.0,0.0,0.0,0.0,0.0,0.0,0.0,0.0,0.0,0.0,0.0,0.0,0.0,0.0,0.0,0.0,0.0,0.0,0.0,0.0,0.0,0.0,0.0,0.0,0.0,0.0,0.0,-0.7203,-0.641,-0.5654,-0.4873,-0.4377,-0.383,0.0,0.0,0.0,0.0,0.0,0.0,0.0,0.0,0.0,0.0,0.0,0.0,0.0,0.0,0.0,0.0,0.0,0.0,0.0,0.0,0.0,0.0,0.0,0.0,0.0,0.0,0.0,0.0,0.0,0.0,0.0,0.0,0.0,0.0,0.0,0.0,0.0,0.0,0.0,0.0,0.0,0.0,0.0,0.0,0.0,0.0,0.0,0.0,0.0,0.0,0.0,0.0,0.0,0.0,0.0,0.0,0.0,0.0,0.0,0.0,0.0,0.0,0.0,0.0,0.0,0.0,0.0,0.0,0.0,0.0,0.0,0.0,0.0,0.0,0.0,0.0,0.0,0.0,0.0,0.0,0.0,0.0,0.0,0.0,0.0,0.0,0.0,0.0,0.0,0.0,0.0,0.0,0.0,0.0,0.0,0.0,0.0,0.0,0.0,0.0,0.0,0.0,0.0,0.0,0.0,0.0,0.0,0.0,0.0,-0.722,0.0,-0.5644,-0.5358,-0.4792,-0.4113,0.0,0.0,0.0,0.0,0.0,0.0,0.0,0.0,0.0,0.0,0.0,0.0,0.0,0.0,0.0,0.0,0.0,0.0,0.0,0.0,0.0,0.0,0.0,0.0,0.0,0.0,0.0,0.0,0.0,0.0,0.0,0.0,0.0,0.0,0.0,0.0,0.0,0.0,0.0,0.0,0.0,0.0,0.0,0.0,0.0,0.0,0.0,0.0,0.0,0.0,0.0,0.0,0.0,0.0,0.0,0.0,0.0,0.0,0.0,0.0,0.0,0.0,0.0,0.0,0.0,0.0,0.0,0.0,0.0,0.0,0.0,0.0,0.0,0.0,0.0,0.0,0.0,0.0,0.0,0.0,0.0,0.0,0.0,0.0,0.0,0.0,0.0,0.0,0.0,0.0,0.0,0.0,0.0,0.0,0.0,0.0,0.0,0.0,0.0,0.0,0.0,0.0,0.0,0.0,0.0,0.0,0.0,0.0,-0.7904,-0.6689,-0.5994,-0.5669,-0.5594,-0.5162,-0.4451,0.0,0.0,0.0,0.0,0.0,0.0,0.0,0.0,0.0,0.0,0.0,0.0,0.0,0.0,0.0,0.0,0.0,0.0,0.0,0.0,0.0,0.0,0.0,0.0,0.0,0.0,0.0,0.0,0.0,0.0,0.0,0.0,0.0,0.0,0.0,0.0,0.0,0.0,0.0,0.0,0.0,0.0,0.0,0.0,0.0,0.0,0.0,0.0,0.0,0.0,0.0,0.0,0.0,0.0,0.0,0.0,0.0,0.0,0.0,0.0,0.0,0.0,0.0,0.0,0.0,0.0,0.0,0.0,0.0,0.0,0.0,0.0,0.0,0.0,0.0,0.0,0.0,0.0,0.0,0.0,0.0,0.0,0.0,0.0,0.0,0.0,0.0,0.0,0.0,0.0,0.0,0.0,0.0,0.0,0.0,0.0,0.0,0.0,0.0,0.0,0.0,0.0,0.0,0.0,0.0,0.0,0.0,0.0,0.0,-0.6619,-0.5911,-0.5513,-0.5352,-0.5002,-0.4428,0.0,0.0,0.0,0.0,0.0,0.0,0.0,0.0,0.0,0.0,0.0,0.0,0.0,0.0,0.0,0.0,0.0,0.0,0.0,0.0,0.0,0.0,0.0,0.0,0.0,0.0,0.0,0.0,0.0,0.0,0.0,0.0,0.0,0.0,0.0,0.0,0.0,0.0,0.0,0.0,0.0,0.0,0.0,0.0,0.0,0.0,0.0,0.0,0.0,0.0,0.0,0.0,0.0,0.0,0.0,0.0,0.0,0.0,0.0,0.0,0.0,0.0,0.0,0.0,0.0,0.0,0.0,0.0,0.0,0.0,0.0,0.0,0.0,0.0,0.0,0.0,0.0,0.0,0.0,0.0,0.0,0.0,0.0,0.0,0.0,0.0,0.0,0.0,0.0,0.0,0.0,0.0,0.0,0.0,0.0,0.0,0.0,0.0,0.0,0.0,0.0,0.0,0.0,0.0,0.0,0.0,0.0,0.0,0.0,-0.625,-0.5581,-0.5176,-0.5027,-0.4718,-0.4346,-0.4001,0.0,0.0,0.0,0.0,0.0,0.0,0.0,0.0,0.0,0.0,0.0,0.0,0.0,0.0,0.0,0.0,0.0,0.0,0.0,0.0,0.0,0.0,0.0,0.0,0.0,0.0,0.0,0.0,0.0,0.0,0.0,0.0,0.0,0.0,0.0,0.0,0.0,0.0,0.0,0.0,0.0,0.0,0.0,0.0,0.0,0.0,0.0,0.0,0.0,0.0,0.0,0.0,0.0,0.0,0.0,0.0,0.0,0.0,0.0,0.0,0.0,0.0,0.0,0.0,0.0,0.0,0.0,0.0,0.0,0.0,0.0,0.0,0.0,0.0,0.0,0.0,0.0,0.0,0.0,0.0,0.0,0.0,0.0,0.0,0.0,0.0,0.0,0.0,0.0,0.0,0.0,0.0,0.0,0.0,0.0,0.0,0.0,0.0,0.0,0.0,0.0,0.0,0.0,0.0,0.0,0.0,0.0,0.0,-0.57,-0.501,-0.4605,-0.4475,-0.4321,-0.4281,0.0,0.0,0.0,0.0,0.0,0.0,0.0,0.0,0.0,0.0,0.0,0.0,0.0,0.0,0.0,0.0,0.0,0.0,0.0,0.0,0.0,0.0,0.0,0.0,0.0,0.0,0.0,0.0,0.0,0.0,0.0,0.0,0.0,0.0,0.0,0.0,0.0,0.0,0.0,0.0,0.0,0.0,0.0,0.0,0.0,0.0,0.0,0.0,0.0,0.0,0.0,0.0,0.0,0.0,0.0,0.0,0.0,0.0,0.0,0.0,0.0,0.0,0.0,0.0,0.0,0.0,0.0,0.0,0.0,0.0,0.0,0.0,0.0,0.0,0.0,0.0,0.0,0.0,0.0,0.0,0.0,0.0,0.0,0.0,0.0,0.0,0.0,0.0,0.0,0.0,0.0,0.0,0.0,0.0,0.0,0.0,0.0,0.0,0.0,0.0,0.0,0.0,0.0,0.0,0.0,0.0,0.0,0.0,0.0,-0.5839,-0.437,-0.3669,-0.3636,-0.3613,-0.3629,0.0,0.0,0.0,0.0,0.0,0.0,0.0,0.0,0.0,0.0,0.0,0.0,0.0,0.0,0.0,0.0,0.0,0.0,0.0,0.0,0.0,0.0,0.0,0.0,0.0,0.0,0.0,0.0,0.0,0.0,0.0,0.0,0.0,0.0,0.0,0.0,0.0,0.0,0.0,0.0,0.0,0.0,0.0,0.0,0.0,0.0,0.0,0.0,0.0,0.0,0.0,0.0,0.0,0.0,0.0,0.0,0.0,0.0,0.0,0.0,0.0,0.0,0.0,0.0,0.0,0.0,0.0,0.0,0.0,0.0,0.0,0.0,0.0,0.0,0.0,0.0,0.0,0.0,0.0,0.0,0.0,0.0,0.0,0.0,0.0,0.0,0.0,0.0,0.0,0.0,0.0,0.0,0.0,0.0,0.0,0.0,0.0,0.0,0.0,0.0,0.0,0.0,0.0,0.0,0.0,0.0,0.0,0.0,-0.5627,-0.5319,-0.3811,-0.3006,-0.2855,-0.2795,-0.293,0.0,0.0,0.0,0.0,0.0,0.0,0.0,0.0,0.0,0.0,0.0,0.0,0.0,0.0,0.0,0.0,0.0,0.0,0.0,0.0,0.0,0.0,0.0,0.0,0.0,0.0,0.0,0.0,0.0,0.0,0.0,0.0,0.0,0.0,0.0,0.0,0.0,0.0,0.0,0.0,0.0,0.0,0.0,0.0,0.0,0.0,0.0,0.0,0.0,0.0,0.0,0.0,0.0,0.0,0.0,0.0,0.0,0.0,0.0,0.0,0.0,0.0,0.0,0.0,0.0,0.0,0.0,0.0,0.0,0.0,0.0,0.0,0.0,0.0,0.0,0.0,0.0,0.0,0.0,0.0,0.0,0.0,0.0,0.0,0.0,0.0,0.0,0.0,0.0,0.0,0.0,0.0,0.0,0.0,0.0,0.0,0.0,0.0,0.0,0.0,0.0,0.0,0.0,0.0,0.0,0.0,0.0,0.0,-0.5273,-0.4493,-0.3312,-0.2537,-0.2249,-0.2053,-0.2343,0.0,0.0,0.0,0.0,0.0,0.0,0.0,0.0,0.0,0.0,0.0,0.0,0.0,0.0,0.0,0.0,0.0,0.0,0.0,0.0,0.0,0.0,0.0,0.0,0.0,0.0,0.0,0.0,0.0,0.0,0.0,0.0,0.0,0.0,0.0,0.0,0.0,0.0,0.0,0.0,0.0,0.0,0.0,0.0,0.0,0.0,0.0,0.0,0.0,0.0,0.0,0.0,0.0,0.0,0.0,0.0,0.0,0.0,0.0,0.0,0.0,0.0,0.0,0.0,0.0,0.0,0.0,0.0,0.0,0.0,0.0,0.0,0.0,0.0,0.0,0.0,0.0,0.0,0.0,0.0,0.0,0.0,0.0,0.0,0.0,0.0,0.0,0.0,0.0,0.0,0.0,0.0,0.0,0.0,0.0,0.0,0.0,0.0,0.0,0.0,0.0,0.0,0.0,0.0,0.0,0.0,0.0,0.0,-0.5189,-0.5583,-0.2837,-0.1737,-0.2171,-0.2133,-0.2089,0.0,0.0,0.0,0.0,0.0,0.0,0.0,0.0,0.0,0.0,0.0,0.0,0.0,0.0,0.0,0.0,0.0,0.0,0.0,0.0,0.0,0.0,0.0,0.0,0.0,0.0,0.0,0.0,0.0,0.0,0.0,0.0,0.0,0.0,0.0,0.0,0.0,0.0,0.0,0.0,0.0,0.0,0.0,0.0,0.0,0.0,0.0,0.0,-0.2044,0.0,0.0,0.0,0.0,0.0,0.0,0.0,0.0,0.0,0.0,0.0,0.0,0.0,0.0,0.0,0.0,0.0,0.0,0.0,0.0,0.0,0.0,0.0,0.0,0.0,0.0,0.0,0.0,0.0,0.0,0.0,0.0,0.0,0.0,0.0,0.0,0.0,0.0,0.0,0.0,0.0,0.0,0.0,0.0,0.0,0.0,0.0,0.0,0.0,0.0,0.0,0.0,0.0,0.0,0.0,0.0,0.0,0.0,0.0,-0.4762,-0.4532,-0.2736,-0.1473,-0.1176,-0.1104,-0.1414,0.0,0.0,0.0,0.0,0.0,0.0,0.0,0.0,0.0,0.0,0.0,0.0,0.0,0.0,0.0,0.0,0.0,0.0,0.0,0.0,0.0,0.0,0.0,0.0,0.0,0.0,0.0,0.0,0.0,0.0,0.0,0.0,0.0,0.0,0.0,0.0,0.0,0.0,0.0,0.0,0.0,0.0,0.0,0.0,0.0,0.0,0.0,0.0,0.0,0.0,0.0,0.0,0.0,0.0,0.0,0.0,0.0,0.0,0.0,0.0,0.0,0.0,0.0,0.0,0.0,0.0,0.0,0.0,0.0,0.0,0.0,0.0,0.0,0.0,0.0,0.0,0.0,0.0,0.0,0.0,0.0,0.0,0.0,0.0,0.0,0.0,0.0,0.0,0.0,0.0,0.0,0.0,0.0,0.0,0.0,0.0,0.0,0.0,0.0,0.0,0.0,0.0,0.0,0.0,0.0,0.0,0.0,-0.4554,-0.4039,-0.2619,-0.2467,-0.1487,0.0,0.0,-0.0532,-0.1606,0.0,0.0,0.0,0.0,0.0,0.0,0.0,0.0,0.0,0.0,0.0,0.0,0.0,0.0,0.0,0.0,0.0,0.0,0.0,0.0,0.0,0.0,0.0,0.0,0.0,0.0,0.0,0.0,0.0,0.0,0.0,0.0,0.0,0.0,0.0,0.0,0.0,0.0,-0.5507,-0.5716,0.0,0.0,0.0,0.0,0.0,0.0,0.0,0.0,-0.2233,0.0,0.0,0.0,0.0,0.0,0.0,0.0,0.0,0.0,0.0,0.0,0.0,0.0,0.0,0.0,0.0,0.0,0.0,0.0,0.0,0.0,0.0,0.0,0.0,0.0,0.0,0.0,0.0,0.0,0.0,0.0,0.0,0.0,0.0,0.0,0.0,0.0,0.0,0.0,0.0,0.0,0.0,0.0,0.0,0.0,0.0,0.0,0.0,0.0,0.0,0.0,0.0,0.0,0.0,0.0,0.0,-0.2654,-0.3796,-0.3171,-0.0559,-0.1749,-0.1628,0.0,0.0,-0.0133,-0.0371,0.0,0.0,0.0,0.0,0.0,0.0,0.0,0.0,0.0,0.0,0.0,0.0,0.0,0.0,0.0,0.0,0.0,0.0,0.0,0.0,0.0,0.0,0.0,0.0,0.0,0.0,0.0,0.0,0.0,0.0,0.0,0.0,0.0,0.0,0.0,0.0,0.0,0.0,0.0,-0.6225,-0.6223,0.0,0.0,0.0,0.0,0.0,0.0,0.0,0.0,-0.2028,0.0,0.0,0.0,0.0,0.0,0.0,0.0,0.0,0.0,0.0,0.0,0.0,0.0,0.0,0.0,0.0,0.0,0.0,0.0,0.0,0.0,0.0,0.0,0.0,0.0,0.0,0.0,0.0,0.0,0.0,0.0,0.0,0.0,0.0,0.0,0.0,0.0,0.0,0.0,0.0,0.0,0.0,0.0,0.0,0.0,0.0,0.0,0.0,0.0,0.0,0.0,0.0,0.0,0.0,0.0,-0.2756,-0.414,-0.353,-0.0686,-0.0857,-0.0727,0.0,0.0,0.0,0.0,0.0,0.0,0.0,0.0,0.0,0.0,0.0,0.0,0.0,0.0,0.0,0.0,0.0,0.0,0.0,0.0,0.0,0.0,0.0,0.0,0.0,0.0,0.0,0.0,0.0,0.0,0.0,0.0,0.0,0.0,0.0,0.0,0.0,0.0,0.0,0.0,0.0,0.0,0.0,-0.6466,-0.648,-0.6532,0.0,0.0,0.0,0.0,0.0,0.0,-0.2882,-0.2086,0.0,0.0,0.0,0.0,0.0,0.0,0.0,0.0,0.0,0.0,0.0,0.0,0.0,0.0,0.0,0.0,0.0,0.0,0.0,0.0,0.0,0.0,0.0,0.0,0.0,0.0,0.0,0.0,0.0,0.0,0.0,0.0,0.0,0.0,0.0,0.0,0.0,0.0,0.0,0.0,0.0,0.0,0.0,0.0,0.0,0.0,0.0,0.0,0.0,0.0,0.0,0.0,0.0,0.0,0.0,-0.3083,-0.4352,-0.3871,-0.1346,-0.0419,0.0,0.0,0.0,0.0,0.0,0.0,0.0,0.0,0.0,0.0,0.0,0.0,0.0,0.0,0.0,0.0,0.0,0.0,0.0,0.0,0.0,0.0,0.0,0.0,0.0,0.0,0.0,0.0,0.0,0.0,0.0,0.0,0.0,0.0,0.0,0.0,0.0,0.0,0.0,0.0,0.0,0.0,0.0,0.0,0.0,-0.6907,-0.6846,-0.6554,0.0,0.0,0.0,0.0,-0.3908,-0.3086,0.0,0.0,0.0,0.0,0.0,0.0,0.0,0.0,0.0,0.0,0.0,0.0,0.0,0.0,0.0,0.0,0.0,0.0,0.0,0.0,0.0,0.0,0.0,0.0,0.0,0.0,0.0,0.0,0.0,0.0,0.0,0.0,0.0,0.0,0.0,0.0,0.0,0.0,0.0,0.0,0.0,0.0,0.0,0.0,0.0,0.0,0.0,0.0,0.0,0.0,0.0,0.0,0.0,0.0,0.0,0.0,-0.3643,-0.3664,-0.3226,-0.2017,-0.0693,0.0,0.0,0.0,0.0,0.0,0.0,0.0,0.0,0.0,0.0,0.0,0.0,0.0,0.0,0.0,0.0,0.0,0.0,0.0,0.0,0.0,0.0,0.0,0.0,0.0,0.0,0.0,0.0,0.0,0.0,0.0,0.0,0.0,0.0,0.0,0.0,0.0,0.0,0.0,0.0,0.0,0.0,0.0,0.0,0.0,-0.7422,-0.7059,-0.6358,-0.5921,0.0,0.0,-0.4479,-0.4192,-0.3285,0.0,0.0,0.0,0.0,0.0,0.0,0.0,0.0,0.0,0.0,0.0,0.0,0.0,0.0,0.0,0.0,0.0,0.0,0.0,0.0,0.0,0.0,0.0,0.0,0.0,0.0,0.0,0.0,0.0,0.0,0.0,0.0,0.0,0.0,0.0,0.0,0.0,0.0,0.0,0.0,0.0,0.0,0.0,0.0,0.0,0.0,0.0,0.0,0.0,0.0,0.0,0.0,0.0,0.0,0.0,-0.4523,-0.2598,-0.193,-0.1782,-0.1994,-0.0683,0.0,0.0,0.0,0.0,0.0,0.0,0.0,0.0,0.0,0.0,0.0,0.0,0.0,0.0,0.0,0.0,0.0,0.0,0.0,0.0,0.0,0.0,0.0,0.0,0.0,0.0,0.0,0.0,0.0,0.0,0.0,0.0,0.0,0.0,0.0,0.0,0.0,0.0,0.0,0.0,0.0,0.0,0.0,0.0,0.0,0.0,-0.6701,-0.6393,0.0,0.0,0.0,-0.4535,-0.4491,0.0,0.0,0.0,0.0,0.0,0.0,0.0,0.0,0.0,0.0,0.0,0.0,0.0,0.0,0.0,0.0,0.0,0.0,0.0,0.0,0.0,0.0,0.0,0.0,0.0,0.0,0.0,0.0,0.0,0.0,0.0,0.0,0.0,0.0,0.0,0.0,0.0,0.0,0.0,0.0,0.0,0.0,0.0,0.0,0.0,0.0,0.0,0.0,0.0,0.0,0.0,0.0,0.0,0.0,0.0,0.0,0.0,-0.179,-0.0597,-0.0503,-0.1442,-0.0539,0.0,0.0,0.0,0.0,0.0,0.0,0.0,0.0,0.0,0.0,0.0,0.0,0.0,0.0,0.0,0.0,0.0,0.0,0.0,0.0,0.0,0.0,0.0,0.0,0.0,0.0,0.0,0.0,0.0,0.0,-0.5277,0.0,0.0,0.0,0.0,0.0,0.0,0.0,0.0,0.0,0.0,0.0,0.0,0.0,0.0,-0.627,-0.6236,-0.6171,-0.5938,0.0,0.0,-0.4432,-0.4561,-0.3379,-0.2266,0.0,0.0,0.0,0.0,0.0,0.0,0.0,0.0,0.0,0.0,0.0,0.0,0.0,0.0,0.0,0.0,0.0,0.0,0.0,0.0,0.0,0.0,0.0,0.0,0.0,0.0,0.0,0.0,0.0,0.0,0.0,0.0,0.0,0.0,0.0,0.0,0.0,0.0,0.0,0.0,0.0,0.0,0.0,0.0,0.0,0.0,0.0,0.0,0.0,0.0,0.0,0.0,0.0,0.0,-0.3855,-0.179,-0.0598,0.0,0.0,-0.0,0.0,0.0,0.0,-0.0481,0.0,0.0,0.0,0.0,0.0,0.0,0.0,0.0,0.0,0.0,0.0,0.0,0.0,0.0,0.0,0.0,0.0,0.0,0.0,0.0,0.0,0.0,0.0,0.0,0.0,0.0,0.0,0.0,0.0,0.0,0.0,0.0,0.0,0.0,0.0,0.0,0.0,0.0,0.0,0.0,0.0,-0.5913,-0.5696,-0.5391,-0.509,0.0,-0.4386,-0.4019,-0.4022,-0.3231,-0.2425,-0.1967,0.0,0.0,0.0,0.0,0.0,0.0,0.0,0.0,0.0,0.0,0.0,0.0,0.0,0.0,0.0,0.0,0.0,0.0,0.0,0.0,0.0,0.0,0.0,0.0,0.0,0.0,0.0,0.0,0.0,0.0,0.0,0.0,0.0,0.0,0.0,0.0,0.0,0.0,0.0,0.0,0.0,0.0,0.0,0.0,0.0,0.0,0.0,0.0,0.0,0.0,0.0,0.0,0.0,-0.3761,-0.1793,-0.0598,0.0,0.0,0.0,0.0,0.0,0.0,-0.048,0.0,0.0,0.0,0.0,0.0,0.0,0.0,0.0,0.0,0.0,0.0,0.0,0.0,0.0,0.0,0.0,0.0,0.0,0.0,0.0,0.0,0.0,0.0,0.0,0.0,0.0,0.0,0.0,-0.3365,-0.3178,-0.3111,0.0,0.0,0.0,0.0,0.0,0.0,0.0,0.0,0.0,0.0,-0.4531,-0.4737,-0.4345,0.0,0.0,-0.3865,-0.3737,-0.3925,-0.2658,-0.1743,-0.1885,-0.2148,0.0,0.0,0.0,0.0,0.0,0.0,0.0,0.0,0.0,0.0,0.0,0.0,0.0,0.0,0.0,0.0,0.0,0.0,0.0,0.0,0.0,0.0,0.0,0.0,0.0,0.0,0.0,0.0,0.0,0.0,0.0,0.0,0.0,0.0,0.0,0.0,0.0,0.0,0.0,0.0,0.0,0.0,0.0,0.0,0.0,0.0,0.0,0.0,0.0,0.0,0.0,0.0,-0.3493,-0.1806,-0.0602,0.0,0.0,0.0,0.0,0.0,0.0,-0.048,0.0,0.0,0.0,0.0,0.0,0.0,0.0,0.0,0.0,0.0,0.0,0.0,0.0,0.0,0.0,0.0,0.0,0.0,0.0,0.0,0.0,0.0,0.0,0.0,0.0,0.0,0.0,0.0,-0.2983,-0.2924,-0.3165,0.0,0.0,0.0,0.0,0.0,0.0,0.0,0.0,0.0,0.0,-0.3683,-0.3976,-0.3563,-0.3364,-0.3653,-0.3284,-0.3138,-0.332,-0.2044,-0.1258,-0.1546,0.0,0.0,0.0,0.0,0.0,0.0,0.0,0.0,0.0,0.0,0.0,0.0,0.0,0.0,0.0,0.0,0.0,0.0,0.0,0.0,0.0,0.0,0.0,0.0,0.0,0.0,0.0,-0.4101,0.0,0.0,-0.602,0.0,0.0,0.0,0.0,0.0,0.0,0.0,0.0,0.0,0.0,0.0,0.0,0.0,0.0,0.0,0.0,0.0,0.0,0.0,0.0,0.0,0.0,-0.283,-0.1836,-0.0611,0.0,0.0,0.0,0.0,0.0,0.0,-0.048,-0.1347,0.0,0.0,0.0,0.0,0.0,0.0,0.0,0.0,0.0,0.0,0.0,0.0,0.0,0.0,0.0,0.0,0.0,0.0,0.0,0.0,0.0,0.0,0.0,0.0,0.0,0.0,-0.2924,-0.2769,-0.2804,0.0,0.0,0.0,0.0,0.0,0.0,0.0,0.0,0.0,0.0,-0.3939,-0.3551,-0.3443,-0.3224,-0.3128,-0.3212,-0.2658,-0.2231,-0.2199,-0.1531,-0.0996,0.0,0.0,0.0,0.0,0.0,0.0,0.0,0.0,0.0,0.0,0.0,0.0,0.0,0.0,0.0,0.0,0.0,0.0,0.0,0.0,0.0,0.0,0.0,0.0,0.0,0.0,0.0,-0.291,-0.3095,0.0,0.0,0.0,0.0,0.0,0.0,0.0,0.0,0.0,0.0,0.0,-0.5037,-0.4936,0.0,0.0,0.0,0.0,0.0,0.0,0.0,0.0,0.0,0.0,0.0,0.0,-0.2964,-0.1984,-0.0615,0.0,0.0,0.0,0.0,0.0,0.0,-0.0118,-0.0428,0.0,0.0,0.0,0.0,0.0,0.0,0.0,0.0,0.0,0.0,0.0,0.0,0.0,0.0,0.0,0.0,0.0,0.0,0.0,0.0,0.0,0.0,0.0,0.0,0.0,-0.2684,0.0,0.0,0.0,0.0,0.0,0.0,0.0,0.0,0.0,0.0,0.0,-0.5085,-0.4474,-0.3835,-0.3259,-0.3034,-0.2692,-0.246,0.0,0.0,0.0,0.0,0.0,0.0,0.0,0.0,0.0,0.0,0.0,0.0,0.0,0.0,-0.7808,-0.8224,-0.8533,-0.874,-0.9376,0.0,0.0,0.0,0.0,0.0,0.0,0.0,0.0,0.0,0.0,0.0,0.0,0.0,0.0,-0.1151,0.0,-0.2345,0.0,0.0,0.0,0.0,0.0,0.0,0.0,0.0,-0.2708,-0.3137,-0.3453,-0.3346,-0.3975,0.0,-0.4314,-0.415,0.0,0.0,0.0,0.0,0.0,0.0,0.0,0.0,-0.2684,-0.2019,-0.0622,0.0,0.0,0.0,0.0,0.0,0.0,0.0,0.0,-0.0614,-0.108,0.0,0.0,0.0,0.0,0.0,0.0,0.0,0.0,0.0,0.0,0.0,0.0,0.0,0.0,0.0,0.0,0.0,0.0,0.0,0.0,0.0,0.0,0.0,-0.215,0.0,0.0,0.0,0.0,0.0,0.0,0.0,0.0,0.0,-0.5465,-0.5358,-0.4927,-0.4214,-0.3782,-0.3171,-0.2515,0.0,0.0,0.0,0.0,0.0,0.0,0.0,-0.0249,-0.1091,-0.1555,-0.2009,-0.2093,-0.3673,-0.5104,-0.6056,0.0,0.0,-0.7994,-0.8328,-0.8657,-0.9316,-0.9592,-0.9554,-0.8765,-0.9057,-0.9224,0.0,0.0,0.0,0.0,0.0,0.0,0.0,0.0,0.1563,0.1235,0.0,-0.0434,0.0,0.0,0.0,0.0,0.0,-0.1479,0.0,0.0,-0.0556,-0.1123,-0.1462,-0.1797,-0.2358,-0.3148,-0.3201,-0.2709,-0.1806,-0.4267,0.0,0.0,0.0,0.0,0.0,0.0,-0.1842,-0.1812,-0.0631,0.0,0.0,0.0,0.0,0.0,0.0,0.0,0.0,0.0,-0.0498,-0.1437,-0.1971,0.0,0.0,0.0,0.0,0.0,0.0,0.0,0.0,0.0,0.0,0.0,0.0,0.0,0.0,0.0,0.0,0.0,0.0,0.0,0.0,-0.211,0.0,0.0,0.0,0.0,0.0,0.0,0.0,0.0,0.0,0.0,-0.533,-0.506,-0.4564,-0.3662,0.0,0.0,0.0,0.0,-0.1524,0.0,0.0,0.0,0.0,0.0,0.0,0.0,0.0,0.0,-0.2487,-0.3423,-0.4483,-0.5773,-0.6049,-0.6532,-0.7491,-0.7994,-0.8536,-0.9317,-0.936,-0.896,-0.8103,-0.8351,-0.8357,0.7036,0.0,0.0,0.0,0.0,0.4826,0.4899,0.4358,0.4258,0.3756,0.287,0.2203,0.0,0.0,0.0,0.0,0.0,0.0,0.2281,0.1404,0.1059,0.0475,-0.036,-0.0356,-0.1063,-0.2127,-0.1839,-0.1583,-0.1686,-0.2397,-0.3451,-0.4678,0.0,0.0,0.0,0.0,-0.1412,-0.0622,-0.0255,0.0,0.0,0.0,0.0,0.0,0.0,0.0,0.0,0.0,-0.0105,-0.0399,-0.1286,0.0,0.0,0.0,0.0,0.0,0.0,0.0,0.0,0.0,0.0,0.0,0.0,0.0,0.0,0.0,0.0,0.0,0.0,0.0,-0.1287,-0.1475,-0.1567,0.0,0.0,0.0,0.0,0.0,0.0,0.0,0.0,0.0,-0.4293,-0.4269,-0.4055,0.0,0.0,-0.2431,-0.1488,-0.174,-0.15,-0.0254,0.0,0.0,0.0,0.0,0.0,0.0,-0.076,-0.1516,-0.2139,-0.2766,-0.3645,-0.4768,-0.5208,-0.5608,-0.6226,-0.7231,-0.7931,-0.8295,-0.7945,-0.7606,-0.7491,-0.738,-0.713,0.956,0.8038,0.7122,0.6553,0.6363,0.693,0.7014,0.6584,0.6198,0.5762,0.5045,0.4558,0.3714,0.2442,0.2515,0.0,0.0,0.0,0.4096,0.3554,0.3207,0.2362,0.1379,0.1119,0.0248,-0.0991,-0.0726,-0.0715,-0.0947,-0.1398,-0.2145,-0.3127,0.0,0.0,-0.1674,-0.1269,-0.0721,0.0,0.0,0.0,0.0,0.0,0.0,0.0,0.0,0.0,0.0,0.0,0.0,0.0,-0.0619,-0.1312,0.0,0.0,0.0,0.0,0.0,0.0,0.0,0.0,0.0,0.0,0.0,-0.3886,-0.3816,0.0,0.0,0.0,-0.214,-0.1506,-0.0476,-0.0954,0.0,0.0,0.0,0.0,0.0,0.0,0.0,-0.4062,-0.3739,-0.3648,-0.3715,-0.3553,-0.3269,-0.3005,-0.279,-0.2321,-0.148,0.0,-0.0875,0.0,0.0,0.0,0.0,0.0,0.0,0.0,-0.0387,-0.1032,-0.1935,-0.2452,-0.2966,-0.3732,-0.409,-0.4576,-0.5083,-0.5912,-0.6832,-0.7277,-0.6746,-0.6224,-0.6407,-0.6222,-0.6031,1.1495,1.1038,0.929,0.8497,0.8344,0.8349,0.8419,0.8381,0.7699,0.7374,0.7139,0.6774,0.5855,0.4947,0.5851,0.0,0.4122,0.5122,0.5831,0.6096,0.5404,0.4535,0.3243,0.259,0.1553,0.0129,0.0,0.0,0.0,-0.0978,-0.1446,-0.1424,-0.1612,-0.171,-0.1618,-0.0595,-0.0123,0.0,0.0,0.0,0.0,0.0,0.0,0.0,0.0,0.0,0.0,0.0,0.0,0.0,0.0,-0.0525,-0.1523,0.0,0.0,0.0,0.0,0.0,0.0,0.0,0.0,0.0,0.0,0.0,0.0,0.0,0.0,-0.2022,-0.1538,0.0,-0.0096,-0.0479,0.0,0.0,0.0,-0.2226,-0.2464,-0.2809,-0.3066,-0.3127,0.0,0.0,-0.3454,-0.2844,-0.2416,-0.2423,-0.2697,-0.2719,-0.2103,-0.0877,0.0,0.0,0.0,0.0,0.0,0.0,0.0,0.0,0.0,0.0,-0.1686,-0.2075,-0.22,-0.2719,-0.3103,-0.3493,-0.3881,-0.4523,-0.5283,-0.5962,-0.5478,-0.5009,-0.5013,-0.5019,-0.4901,1.2306,1.2112,1.1534,1.0794,0.9941,1.0042,1.0102,1.0132,0.9982,0.957,0.9082,0.8686,0.7917,0.6983,0.7141,0.662,0.5653,0.7206,0.7979,0.7927,0.7018,0.5844,0.4387,0.3631,0.2665,0.1597,0.052,0.0,0.0,-0.0255,-0.0381,-0.0379,-0.0372,-0.0487,-0.0478,-0.1095,-0.0873,0.0,0.0,0.0,0.0,0.0,0.0,0.0,0.0,0.0,0.0,0.0,0.0451,0.131,0.0544,-0.0323,-0.1052,-0.1637,0.0,0.0,0.0,0.0,0.0,0.0,0.0,0.0,0.0,-0.3284,-0.2956,0.0,-0.2019,0.0,-0.0821,-0.0202,-0.0,-0.01,0.0,0.0,-0.163,-0.1744,-0.1877,-0.2309,-0.2662,-0.2635,-0.2674,-0.2737,-0.2968,-0.2042,-0.1461,-0.1993,-0.2132,-0.2136,-0.2012,-0.0891,0.0,0.0,0.0,0.0,0.0,0.0,0.0,0.0,0.0,0.0,0.0,-0.0933,-0.1599,-0.2132,-0.24,-0.2665,-0.306,-0.3863,-0.4259,-0.3838,-0.3656,-0.3749,-0.3919,-0.3932,-0.3942,1.28,1.2596,1.2522,1.1993,1.1405,1.136,1.1341,1.1341,1.1347,1.1072,1.0419,0.9888,0.9217,0.8695,0.8624,0.8254,0.7818,0.8844,0.9638,0.9908,0.874,0.7083,0.5169,0.4409,0.3561,0.2603,0.1208,0.0265,0.0,0.0,0.0,0.0,0.0,0.0,0.0,-0.0626,-0.0635,0.0,0.0,0.0,0.0,0.0,0.0,0.0,0.0,0.0,0.0,0.0,0.0344,0.0999,0.0332,-0.011,-0.0432,-0.127,-0.1965,0.0,0.0,0.0,0.0,0.0,0.0,0.0,0.0,0.0,0.0,0.0,-0.1254,-0.0959,-0.0317,0.0,0.0,0.0,-0.0208,-0.084,-0.1157,-0.1274,-0.1305,-0.1527,-0.1768,-0.1828,-0.1732,-0.188,-0.2307,-0.184,-0.1491,-0.1908,-0.2053,-0.1799,-0.1151,-0.0388,0.0,0.0,0.0,0.0,0.0,0.0,0.0,0.0,0.0,0.0,0.0,-0.0269,-0.0808,-0.1212,-0.1481,-0.175,-0.2018,-0.2827,-0.3096,-0.2821,-0.2658,-0.2903,-0.3318,-0.3459,-0.347,1.2983,1.2732,1.2732,1.2637,1.2481,1.223,1.2115,1.2115,1.2265,1.1884,1.1423,1.0586,1.0215,1.0122,1.0241,1.0166,1.001,1.0156,1.0793,1.147,1.007,0.8303,0.6034,0.5051,0.407,0.3089,0.18,0.0683,0.0,0.0,0.0,0.0,0.0,0.0,0.0,0.0,0.0,0.0,0.0,0.0,0.0,0.0,0.0,0.0,0.0,0.0,0.0,0.0,0.0,0.0,0.0,0.0,0.0,-0.0986,-0.1607,0.0,-0.2238,0.0,0.0,0.0,0.0,0.0,0.0,0.0,0.0,-0.1275,-0.0536,0.0,0.0,0.0,0.0,0.0,0.0,0.0,-0.043,-0.0762,-0.0674,-0.0677,-0.0685,-0.0824,-0.0839,-0.0974,-0.1484,-0.1632,-0.1783,-0.168,-0.1698,-0.118,0.0,0.0,0.0,0.0,0.0,0.0,0.0,0.0,0.0,0.0,0.0,0.0,0.0,0.0,0.0,0.0,-0.0539,-0.0943,-0.0943,-0.1481,-0.1885,-0.2019,-0.2151,-0.2418,-0.2689,-0.2823,-0.2965,1.3054,1.2732,1.2732,1.2644,1.2494,1.244,1.242,1.242,1.242,1.2338,1.2032,1.171,1.1616,1.169,1.1721,1.1596,1.1289,1.1596,1.1697,1.1616,1.0711,0.9334,0.7643,0.5859,0.4409,0.3126,0.1807,0.0686,0.0,0.0,0.0,0.0,0.0,0.0,0.0,0.0,0.0,0.0,0.0,0.0,0.0,0.0,0.0,0.0,0.0,0.0,0.0,0.0,0.0,0.0,0.0,0.0,0.0,0.0,0.0,0.0,0.0,0.0,0.0,0.0,0.0,0.0,-0.2459,-0.2375,-0.1841,-0.077,-0.0111,0.0,0.0,0.0,0.0,0.0,0.0,0.0,0.0,-0.0113,-0.0116,0.0,-0.0118,-0.012,0.0,0.0,0.0,-0.0382,0.0,0.0,0.0,-0.0265,0.0,0.0,0.0,0.0,0.0,0.0,0.0,0.0,0.0,0.0,0.0,0.0,0.0,0.0,0.0,0.0,-0.0135,0.0,0.0,-0.0404,-0.0673,-0.1212,-0.175,-0.2019,-0.1616,-0.1481,-0.1616,1.3034,0.0,1.2732,1.2644,0.0,1.2501,1.2501,1.2501,1.2501,1.242,1.2277,1.2128,1.206,1.206,1.2134,1.2033,1.1861,1.2094,1.2026,1.1952,1.054,0.9259,0.7986,0.621,0.4467,0.3025,0.2108,0.1111,0.0,0.0,0.0,0.0,0.0,0.0,0.0,0.0,0.0,0.0,0.0,0.0,0.0,0.0,0.0,0.0,0.0,0.0,0.0,0.0,0.0,0.0,0.0,0.0,0.0,0.0,0.0,-0.0875,-0.141,-0.1828,-0.2028,-0.2149,-0.2051,-0.1511,-0.1864,-0.1994,-0.1772,-0.0669,0.0,0.0,0.0,0.0,0.0,0.0,0.0,0.0,0.0,0.0,0.0,0.0,0.0,0.0,0.0,0.0,0.0,0.0,0.0,0.0,0.0,0.0,0.0,0.0,0.0,0.0,0.0,0.0,0.0,0.0,0.0,0.0,0.0,0.0,0.0,0.0,0.0,0.0,0.0,0.0,0.0,0.0,-0.0135,-0.0404,-0.0808,-0.1346,-0.1481,-0.1077,-0.0673,1.2965,1.2691,1.2691,1.2617,1.2501,1.2501,1.2501,1.2501,0.0,0.0,0.0,1.2325,1.2257,1.2142,1.2135,1.221,1.2159,1.2196,1.2265,1.2366,1.0435,0.8977,0.7986,0.6395,0.4799,0.349,0.2702,0.1686,0.0421,0.0137,0.0,0.0,0.0,0.0,0.0,0.0,0.0,0.0,0.0,0.0,0.0,0.0,0.0,0.0,0.0,0.0,0.0,0.0,0.0,0.0,0.0,0.0,0.0,0.0,0.0,0.0,-0.0998,-0.1654,-0.1523,-0.1651,-0.1552,-0.0998,-0.146,-0.1695,-0.1466,-0.0563,0.0,0.0,0.0,0.0,0.0,0.0,0.0,0.0,0.0,0.0,0.0,0.0,0.0,0.0,0.0,0.0,0.0,0.0,0.0,0.0,0.0,0.0,0.0,0.0,0.0,0.0,0.0,0.0,0.0,0.0,0.0,0.0,0.0,0.0,0.0,0.0,0.0,0.0,0.0,0.0,0.0,0.0,0.0,0.0,0.0,-0.0404,-0.1346,-0.0808,0.0,1.2556,1.2535,1.2535,1.2522,1.2501,1.2501,1.2501,1.2501,1.2501,1.2488,1.2474,1.2474,1.2461,1.244,1.244,1.2454,1.2467,1.2454,1.2464,1.2373,1.099,0.9508,0.8131,0.6833,0.5822,0.4799,0.3158,0.2127,0.1822,0.0552,0.0,0.0,0.0,0.0,0.0,0.0,0.0,0.0,0.0,0.0,0.0,0.0,0.0,0.0,0.0,0.0,0.0,0.0,0.0,0.0,0.0,0.0,0.0,0.0,0.0,0.0,-0.0699,-0.1048,-0.1046,-0.1514,-0.175,-0.1633,-0.1754,-0.1396,-0.0344,-0.0115,0.0,0.0,0.0,0.0,0.0,0.0,0.0,0.0,0.0,0.0,0.0,0.0,0.0,0.0,0.0,0.0,0.0,0.0,0.0,0.0,0.0,0.0,0.0,0.0,0.0,0.0,0.0,0.0,0.0,0.0,0.0,0.0,0.0,0.0,0.0,0.0,0.0,0.0,0.0,0.0,0.0,0.0,0.0,0.0,0.0,0.0,0.0,0.0,0.0,1.2501,1.2501,1.2501,1.2501,1.2501,1.2501,1.2501,1.2501,1.2501,1.2501,1.2501,1.2501,1.2501,1.2501,1.2501,1.2501,1.2501,1.2574,1.2581,1.2373,1.1082,0.9905,0.8719,0.7557,0.6551,0.5383,0.4025,0.2851,0.2264,0.1111,0.0411,0.0,0.0,0.0,0.0,0.0,0.0,0.0,0.0,0.0,0.0,0.0,0.0,0.0,0.0,0.0,0.0,0.0,0.0,0.0,0.0,0.0,0.0,0.0,0.0,0.0,-0.0236,-0.0471,-0.0353,-0.0707,-0.0824,-0.0824,-0.0824,-0.059,0.0,0.0,0.0,0.0,0.0,0.0,0.0,0.0,0.0,0.0,0.0,0.0,0.0,0.0,0.0,0.0,0.0,0.0,0.0,0.0,0.0,0.0,0.0,0.0,0.0,0.0,0.0,0.0,0.0,0.0,0.0,0.0,0.0,0.0,0.0,0.0,0.0,0.0,0.0,0.0,0.0,0.0,0.0,0.0,0.0,0.0,0.0,0.0,0.0,0.0,0.0,1.2501,1.2501,1.2501,1.2501,1.2501,1.2501,1.2501,1.2501,1.2501,1.2501,1.2501,1.2501,1.2501,1.2501,1.2501,1.2501,1.2488,1.2546,1.2395,1.2216,1.1051,1.0023,0.9302,0.814,0.6986,0.5818,0.4613,0.3584,0.2567,0.1541,0.0692,0.0,0.0,0.0,0.0,0.0,0.0,0.0,0.0,0.0,0.0,0.0,0.0,0.0,0.0,0.0,0.0,0.0,0.0,0.0,0.0,0.0,0.0,0.0,0.0,0.0,0.0,0.0,0.0,0.0,0.0,0.0,0.0,0.0,0.0,0.0,0.0,0.0,0.0,0.0,0.0,0.0,0.0,0.0,0.0,0.0,0.0,0.0,0.0,0.0,0.0,0.0,0.0,0.0,0.0,0.0,0.0,0.0,0.0,0.0,0.0,0.0,0.0,0.0,0.0,0.0,0.0,0.0,0.0,0.0,0.0,0.0,0.0,0.0,0.0,0.0,0.0,0.0,0.0,0.0,0.0,0.0,0.0,0.0,0.0,1.2501,1.2501,1.2501,1.2501,1.2501,1.2501,1.2501,1.2501,1.2501,1.2501,1.2501,1.2501,1.2501,1.2501,1.2501,1.2501,1.2501,1.2488,1.2172,1.1626,1.0847,1.011,0.9318,0.815,0.7131,0.6261,0.4802,0.3905,0.3294,0.1854,0.085,0.0,0.0,0.0,0.0,0.0,0.0,0.0,0.0,0.0,0.0,0.0,0.0,0.0,0.0,0.0,0.0,0.0,0.0,0.0,0.0,0.0,0.0,0.0,0.0,0.0,0.0,0.0,0.0,0.0,0.0,0.0,0.0,0.0,0.0,0.0,0.0,0.0,0.0,0.0,0.0,0.0,0.0,0.0,0.0,0.0,0.0,0.0,0.0,0.0,0.0,0.0,0.0,0.0,0.0,0.0,0.0,0.0,0.0,0.0,0.0,0.0,0.0,0.0,0.0,0.0,0.0,0.0,0.0,0.0,0.0,0.0,0.0,0.0,0.0,0.0,0.0,0.0,0.0,0.0,0.0,0.0,0.0,0.0,0.0,1.2583,1.2501,1.2501,1.2501,1.2501,1.2501,1.2501,1.2501,1.2501,1.2501,1.2501,1.2501,1.2501,1.2501,1.2501,1.2501,1.2494,1.2574,1.2318,1.2038,1.1052,1.0197,0.9508,0.8622,0.7708,0.6771,0.5302,0.4102,0.3331,0.1437,0.0284,0.0,0.0,0.0,0.0,0.0,0.0,0.0,0.0,0.0,0.0,0.0,0.0,0.0,0.0,0.0,0.0,0.0,0.0,0.0,0.0,0.0,0.0,0.0,0.0,0.0,0.0,0.0,0.0,0.0,0.0,0.0,0.0,0.0,0.0,0.0,0.0,0.0,0.0,0.0,0.0,0.0,0.0,0.0,0.0,0.0,0.0,0.0,0.0,0.0,0.0,0.0,0.0,0.0,0.0,0.0,0.0,0.0,0.0,0.0,0.0,0.0,0.0,0.0,0.0,0.0,0.0,0.0,0.0,0.0,0.0,0.0,0.0,0.0,0.0,0.0,0.0,0.0,0.0,0.0,0.0,0.0,0.0,0.0,0.0,1.2568,1.2637,1.263,1.2603,1.2562,1.2562,1.2542,1.2501,1.2501,1.2501,1.2501,1.2501,1.2501,1.2501,1.2501,1.2501,1.2488,1.2553,1.2484,1.2436,1.1422,1.0595,0.9799,0.8905,0.7972,0.7013,0.5522,0.4161,0.2799,0.1022,0.0,0.0,0.0,0.0,0.0,0.0,0.0,0.0,0.0,0.0,0.0,0.0,0.0,0.0,0.0,0.0,0.0,0.0,0.0,0.0,0.0,0.0,0.0,0.0,0.0,0.0,0.0,0.0,0.0,0.0,0.0,0.0,0.0,0.0,0.0,0.0,0.0,0.0,0.0,0.0,0.0,0.0,0.0,0.0,0.0,0.0,0.0,0.0,0.0,0.0,0.0,0.0,0.0,0.0,0.0,0.0,0.0,0.0,0.0,0.0,0.0,0.0,0.0,0.0,0.0,0.0,0.0,0.0,0.0,0.0,0.0,0.0,0.0,0.0,0.0,0.0,0.0,0.0,0.0,0.0,0.0,0.0,0.0,0.0,0.0,1.2782,1.2935,1.2935,1.284,1.2718,1.2718,1.2644,1.2535,1.2515,1.2508,1.2515,1.2501,1.2501,1.2501,1.2501,1.2501,1.2501,1.2488,1.2574,1.2471,1.1682,1.0836,0.9949,0.8905,0.8008,0.7248,0.5588,0.3623,0.1509,0.0,0.0,0.0,0.0,0.0,0.0,0.0,0.0,0.0,0.0,0.0,0.0,0.0,0.0,0.0,0.0,0.0,0.0,0.0,0.0,0.0,0.0,0.0,0.0,0.0,0.0,0.0,0.0,0.0,0.0,0.0,0.0,0.0,0.0,0.0,0.0,0.0,0.0,0.0,0.0,0.0,0.0,0.0,0.0,0.0,0.0,0.0,0.0,0.0,0.0,0.0,0.0,0.0,0.0,0.0,0.0,0.0,0.0,0.0,0.0,0.0,0.0,0.0,0.0,0.0,0.0,0.0,0.0,0.0,0.0,0.0,0.0,0.0,0.0,0.0,0.0,0.0,0.0,0.0,0.0,0.0,0.0,0.0,0.0,0.0,0.0,1.3205,1.3123,1.2963,1.2929,1.2881,1.2874,1.2847,1.2786,1.2691,1.2651,1.263,1.2549,1.2501,1.2501,1.2501,1.2501,1.2501,1.2501,1.2474,1.2427,1.1657,1.0851,1.0031,0.9116,0.8162,0.7193,0.566,0.3657,0.1363,0.0454,0.0,0.0,0.0,0.0,0.0,0.0,0.0,0.0,0.0,0.0,0.0,0.0,0.0,0.0,0.0,0.0,0.0,0.0,0.0,0.0,0.0,0.0,0.0,0.0,0.0,0.0,0.0,0.0,0.0,0.0,0.0,0.0,0.0,0.0,0.0,0.0,0.0,0.0,0.0,0.0,0.0,0.0,0.0,0.0,0.0,0.0,0.0,0.0,0.0,0.0,0.0,0.0,0.0,0.0,0.0,0.0,0.0,0.0,0.0,0.0,0.0,0.0,-0.0808,-0.1077,0.0,0.0,0.0,0.0,0.0,0.0,0.0,0.0,0.0,0.0,0.0,0.0,0.0,0.0,0.0,0.0,0.0,0.0,0.0,0.0,0.0,1.3356,1.3274,1.3105,1.3071,1.303,1.303,1.3003,1.2956,1.2847,1.2807,1.2786,1.2691,1.2651,1.2651,1.2651,1.2651,1.2474,1.2556,1.2501,1.2501,1.1882,1.1101,0.9998,0.9236,0.843,0.7285,0.5423,0.3396,0.1687,0.046,0.0,0.0,0.0,0.0,0.0,0.0,0.0,0.0,0.0,0.0,0.0,0.0,0.0,0.0,0.0,0.0,0.0,0.0,0.0,0.0,0.0,0.0,0.0,0.0,0.0,0.0,0.0,0.0,0.0,0.0,0.0,0.0,0.0,0.0,0.0,0.0,0.0,0.0,0.0,0.0,0.0,0.0,0.0,0.0,0.0,0.0,0.0,0.0,0.0,0.0,0.0,0.0,0.0,0.0,0.0,0.0,0.0,0.0,0.0,0.0,-0.0269,-0.0673,-0.1481,-0.1616,-0.0943,0.0,0.0,0.0,0.0,0.0,0.0,0.0,0.0,0.0,0.0,0.0,0.0,0.0,0.0,0.0,0.0,0.0,0.0,0.0,0.0,1.341,1.3403,1.3403,1.3322,1.3207,1.32,1.3105,1.301,1.2969,1.2956,1.2956,1.2935,1.2908,1.2935,1.2908,1.2769,1.2549,1.2501,1.2549,1.2549,1.2393,1.161,1.0186,0.9584,0.865,0.7228,0.4711,0.3144,0.2358,0.0943,0.0,0.0,0.0,0.0,0.0,0.0,0.0,0.0,0.0,0.0,0.0,0.0,0.0,0.0,0.0,0.0,0.0,0.0,0.0,0.0,0.0,0.0,0.0,0.0,0.0,0.0,0.0,0.0,0.0,0.0,0.0,0.0,0.0,0.0,0.0,0.0,0.0,0.0,0.0,0.0,0.0,0.0,0.0,0.0,0.0,0.0,0.0,0.0,0.0,0.0,0.0,0.0,0.0,0.0,0.0,0.0,0.0,0.0,0.0,0.0,0.0,-0.1616,-0.2021,-0.1885,-0.1481,0.0,0.0,0.0,0.0,0.0,0.0,0.0,0.0,0.0,0.0,0.0,0.0,0.0,0.0,0.0,0.0,0.0,0.0,0.0,0.0,1.3702,1.3702,1.3702,1.362,1.3498,1.3485,1.3403,1.3254,1.3159,1.3274,1.3091,1.3171,1.3123,1.2963,1.2963,1.2963,1.2789,1.2854,1.2655,1.2496,1.2661,1.2179,1.1054,1.0099,0.8509,0.6424,0.4984,0.3538,0.2412,0.1448,0.0644,0.0,0.0,0.0,0.0,0.0,0.0,0.0,0.0,0.0,0.0,0.0,0.0,0.0,0.0,0.0,0.0,0.0,0.0,0.0,0.0,0.0,0.0,0.0,0.0,0.0,0.0,0.0,0.0,0.0,0.0,0.0,0.0,0.0,0.0,0.0,0.0,0.0,0.0,0.0,0.0,0.0,0.0,0.0,0.0,0.0,0.0,0.0,0.0,0.0,0.0,0.0,0.0,0.0,0.0,0.0,0.0,0.0,0.0,0.0,0.0,-0.1885,-0.2021,-0.2155,-0.1885,-0.1346,-0.0808,0.0,0.0,0.0,0.0,0.0,0.0,0.0,0.0,0.0,0.0,0.0,0.0,0.0,0.0,0.0,0.0,0.0,0.0,1.3838,1.3838,1.3838,1.379,1.3709,1.3709,1.3654,1.3559,1.3464,1.3424,1.3397,1.3446,1.3377,1.32,1.3152,1.3125,1.3125,1.3125,1.2956,1.2929,1.2996,1.2648,1.1671,1.0056,0.8114,0.6172,0.5037,0.3901,0.2601,0.1627,0.0813,0.0,0.0,0.0,0.0,0.0,0.0,0.0,0.0,0.0,0.0,0.0,0.0,0.0,0.0,0.0,0.0,0.0,0.0,0.0,0.0,0.0,0.0,0.0,0.0,0.0,0.0,0.0,0.0,0.0,0.0,0.0,0.0,0.0,0.0,0.0,0.0,0.0,0.0,0.0,0.0,0.0,0.0,0.0,0.0,0.0,0.0,0.0,0.0,0.0,0.0,0.0,0.0,0.0,0.0,0.0,0.0,0.0,0.0,0.0,0.0,0.0,-0.1885,-0.2021,-0.2155,-0.175,-0.1077,0.0,0.0,0.0,0.0,0.0,0.0,0.0,0.0,0.0,0.0,0.0,0.0,0.0,0.0,0.0,0.0,0.0,0.0,1.3871,1.3865,1.3871,1.3871,1.3858,1.3851,1.3838,1.3824,1.381,1.379,1.3777,1.3654,1.3614,1.3593,1.3478,1.3424,1.3424,1.3424,1.3424,1.3356,1.3214,1.2767,1.1589,0.9632,0.7677,0.6041,0.5061,0.3915,0.2781,0.18,0.0815,0.0,0.0,0.0,0.0,0.0,0.0,0.0,0.0,0.0,0.0,0.0,0.0,0.0,0.0,0.0,0.0,0.0,0.0,0.0,0.0,0.0,0.0,0.0,0.0,0.0,0.0,0.0,0.0,0.0,0.0,0.0,0.0,0.0,0.0,0.0,0.0,0.0,0.0,0.0,0.0,0.0,0.0,0.0,0.0,0.0,0.0,0.0,0.0,0.0,0.0,0.0,0.0,0.0,0.0,0.0,0.0,0.0,0.0,0.0,0.0,0.0,0.0,-0.175,-0.1885,-0.2155,0.0,0.0,0.0,0.0,0.0,0.0,0.0,0.0,0.0,0.0,0.0,0.0,0.0,0.0,0.0,0.0,0.0,0.0,0.0,1.4183,1.4177,1.4177,1.4116,1.4021,1.4007,1.3946,1.3851,1.3851,1.3871,1.3838,1.3804,1.379,1.3783,1.3743,1.3552,1.3532,1.3363,1.3376,1.3363,1.2803,1.213,1.1003,0.9482,0.7817,0.6158,0.5156,0.4334,0.3505,0.1998,0.0833,0.0,0.0,0.0,0.0,0.0,0.0,0.0,0.0,0.0,0.0,0.0,0.0,0.0,0.0,0.0,0.0,0.0,0.0,0.0,0.0,0.0,0.0,0.0,0.0,0.0,0.0,0.0,0.0,0.0,0.0,0.0,0.0,0.0,0.0,0.0,0.0,0.0,0.0,0.0,0.0,0.0,0.0,0.0,0.0,0.0,0.0,0.0,0.0,0.0,0.0,0.0,0.0,0.0,0.0,0.0,0.0,0.0,0.0,0.0,0.0,0.0,0.0,0.0,-0.175,-0.2021,0.0,0.0,0.0,0.0,0.0,0.0,0.0,0.0,0.0,0.0,0.0,0.0,0.0,0.0,0.0,-0.1077,-0.0404,0.0,0.0,1.4482,1.4489,1.4482,1.4434,1.4353,1.4353,1.4265,1.4143,1.4122,1.4089,1.4034,1.3966,1.3939,1.3933,1.3871,1.3666,1.3488,1.3488,1.366,1.3488,1.2087,1.1124,1.0325,0.9258,0.7725,0.6221,0.5214,0.4539,0.3701,0.2187,0.0842,0.0,0.0,0.0,0.0,0.0,0.0,0.0,0.0,0.0,0.0,0.0,0.0,0.0,0.0,0.0,0.0,0.0,0.0,0.0,0.0,0.0,0.0,0.0,0.0,0.0,0.0,0.0,0.0,0.0,0.0,0.0,0.0,0.0,0.0,0.0,0.0,0.0,0.0,0.0,0.0,0.0,0.0,0.0,0.0,0.0,0.0,0.0,0.0,0.0,0.0,0.0,0.0,0.0,0.0,0.0,0.0,0.0,0.0,0.0,0.0,0.0,0.0,0.0,0.0,0.0,0.0,0.0,0.0,0.0,0.0,0.0,0.0,0.0,0.0,0.0,0.0,-0.0539,0.0,0.0,0.0,-0.1885,-0.1212,-0.0673,-0.0539,1.474,1.474,1.474,1.474,1.4719,1.4733,1.4624,1.4543,1.4509,1.4428,1.4306,1.417,1.4122,1.4089,1.3994,1.3905,1.3905,1.3933,1.3919,1.3223,1.1635,1.0179,1.0119,0.8977,0.7592,0.624,0.5222,0.4374,0.3533,0.2188,0.101,0.0,0.0,0.0,0.0,0.0,0.0,0.0,0.0,0.0,0.0,0.0,0.0,0.0,0.0,0.0,0.0,0.0,0.0,0.0,0.0,0.0,0.0,0.0,0.0,0.0,0.0,0.0,0.0,0.0,0.0,0.0,0.0,0.0,0.0,0.0,0.0,0.0,0.0,0.0,0.0,0.0,0.0,0.0,0.0,0.0,0.0,0.0,0.0,0.0,0.0,0.0,0.0,0.0,0.0,0.0,0.0,0.0,0.0,0.0,0.0,0.0,0.0,0.0,0.0,0.0,0.0,0.0,0.0,0.0,0.0,0.0,0.0,0.0,0.0,0.0,0.0,-0.1616,-0.1346,-0.1481,-0.2289,-0.229,-0.2155,-0.175,-0.1481,1.474,1.474,1.474,1.474,1.474,1.474,1.4726,1.4692,1.4692,1.4604,1.4475,1.4421,1.434,1.4245,1.419,1.4204,1.4177,1.4177,1.3846,1.2947,1.1068,1.017,0.9764,0.8599,0.7329,0.6296,0.5069,0.4044,0.3032,0.2531,0.1516,0.0,0.0,0.0,0.0,0.0,0.0,0.0,0.0,0.0,0.0,0.0,0.0,0.0,0.0,0.0,0.0,0.0,0.0,0.0,0.0,0.0,0.0,0.0,0.0,0.0,0.0,0.0,0.0,0.0,0.0,0.0,0.0,0.0,0.0,0.0,0.0,0.0,0.0,0.0,0.0,0.0,0.0,0.0,0.0,0.0,0.0,0.0,0.0,0.0,0.0,0.0,0.0,0.0,0.0,0.0,0.0,0.0,0.0,0.0,0.0,0.0,0.0,0.0,0.0,0.0,0.0,0.0,0.0,0.0,0.0,0.0,0.0,0.0,0.0,-0.175,-0.229,-0.2559,-0.2425,-0.2559,-0.2692,-0.2558,-0.2423,-0.2289,-0.2155,1.495,1.495,1.495,1.495,1.4943,1.495,1.4909,1.4855,1.4848,1.4719,1.455,1.4516,1.4434,1.4306,1.4299,1.4292,1.4299,1.4306,1.4129,1.304,1.1191,1.0112,0.9568,0.8225,0.6755,0.6381,0.4805,0.3591,0.2904,0.2551,0.1698,0.0,0.0,0.0,0.0,0.0,0.0,0.0,0.0,0.0,0.0,0.0,0.0,0.0,0.0,0.0,0.0,0.0,0.0,0.0,0.0,0.0,0.0,0.0,0.0,0.0,0.0,0.0,0.0,0.0,0.0,0.0,0.0,0.0,0.0,0.0,0.0,0.0,0.0,0.0,0.0,0.0,0.0,0.0,0.0,0.0,0.0,0.0,0.0,0.0,0.0,0.0,0.0,0.0,0.0,0.0,0.0,0.0,0.0,0.0,0.0,0.0,0.0,0.0,0.0,0.0,0.0,0.0,0.0,0.0,0.0,0.0,0.0,-0.0943,-0.1616,-0.2021,-0.2559,-0.2965,-0.3098,-0.3096,-0.2959,-0.2827,-0.2558,-0.2289,-0.2155,1.5181,1.5181,1.5181,1.5181,1.5181,1.5174,1.5106,1.5011,1.5004,1.4835,1.459,1.455,1.4475,1.4326,1.4299,1.4299,1.4306,1.4312,1.3958,1.2692,1.0717,0.9642,0.8918,0.7445,0.5987,0.5946,0.452,0.3299,0.2424,0.2242,0.1201,0.0,0.0,0.0,0.0,0.0,0.0,0.0,0.0,0.0,0.0,0.0,0.0,0.0,0.0,0.0,0.0,0.0,0.0,0.0,0.0,0.0,0.0,0.0,0.0,0.0,0.0,0.0,0.0,0.0,0.0,0.0,0.0,0.0,0.0,0.0,0.0,0.0,0.0,0.0,0.0,0.0,0.0,0.0,0.0,0.0,0.0,0.0,0.0,0.0,0.0,0.0,0.0,0.0,0.0,0.0,0.0,0.0,0.0,0.0,0.0,0.0,0.0,0.0,0.0,0.0,0.0,0.0,0.0,0.0,0.0,0.0,0.0,0.0,-0.2155,-0.2425,-0.2694,-0.2963,-0.3096,-0.3228,-0.3228,-0.323,-0.2827,-0.2289,-0.2289,1.5181,1.5181,1.5181,1.5181,1.5181,1.5181,1.5167,1.5147,1.5133,1.4977,1.4719,1.4692,1.4536,1.4353,1.4299,1.4299,1.4299,1.4312,1.3053,1.1078,0.9468,0.8583,0.7513,0.6255,0.4815,0.3909,0.352,0.2618,0.1046,0.0347,0.0,0.0,0.0,0.0,0.0,0.0,0.0,0.0,0.0,0.0,0.0,0.0,0.0,0.0,0.0,0.0,0.0,0.0,0.0,0.0,0.0,0.0,0.0,0.0,0.0,0.0,0.0,0.0,0.0,0.0,0.0,0.0,0.0,0.0,0.0,0.0,0.0,0.0,0.0,0.0,0.0,0.0,0.0,0.0,0.0,0.0,0.0,0.0,0.0,0.0,0.0,0.0,0.0,0.0,0.0,0.0,0.0,0.0,0.0,0.0,0.0,0.0,0.0,0.0,0.0,0.0,0.0,0.0,0.0,0.0,0.0,0.0,0.0,0.0,-0.2155,-0.2425,-0.2694,-0.2961,-0.323,-0.3362,-0.3499,-0.3633,-0.3096,-0.2423,-0.2423,1.5181,1.5181,1.5181,1.5181,1.5181,1.5181,1.5181,1.5181,1.5174,1.5018,1.4808,1.4726,1.4577,1.436,1.4299,1.4299,1.4306,1.4319,1.2337,0.9815,0.8393,0.7149,0.6267,0.5196,0.4124,0.3221,0.2665,0.1944,0.0,0.0,0.0,0.0,0.0,0.0,0.0,0.0,0.0,0.0,0.0,0.0,0.0,0.0,0.0,0.0,0.0,0.0,0.0,0.0,0.0,0.0,0.0,0.0,0.0,0.0,0.0,0.0,0.0,0.0,0.0,0.0,0.0,0.0,0.0,0.0,0.0,0.0,0.0,0.0,0.0,0.0,0.0,0.0,0.0,0.0,0.0,0.0,0.0,0.0,0.0,0.0,0.0,0.0,0.0,0.0,0.0,0.0,0.0,0.0,0.0,0.0,0.0,0.0,0.0,0.0,0.0,0.0,0.0,0.0,0.0,0.0,0.0,0.0,0.0,0.0,-0.175,-0.2302,-0.2559,-0.2961,-0.323,-0.3631,-0.3768,-0.3768,-0.3096,-0.2692,-0.2423,1.5181,1.5181,1.5181,1.5181,1.5181,1.5181,1.5181,1.5181,1.5147,1.4984,1.476,1.4692,1.4543,1.4353,1.4299,1.4299,1.4306,1.4326,1.2337,0.9819,0.8219,0.6618,0.5191,0.448,0.4126,0.305,0.2331,0.1077,0.0,0.0,0.0,0.0,0.0,0.0,0.0,0.0,0.0,0.0,0.0,0.0,0.0,0.0,0.0,0.0,0.0,0.0,0.0,0.0,0.0,0.0,0.0,0.0,0.0,0.0,0.0,0.0,0.0,0.0,0.0,0.0,0.0,0.0,0.0,0.0,0.0,0.0,0.0,0.0,0.0,0.0,0.0,0.0,0.0,0.0,0.0,0.0,0.0,0.0,0.0,0.0,0.0,0.0,0.0,0.0,0.0,0.0,0.0,0.0,0.0,0.0,0.0,0.0,0.0,0.0,0.0,0.0,0.0,0.0,0.0,0.0,0.0,0.0,0.0,0.0,-0.1775,-0.2329,-0.2582,-0.2828,-0.323,-0.3633,-0.4037,-0.3902,-0.2961,-0.2423,-0.2154,1.5181,1.5181,1.5181,1.5181,1.5181,1.5181,1.5181,1.5167,1.5059,1.4903,1.4733,1.4417,1.4276,1.4333,1.4299,1.4299,1.4306,1.4142,1.3071,1.0728,0.9126,0.7163,0.5557,0.4666,0.3769,0.2872,0.2694,0.1617,0.0,0.0,0.0,0.0,0.0,0.0,0.0,0.0,0.0,0.0,0.0,0.0,0.0,0.0,0.0,0.0,0.0,0.0,0.0,0.0,0.0,0.0,0.0,0.0,0.0,0.0,0.0,0.0,0.0,0.0,0.0,0.0,0.0,0.0,0.0,0.0,0.0,0.0,0.0,0.0,0.0,0.0,0.0,0.0,0.0,0.0,0.0,0.0,0.0,0.0,0.0,0.0,0.0,0.0,0.0,0.0,0.0,0.0,0.0,0.0,0.0,0.0,0.0,0.0,0.0,0.0,0.0,0.0,0.0,0.0,0.0,0.0,0.0,0.0,0.0,0.0,0.0,0.0,-0.2326,-0.2716,-0.3375,-0.3517,-0.3673,-0.3253,-0.2559,-0.2157,-0.2032,1.5181,1.5181,1.5181,1.5181,1.5181,1.5181,1.5181,1.5153,1.5031,1.4882,1.4733,1.4577,1.4428,1.4319,1.4299,1.4299,1.4306,1.4326,1.3255,1.1455,0.9491,0.7527,0.5918,0.4666,0.359,0.2515,0.2335,0.1796,0.0,0.0,0.0,0.0,0.0,0.0,0.0,0.0,0.0,0.0,0.0,0.0,0.0,0.0,0.0,0.0,0.0,0.0,0.0,0.0,0.0,0.0,0.0,0.0,0.0,0.0,0.0,0.0,0.0,0.0,0.0,0.0,0.0,0.0,0.0,0.0,0.0,0.0,0.0,0.0,0.0,0.0,0.0,0.0,0.0,0.0,0.0,0.0,0.0,0.0,0.0,0.0,-0.059,-0.0732,-0.0872,0.0,0.0,0.0,0.0,0.0,0.0,0.0,0.0,0.0,0.0,0.0,0.0,0.0,0.0,0.0,0.0,0.0,0.0,0.0,0.0,0.0,0.0,0.0,0.0,-0.2477,-0.2752,-0.2891,-0.3032,-0.2609,-0.2192,-0.2341,-0.2069,1.5181,1.5181,1.5181,1.5181,1.5181,1.5181,1.5181,1.516,1.4984,1.4848,1.4713,1.4543,1.4394,1.4319,1.4299,1.4306,1.4306,1.4326,1.3071,1.146,0.9491,0.7349,0.5559,0.4305,0.3052,0.1437,0.2525,0.1805,0.0,0.0,0.0,0.0,0.0,0.0,0.0,0.0,0.0,0.0,0.0,0.0,0.0,0.0,0.0,0.0,0.0,0.0,0.0,0.0,0.0,0.0,0.0,0.0,0.0,0.0,0.0,0.0,0.0,0.0,0.0,0.0,0.0,0.0,0.0,0.0,0.0,0.0,0.0,0.0,0.0,0.0,0.0,0.0,0.0,0.0,0.0,0.0,0.0,0.0,0.0,0.0,-0.1194,-0.1638,-0.1625,-0.1318,0.0,0.0,0.0,-0.0283,0.0,0.0,0.0,0.0,0.0,0.0,0.0,0.0,0.0,0.0,0.0,0.0,0.0,0.0,0.0,0.0,0.0,0.0,0.0,-0.1691,-0.2243,-0.2512,-0.2643,-0.2234,-0.2097,-0.2247,-0.2383,1.5181,1.5181,1.5174,1.5174,1.5181,1.5181,1.5181,1.514,1.4882,1.4753,1.4658,1.4462,1.4326,1.4299,1.4299,1.4306,1.4319,1.4326,1.3077,1.1287,0.9496,0.6991,0.5206,0.3775,0.2698,0.1803,0.2177,0.1458,0.0,0.0,0.0,0.0,0.0,0.0,0.0,0.0,0.0,0.0,0.0,0.0,0.0,0.0,0.0,0.0,0.0,0.0,0.0,0.0,0.0,0.0,0.0,0.0,0.0,0.0,0.0,0.0,0.0,0.0,0.0,0.0,0.0,0.0,0.0,0.0,0.0,0.0,0.0,0.0,0.0,0.0,0.0,0.0,0.0,0.0,-0.0926,-0.1384,-0.1532,0.0,0.0,0.0,-0.1662,-0.2261,-0.2702,-0.2529,-0.2219,-0.1605,-0.1164,-0.1019,-0.1164,0.0,0.0,0.0,0.0,0.0,0.0,0.0,0.0,0.0,0.0,0.0,0.0,0.0,0.0,0.0,0.0,0.0,-0.029,-0.1003,-0.1561,-0.1971,-0.2249,-0.2123,-0.2263,-0.2544,-0.2822,1.4909,1.4909,1.4909,1.5018,1.5181,1.5181,1.5133,1.5025,1.4828,1.4624,1.4468,1.4353,1.4299,1.4299,1.4299,1.4306,1.4135,1.3597,1.2716,1.0743,0.8413,0.629,0.4688,0.3626,0.2727,0.2193,0.1654,0.0,0.0,0.0,0.0,0.0,0.0,0.0,0.0,0.0,0.0,0.0,0.0,0.0,0.0,0.0,0.0,0.0,0.0,0.0,0.0,0.0,0.0,0.0,0.0,0.0,0.0,0.0,0.0,0.0,0.0,0.0,0.0,0.0,0.0,0.0,0.0,0.0,0.0,0.0,0.0,0.0,-0.0943,-0.1258,0.0,0.0,0.0,0.0,-0.1401,-0.2173,-0.2477,-0.2467,-0.2614,-0.2454,-0.2753,-0.3204,-0.3493,-0.3629,-0.331,-0.2842,-0.2391,-0.194,-0.1935,-0.1933,-0.1633,-0.1335,-0.1038,-0.0594,0.0,0.0,0.0,0.0,0.0,0.0,0.0,0.0,0.0,0.0,0.0,0.0,0.0,0.0,-0.1006,-0.1431,-0.2006,-0.2449,-0.2584,-0.2851,-0.327,1.474,1.474,1.474,1.4862,1.5038,1.5052,1.4997,1.4889,1.4733,1.4543,1.4299,1.4299,1.4299,1.4299,1.4122,1.4135,1.3965,1.3432,1.239,1.0247,0.7384,0.5429,0.4737,0.3846,0.2756,0.2222,0.0,0.0,0.0,0.0,0.0,0.0,0.0,0.0,0.0,0.0,0.0,0.0,0.0,0.0,0.0,0.0,0.0,0.0,0.0,0.0,0.0,0.0,0.0,0.0,0.0,0.0,0.0,0.0,0.0,0.0,0.0,0.0,0.0,0.0,0.0,0.0,0.0,0.0,0.0,0.0,0.0,0.0,-0.1904,-0.2527,-0.2685,-0.2366,-0.22,-0.2349,-0.2506,-0.2969,-0.3283,-0.3432,-0.358,-0.3727,-0.3874,-0.3865,-0.4475,-0.4609,-0.4568,-0.4086,-0.3312,-0.3007,-0.3007,-0.2857,-0.2559,-0.2258,-0.1958,-0.1509,0.0,0.0,0.0,0.0,0.0,0.0,0.0,0.0,0.0,0.0,0.0,0.0,0.0,0.0,-0.0879,-0.102,-0.1893,-0.305,-0.3482,-0.3891,-0.403,1.4726,1.474,1.4726,1.4733,1.4753,1.4753,1.476,1.4726,1.4584,1.4434,1.4306,1.4299,1.4299,1.4122,1.3768,1.3794,1.3827,1.3293,1.2264,1.0168,0.6359,0.4389,0.3868,0.3516,0.2597,0.1485,0.0,0.0,0.0,0.0,0.0,0.0,0.0,0.0,0.0,0.0,0.0,0.0,0.0,0.0,0.0,0.0,0.0,0.0,0.0,0.0,0.0,0.0,0.0,0.0,0.0,0.0,0.0,0.0,0.0,0.0,0.0,0.0,0.0,0.0,0.0,0.0,0.0,0.0,0.0,-0.0163,-0.0812,-0.1937,-0.2571,-0.304,-0.3347,-0.365,-0.3636,-0.3631,-0.3634,-0.3794,-0.4117,-0.4591,-0.4742,-0.5055,-0.4719,-0.4547,-0.5173,-0.5621,-0.5711,-0.5202,-0.4555,-0.4245,-0.4257,-0.3964,-0.382,-0.3366,-0.3062,-0.2448,-0.1991,-0.1523,0.0,0.0,0.0,0.0,0.0,0.0,0.0,0.0,0.0,0.0,0.0,0.0,-0.134,-0.1624,-0.2778,-0.3789,-0.4374,-0.4805,-0.4936,1.4448,1.4448,1.4448,1.4448,1.4475,1.4658,1.4685,1.457,1.4441,1.4346,1.4312,1.3945,1.3768,1.3768,1.3432,1.3299,1.3207,1.3226,1.2023,0.9186,0.5691,0.4254,0.3725,0.3553,0.2626,0.0943,0.0,0.0,0.0,0.0,0.0,0.0,0.0,0.0,0.0,0.0,0.0,0.0,0.0,0.0,0.0,0.0,0.0,0.0,0.0,0.0,0.0,0.0,0.0,0.0,0.0,0.0,0.0,0.0,0.0,0.0,0.0,0.0,0.0,0.0,0.0,0.0,0.0,0.0,0.0,-0.1318,-0.1969,-0.2611,-0.3087,-0.3399,-0.3553,-0.4031,-0.4183,-0.4346,-0.4509,-0.467,-0.4995,-0.5632,-0.595,-0.6271,-0.6097,-0.7012,-0.7627,-0.7437,-0.7361,-0.7333,-0.6667,-0.5874,-0.5726,-0.5432,-0.5134,-0.4512,-0.4046,-0.3574,-0.3101,-0.2622,-0.2151,0.0,0.0,0.0,0.0,0.0,0.0,0.0,0.0,0.0,0.0,-0.1058,-0.1808,-0.2543,-0.3701,-0.4404,-0.4839,-0.5265,-0.5822,1.4448,1.4455,1.4455,1.4448,1.4475,1.4604,1.4624,1.4563,1.4441,1.4196,1.4011,1.3794,1.3445,1.3115,1.2782,1.2675,1.2812,1.209,1.1232,0.8539,0.5943,0.4301,0.3577,0.3589,0.2841,0.1143,0.0,0.0,0.0,0.0,0.0,0.0,0.0,0.0,0.0,0.0,0.0,0.0,0.0,0.0,0.0,0.0,0.0,0.0,0.0,0.0,0.0,0.0,-0.0354,-0.0702,-0.0873,-0.087,-0.0518,0.0,0.0,0.0,0.0,0.0,0.0,0.0,0.0,0.0,-0.0505,-0.0336,-0.0834,-0.2,-0.2491,-0.3139,-0.3447,-0.3929,-0.4254,-0.4739,-0.5207,-0.537,-0.5857,-0.6178,-0.6499,-0.6978,-0.7467,-0.7637,-0.8276,-0.9201,-0.9972,-0.9601,-0.9371,-0.9204,-0.8878,-0.8054,-0.7232,-0.6923,-0.6612,-0.5981,-0.5498,-0.5011,-0.4381,-0.3751,-0.3115,-0.2642,0.0,0.0,0.0,0.0,0.0,0.0,0.0,0.0,0.0,-0.0914,-0.2128,-0.3174,-0.4342,-0.5054,-0.532,-0.5897,-0.6323,1.4733,1.474,1.474,1.4726,1.4713,1.4618,1.4631,1.4719,1.4584,1.4157,1.379,1.3674,1.2985,1.235,1.182,1.1903,1.2197,1.0921,0.9689,0.8244,0.5446,0.4161,0.3418,0.3237,0.2858,0.2287,0.0,0.0,0.0,0.0,0.0,0.0,0.0,0.0,0.0,0.0,0.0,0.0,0.0,0.0,0.0,-0.1451,-0.144,-0.1077,-0.1256,-0.1256,0.0,0.0,-0.1604,-0.2129,-0.2829,-0.2283,-0.1572,-0.0522,0.0,0.0,0.0,0.0,0.0,0.0,0.0,-0.1517,-0.101,-0.1347,-0.185,-0.2518,-0.3015,-0.3508,-0.3991,-0.4643,-0.5129,-0.5918,-0.6696,-0.7022,-0.751,-0.7831,-0.7994,-0.8481,-0.8811,-0.9298,-1.0098,-1.0884,-1.1362,-1.1314,-1.093,-1.0912,-1.073,-1.021,-0.9371,-0.8554,-0.8238,-0.7761,-0.711,-0.6298,-0.5667,-0.5046,-0.4238,-0.3595,-0.2659,0.0,0.0,0.0,0.0,0.0,0.0,0.0,0.0,-0.1695,-0.2768,-0.3818,-0.4409,-0.5581,-0.6155,-0.6298,-0.6892,1.474,1.474,1.474,1.474,1.4746,1.4441,1.4441,1.474,1.4322,1.3945,1.3757,1.2812,1.2079,1.1936,1.0663,1.0557,1.0435,0.9737,0.8282,0.6615,0.4736,0.3613,0.3239,0.3052,0.3052,0.1716,-0.0,-0.1909,0.0,-0.0954,-0.1145,0.0,-0.2098,-0.2098,-0.2669,-0.3623,-0.3052,-0.2469,-0.1684,-0.1301,-0.1106,-0.1998,-0.1803,-0.2156,-0.2693,-0.2692,-0.2333,-0.1974,-0.3042,-0.447,-0.3573,-0.2666,-0.2467,-0.2111,0.0,0.0,0.0,0.0,-0.0853,-0.1533,-0.2039,-0.2198,-0.1855,-0.1683,-0.2188,-0.2697,-0.337,-0.4029,-0.4693,-0.5346,-0.6337,-0.7135,-0.7765,-0.8423,-0.8916,-0.9578,-0.9743,-1.0071,-1.0563,-1.088,-1.1522,-1.2137,-1.2787,-1.2714,-1.2481,-1.2475,-1.2455,-1.2096,-1.1402,-1.0566,-0.9898,-0.957,-0.8935,-0.8119,-0.7311,-0.668,-0.5534,-0.4562,-0.3627,-0.2525,0.0,0.0,0.0,0.0,0.0,0.0,0.0,-0.2496,-0.2961,-0.3272,-0.388,-0.5532,-0.6709,-0.6702,-0.6842,1.4731,1.454,1.4547,1.454,1.4375,1.4082,1.4069,1.3992,1.3935,1.3542,1.2978,1.2002,1.1095,1.0397,0.9296,0.8788,0.9065,0.8511,0.7207,0.4941,0.3431,0.2669,0.2288,0.2479,0.1716,0.0381,-0.1335,-0.2481,-0.248,-0.2098,-0.2098,-0.286,-0.3623,-0.4194,-0.4766,-0.553,-0.5913,-0.4744,-0.3762,-0.2794,-0.258,-0.2552,-0.2893,-0.3055,-0.3949,-0.4305,-0.3947,-0.3766,-0.4485,-0.5744,-0.4664,-0.3938,-0.3728,-0.3365,-0.3178,-0.2448,-0.1912,-0.1905,-0.2584,-0.3444,-0.3259,-0.3073,-0.3066,-0.3242,-0.3058,-0.3392,-0.3885,-0.4539,-0.5379,-0.6218,-0.7223,-0.8223,-0.8887,-0.9545,-1.0382,-1.1225,-1.1558,-1.189,-1.2044,-1.2363,-1.2827,-1.3446,-1.3881,-1.3803,-1.3929,-1.4128,-1.4142,-1.3958,-1.338,-1.2475,-1.1776,-1.1426,-1.0639,-0.9838,-0.9172,-0.8189,-0.6879,-0.5587,-0.4478,-0.3518,-0.2707,0.0,0.0,0.0,0.0,0.0,0.0,0.0,-0.2688,-0.3003,-0.3308,-0.4364,-0.5572,-0.6337,-0.663,1.4798,1.4228,1.4234,1.4034,1.3682,1.3481,1.3104,1.2722,1.2795,1.2562,1.1796,1.1151,1.0064,0.9007,0.7892,0.7551,0.7599,0.7426,0.5707,0.2862,0.1907,0.0953,0.0572,0.1335,0.0572,-0.1716,-0.3434,-0.3626,-0.267,-0.267,-0.3051,-0.3431,-0.5339,-0.6291,-0.6479,-0.7433,-0.7816,-0.7419,-0.6235,-0.5059,-0.4634,-0.4587,-0.4538,-0.36,-0.4489,-0.538,-0.5559,-0.5559,-0.5378,-0.6458,-0.664,-0.5915,-0.5003,-0.4448,-0.4252,-0.3887,-0.3338,-0.3495,-0.4009,-0.5048,-0.5041,-0.486,-0.4694,-0.4848,-0.4643,-0.4276,-0.4597,-0.5439,-0.6463,-0.765,-0.8666,-0.9849,-1.0688,-1.1356,-1.2035,-1.2881,-1.3559,-1.372,-1.3867,-1.4027,-1.4521,-1.5142,-1.5389,-1.5475,-1.591,-1.5975,-1.5787,-1.5771,-1.538,-1.4584,-1.3879,-1.3493,-1.2566,-1.1763,-1.089,-0.9733,-0.811,-0.6805,-0.5509,-0.4044,-0.3058,-0.21,0.0,0.0,0.0,0.0,0.0,0.0,-0.1921,-0.2557,-0.3022,-0.3313,-0.4238,-0.5327,-0.5767,1.4253,1.387,1.3493,1.2928,1.255,1.1595,1.1033,1.0654,0.9874,1.0229,1.0602,0.9642,0.8696,0.7771,0.6639,0.628,0.6482,0.5916,0.4006,0.1335,-0.0381,-0.1144,-0.1907,-0.0954,-0.1144,-0.2288,-0.3624,-0.4961,-0.4768,-0.4575,-0.4383,-0.4567,-0.6856,-0.8383,-0.8375,-0.9332,-0.9716,-1.009,-0.9105,-0.7541,-0.6544,-0.5891,-0.5631,-0.5246,-0.5774,-0.7366,-0.7542,-0.7173,-0.7889,-0.8786,-0.8969,-0.8067,-0.6273,-0.5725,-0.5365,-0.5182,-0.4633,-0.4786,-0.5478,-0.635,-0.6507,-0.576,-0.5572,-0.5911,-0.5894,-0.5354,-0.5687,-0.6719,-0.7742,-0.8937,-1.0129,-1.1322,-1.252,-1.303,-1.3878,-1.4732,-1.5593,-1.557,-1.5555,-1.5892,-1.6237,-1.6516,-1.6926,-1.719,-1.7643,-1.7736,-1.7483,-1.7284,-1.7448,-1.7025,-1.6349,-1.5658,-1.4579,-1.3746,-1.2664,-1.1469,-0.9993,-0.8328,-0.7007,-0.537,-0.358,-0.2287,0.0,0.0,0.0,0.0,0.0,0.0,-0.0971,-0.1778,-0.2571,-0.3029,-0.3174,-0.3957,-0.425,1.3319,1.2766,1.1882,1.1339,1.0968,1.0059,0.9324,0.8952,0.8379,0.8379,0.8569,0.7999,0.7433,0.6479,0.5149,0.5151,0.5342,0.4579,0.267,0.0,-0.2098,-0.3434,-0.3434,-0.2862,-0.3051,-0.3623,-0.4768,-0.5723,-0.6482,-0.5903,-0.5515,-0.6269,-0.8751,-1.0469,-1.0645,-1.1217,-1.1989,-1.2561,-1.1784,-1.0606,-0.9036,-0.8736,-0.7713,-0.7313,-0.8008,-0.9432,-0.9617,-0.9437,-0.9802,-1.0354,-1.0549,-0.9816,-0.8533,-0.796,-0.7783,-0.7245,-0.6693,-0.6128,-0.7014,-0.7706,-0.8029,-0.7449,-0.6875,-0.742,-0.8117,-0.791,-0.7845,-0.8705,-0.8994,-1.0017,-1.1555,-1.293,-1.3783,-1.4635,-1.5485,-1.6342,-1.7188,-1.7518,-1.7678,-1.7847,-1.8193,-1.8689,-1.8922,-1.9123,-1.9406,-1.9821,-1.9395,-1.9287,-1.9287,-1.9785,-1.8961,-1.83,-1.7328,-1.5843,-1.4586,-1.3398,-1.2244,-1.0547,-0.887,-0.6104,-0.3974,-0.2481,0.0,0.0,0.0,0.0,0.0,-0.0494,-0.0164,-0.0819,-0.1788,-0.2578,-0.2729,-0.304,-0.3345,1.1813,1.1085,1.0069,0.9546,0.9377,0.8515,0.7599,0.7033,0.7426,0.6672,0.5337,0.5527,0.572,0.4768,0.3051,0.4007,0.3624,0.1906,0.0191,-0.0953,-0.286,-0.4196,-0.477,-0.4196,-0.4575,-0.5147,-0.6098,-0.7239,-0.8189,-0.7223,-0.7403,-0.8534,-1.0437,-1.2539,-1.2716,-1.3093,-1.4046,-1.5006,-1.4811,-1.404,-1.304,-1.2229,-1.0421,-1.0175,-1.0697,-1.1625,-1.1991,-1.1986,-1.198,-1.2152,-1.2318,-1.1576,-1.1003,-1.0589,-1.0245,-0.988,-0.8573,-0.8584,-0.9343,-1.0226,-0.9839,-0.9441,-0.9204,-0.9348,-1.0049,-1.0367,-1.0283,-1.0755,-1.1036,-1.1669,-1.3223,-1.4421,-1.5451,-1.6307,-1.7161,-1.8014,-1.8694,-1.9542,-1.9711,-1.9881,-2.0229,-2.0746,-2.096,-2.1149,-2.121,-2.1456,-2.1491,-2.1362,-2.1438,-2.1933,-2.1933,-2.1254,-2.0434,-1.877,-1.6949,-1.5639,-1.4474,-1.288,-1.0848,-0.7379,-0.4383,-0.3038,-0.1859,0.0,0.0,-0.1013,-0.1179,-0.1175,-0.0835,-0.0665,-0.1971,-0.3098,-0.2765,-0.2918,-0.2906,0.9412,0.7933,0.7959,0.8158,0.8169,0.6939,0.5461,0.4147,0.4941,0.3813,0.1524,0.0572,0.0572,0.1906,0.0381,0.0381,0.0572,-0.1143,-0.1905,-0.2859,-0.4575,-0.553,-0.5913,-0.5908,-0.6288,-0.7429,-0.8569,-0.913,-0.9879,-0.9294,-0.9471,-1.1365,-1.3263,-1.4785,-1.4973,-1.5924,-1.7265,-1.7842,-1.7445,-1.6666,-1.6061,-1.4852,-1.2899,-1.2817,-1.312,-1.4016,-1.4368,-1.4368,-1.4368,-1.4368,-1.4395,-1.4225,-1.384,-1.3266,-1.2901,-1.2552,-1.1222,-1.1049,-1.1813,-1.2363,-1.2152,-1.1404,-1.1341,-1.1507,-1.2046,-1.2589,-1.2879,-1.3925,-1.4182,-1.4028,-1.5228,-1.6427,-1.7289,-1.8321,-1.9368,-2.0048,-2.0736,-2.1433,-2.1947,-2.1947,-2.2118,-2.2577,-2.3146,-2.3168,-2.2877,-2.3064,-2.2815,-2.2853,-2.3493,-2.4069,-2.4801,-2.3973,-2.3305,-2.175,-1.9785,-1.8174,-1.6871,-1.515,-1.2888,-0.9183,-0.5986,-0.3797,-0.2591,-0.1717,-0.1376,-0.155,-0.1717,-0.2215,-0.2042,-0.2199,-0.2998,-0.363,-0.3295,-0.3283,-0.3596]}]]